[[{"header":{"parameterUnit":"m.s-1","parameterCategory":1,"la1":30.6,"la2":29.2853,"lo1":-89.7004,"lo2":-87.6739,"dy":0.0162,"dx":0.0183,"nx":112,"ny":82,"refTime":"2023-10-09T18:00:00:Z","depth":0,"parameterNumber":2,"parameterNumberName":"U-component_of_WINDS"},"data":[0.0,0.0,0.0,0.0,0.0,0.0,0.0,0.0,0.0,0.0,0.0,0.0,0.0,0.0,0.0,0.0,0.0,0.0,0.0,0.0,0.0,0.0,0.0,0.0,0.0,0.0,0.0,0.0,0.0,0.0,0.0,0.0,0.0,0.0,0.0,0.0,0.0,0.0,0.0,0.0,0.0,0.0,0.0,0.0,0.0,0.0,0.0,0.0,0.0,0.0,0.0,0.0,0.0,0.0,0.0,0.0,0.0,0.0,0.0,0.0,0.0,0.0,0.0,0.0,0.0,0.0,0.0,0.0,0.0,0.0,0.0,0.0,0.0,0.0,0.0,0.0,0.0,0.0,0.0,0.0,0.0,0.0,0.0,0.0,0.0,0.0,0.0,0.0,0.0,0.0,1.8341,1.9602,1.9628,1.9231,1.8386,1.797,1.7381,1.6581,0.0,0.0,0.0,0.0,0.0,0.0,0.0,0.0,0.0,0.0,0.0,0.0,0.0,0.0,0.0,0.0,0.0,0.0,0.0,0.0,0.0,0.0,0.0,0.0,0.0,0.0,0.0,0.0,0.0,0.0,0.0,0.0,0.0,0.0,0.0,0.0,0.0,0.0,0.0,0.0,0.0,0.0,0.0,0.0,0.0,0.0,0.0,0.0,0.0,0.0,0.0,0.0,0.0,0.0,0.0,0.0,0.0,0.0,0.0,0.0,0.0,0.0,0.0,0.0,0.0,0.0,0.0,0.0,0.0,0.0,0.0,0.0,0.0,0.0,0.0,0.0,0.0,0.0,0.0,0.0,0.0,0.0,0.0,0.0,0.0,0.0,0.0,0.0,0.0,0.0,0.0,0.0,0.0,0.0,0.0,0.0,0.0,0.0,0.0,0.0,0.0,0.0,0.0,0.0,1.9001,2.0221,2.0343,1.9923,1.8955,1.8809,1.8286,1.7153,0.0,0.0,0.0,0.0,0.0,0.0,0.0,0.0,0.0,0.0,0.0,0.0,0.0,0.0,0.0,0.0,0.0,0.0,0.0,0.0,0.0,0.0,0.0,0.0,0.0,0.0,0.0,0.0,0.0,0.0,0.0,0.0,0.0,0.0,0.0,0.0,0.0,0.0,0.0,0.0,0.0,0.0,0.0,0.0,0.0,0.0,0.0,0.0,0.0,0.0,0.0,0.0,0.0,0.0,0.0,0.0,0.0,0.0,0.0,0.0,0.0,0.0,0.0,0.0,0.0,0.0,0.0,0.0,0.0,0.0,0.0,0.0,0.0,0.0,0.0,0.0,0.0,0.0,0.0,0.0,0.0,0.0,0.0,0.0,0.0,0.0,0.0,0.0,0.0,0.0,0.0,0.0,0.0,0.0,0.0,0.0,0.0,0.0,0.0,0.0,0.0,0.0,0.0,1.9122,1.9975,2.0744,2.0833,2.0552,1.9882,1.9407,1.8825,1.8061,1.7734,0.0,0.0,0.0,0.0,0.0,0.0,0.0,0.0,0.0,0.0,0.0,0.0,0.0,0.0,0.0,0.0,0.0,0.0,0.0,0.0,0.0,0.0,0.0,0.0,0.0,0.0,0.0,0.0,0.0,0.0,0.0,0.0,0.0,0.0,0.0,0.0,0.0,0.0,0.0,0.0,0.0,0.0,0.0,0.0,0.0,0.0,0.0,0.0,0.0,0.0,0.0,0.0,0.0,0.0,0.0,0.0,0.0,0.0,0.0,0.0,0.0,0.0,0.0,0.0,0.0,0.0,0.0,0.0,0.0,0.0,0.0,0.0,0.0,0.0,0.0,0.0,0.0,0.0,0.0,0.0,0.0,0.0,0.0,0.0,0.0,0.0,0.0,0.0,0.0,0.0,0.0,0.0,0.0,0.0,0.0,0.0,0.0,0.0,0.0,0.0,0.0,0.0,2.0144,2.0801,2.1203,2.1233,2.1068,2.0665,2.0008,1.9384,1.8869,1.8656,0.0,0.0,0.0,0.0,0.0,0.0,0.0,0.0,0.0,0.0,0.0,0.0,0.0,0.0,0.0,0.0,0.0,0.0,0.0,0.0,0.0,0.0,0.0,0.0,0.0,0.0,0.0,0.0,0.0,0.0,0.0,0.0,0.0,0.0,0.0,0.0,0.0,0.0,0.0,0.0,0.0,0.0,0.0,0.0,0.0,0.0,0.0,0.0,0.0,0.0,0.0,0.0,0.0,0.0,0.0,0.0,0.0,0.0,0.0,0.0,0.0,0.0,0.0,0.0,0.0,0.0,0.0,0.0,0.0,0.0,0.0,0.0,0.0,0.0,0.0,0.0,0.0,0.0,0.0,0.0,0.0,0.0,0.0,0.0,0.0,0.0,0.0,0.0,0.0,0.0,0.0,0.0,0.0,0.0,0.0,0.0,0.0,0.0,0.0,0.0,0.0,0.0,2.0558,2.1221,2.1617,2.165,2.1489,2.1108,2.0647,2.0079,1.9311,1.9064,0.0,0.0,0.0,0.0,0.0,0.0,0.0,0.0,0.0,0.0,0.0,0.0,0.0,0.0,0.0,0.0,0.0,0.0,0.0,0.0,0.0,0.0,0.0,0.0,0.0,0.0,0.0,0.0,0.0,0.0,0.0,0.0,0.0,0.0,0.0,0.0,0.0,0.0,0.0,0.0,0.0,0.0,0.0,0.0,0.0,0.0,0.0,0.0,0.0,0.0,0.0,0.0,0.0,0.0,0.0,0.0,0.0,0.0,0.0,0.0,0.0,0.0,0.0,0.0,0.0,0.0,0.0,0.0,0.0,0.0,0.0,0.0,0.0,0.0,0.0,0.0,0.0,0.0,0.0,0.0,0.0,0.0,0.0,0.0,0.0,0.0,0.0,0.0,0.0,0.0,0.0,0.0,0.0,0.0,0.0,0.0,0.0,0.0,0.0,0.0,0.0,0.0,2.132,2.2039,0.0,2.2217,2.1911,2.1508,2.0866,2.0262,1.9712,0.0,0.0,0.0,0.0,0.0,0.0,0.0,0.0,0.0,0.0,0.0,0.0,0.0,0.0,0.0,0.0,0.0,0.0,0.0,0.0,0.0,0.0,0.0,0.0,0.0,0.0,0.0,0.0,0.0,0.0,0.0,0.0,0.0,0.0,0.0,0.0,0.0,0.0,0.0,0.0,0.0,0.0,0.0,0.0,0.0,0.0,0.0,0.0,0.0,0.0,0.0,0.0,0.0,0.0,0.0,0.0,0.0,0.0,0.0,0.0,0.0,0.0,0.0,0.0,0.0,0.0,0.0,0.0,0.0,0.0,0.0,0.0,0.0,0.0,0.0,0.0,0.0,0.0,0.0,0.0,0.0,0.0,0.0,0.0,0.0,0.0,0.0,0.0,0.0,0.0,0.0,0.0,0.0,0.0,0.0,0.0,0.0,0.0,0.0,0.0,0.0,0.0,2.0988,2.1845,2.2508,0.0,2.2529,2.2204,2.1906,2.1159,2.0518,2.0115,0.0,0.0,0.0,0.0,0.0,0.0,0.0,0.0,0.0,0.0,0.0,0.0,0.0,0.0,0.0,0.0,0.0,0.0,0.0,0.0,0.0,0.0,0.0,0.0,0.0,0.0,0.0,0.0,0.0,0.0,0.0,0.0,0.0,0.0,0.0,0.0,0.0,0.0,0.0,0.0,0.0,0.0,0.0,0.0,0.0,0.0,0.0,0.0,0.0,0.0,0.0,0.0,0.0,0.0,0.0,0.0,0.0,0.0,0.0,0.0,0.0,0.0,0.0,0.0,0.0,0.0,0.0,0.0,0.0,0.0,0.0,0.0,0.0,0.0,0.0,0.0,0.0,0.0,0.0,0.0,0.0,0.0,0.0,0.0,0.0,0.0,0.0,0.0,0.0,0.0,0.0,0.0,0.0,0.0,0.0,0.0,0.0,0.0,0.0,0.0,0.0,0.0,2.1595,2.2075,2.2478,2.2876,2.2547,2.2314,2.2314,2.1562,2.0943,0.0,0.0,0.0,0.0,0.0,0.0,0.0,0.0,0.0,0.0,0.0,0.0,0.0,0.0,0.0,0.0,0.0,0.0,0.0,0.0,0.0,0.0,0.0,0.0,0.0,0.0,0.0,0.0,0.0,0.0,0.0,0.0,0.0,0.0,0.0,0.0,0.0,0.0,0.0,0.0,0.0,0.0,0.0,0.0,0.0,0.0,0.0,0.0,0.0,0.0,0.0,0.0,0.0,0.0,0.0,0.0,0.0,0.0,0.0,0.0,0.0,0.0,0.0,0.0,0.0,0.0,0.0,0.0,0.0,0.0,0.0,0.0,0.0,0.0,0.0,0.0,0.0,0.0,0.0,0.0,0.0,0.0,0.0,0.0,0.0,0.0,0.0,0.0,0.0,0.0,0.0,0.0,0.0,0.0,0.0,0.0,0.0,0.0,0.0,0.0,0.0,0.0,0.0,2.2486,2.2945,2.3321,2.3773,2.3394,2.3023,2.2748,2.2002,2.1449,2.1219,0.0,0.0,0.0,0.0,0.0,0.0,0.0,0.0,0.0,0.0,0.0,0.0,0.0,0.0,0.0,0.0,0.0,0.0,0.0,0.0,0.0,0.0,0.0,0.0,0.0,0.0,0.0,0.0,0.0,0.0,0.0,0.0,0.0,0.0,0.0,0.0,0.0,0.0,0.0,0.0,0.0,0.0,0.0,0.0,0.0,0.0,0.0,0.0,0.0,0.0,0.0,0.0,0.0,0.0,0.0,0.0,0.0,0.0,0.0,0.0,0.0,0.0,0.0,0.0,0.0,0.0,0.0,0.0,0.0,0.0,0.0,0.0,0.0,0.0,0.0,0.0,0.0,0.0,0.0,0.0,0.0,0.0,0.0,0.0,0.0,0.0,0.0,0.0,0.0,0.0,0.0,0.0,0.0,0.0,0.0,0.0,0.0,0.0,0.0,0.0,0.0,0.0,2.2727,2.3235,2.3645,2.4016,2.3712,2.3389,2.3169,2.24,2.1894,2.1733,0.0,0.0,0.0,0.0,0.0,0.0,0.0,0.0,0.0,0.0,0.0,0.0,0.0,0.0,0.0,0.0,0.0,0.0,0.0,0.0,0.0,0.0,0.0,0.0,0.0,0.0,0.0,0.0,0.0,0.0,0.0,0.0,0.0,0.0,0.0,0.0,0.0,0.0,0.0,0.0,0.0,0.0,0.0,0.0,0.0,0.0,0.0,0.0,0.0,0.0,0.0,0.0,0.0,0.0,0.0,0.0,0.0,0.0,0.0,0.0,0.0,0.0,0.0,0.0,0.0,0.0,0.0,0.0,0.0,0.0,0.0,0.0,0.0,0.0,0.0,0.0,0.0,0.0,0.0,0.0,0.0,0.0,0.0,0.0,0.0,0.0,0.0,0.0,0.0,0.0,0.0,0.0,0.0,0.0,0.0,0.0,0.0,0.0,0.0,0.0,0.0,0.0,2.2688,2.3274,2.3633,2.3798,2.3681,2.3548,2.3474,2.2821,2.2336,2.2203,0.0,0.0,0.0,0.0,0.0,0.0,0.0,0.0,0.0,0.0,0.0,0.0,0.0,0.0,0.0,0.0,0.0,0.0,0.0,0.0,0.0,0.0,0.0,0.0,0.0,0.0,0.0,0.0,0.0,0.0,0.0,0.0,0.0,0.0,0.0,0.0,0.0,0.0,0.0,0.0,0.0,0.0,0.0,0.0,0.0,0.0,0.0,0.0,0.0,0.0,0.0,0.0,0.0,0.0,0.0,0.0,0.0,0.0,0.0,0.0,1.3169,1.2356,0.0,0.0,0.0,0.0,0.0,0.0,0.0,0.0,0.0,0.0,0.0,0.0,0.0,0.0,0.0,0.0,0.0,0.0,0.0,0.0,0.0,0.0,0.0,0.0,0.0,0.0,0.0,0.0,0.0,0.0,0.0,0.0,0.0,0.0,0.0,0.0,0.0,0.0,0.0,0.0,2.3643,2.3974,2.4058,2.3901,2.4025,2.387,2.3238,2.3214,2.312,2.2836,2.2569,0.0,0.0,0.0,0.0,0.0,0.0,0.0,0.0,0.0,0.0,0.0,0.0,0.0,0.0,0.0,0.0,0.0,0.0,0.0,0.0,0.0,0.0,0.0,0.0,0.0,0.0,0.0,0.0,0.0,0.0,0.0,0.0,0.0,0.0,0.0,0.0,0.0,0.0,0.0,0.0,0.0,0.0,0.0,0.0,0.0,0.0,0.0,0.0,0.0,0.0,0.0,0.0,0.0,0.0,0.0,0.0,0.0,0.0,0.0,1.4227,1.3594,0.0,0.0,0.0,0.0,0.0,0.0,0.0,0.0,0.0,0.0,0.0,0.0,0.0,0.0,0.0,0.0,0.0,0.0,0.0,0.0,0.0,0.0,0.0,0.0,0.0,0.0,0.0,0.0,0.0,0.0,0.0,0.0,0.0,0.0,0.0,0.0,0.0,0.0,0.0,0.0,2.3543,2.4079,2.4285,2.4025,2.4233,2.4156,2.3523,2.3433,2.3347,2.3247,2.2654,0.0,0.0,0.0,0.0,0.0,0.0,0.0,0.0,0.0,0.0,0.0,0.0,0.0,0.0,0.0,0.0,0.0,0.0,0.0,0.0,0.0,0.0,0.0,0.0,0.0,0.0,0.0,0.0,0.0,0.0,0.0,0.0,0.0,0.0,0.0,0.0,0.0,0.0,0.0,0.0,0.0,0.0,0.0,0.0,0.0,0.0,0.0,0.0,0.0,0.0,0.0,0.0,0.0,1.6484,1.6404,1.6287,1.6169,1.6066,1.6013,1.564,1.5197,1.4695,1.4015,0.0,0.0,0.0,0.0,0.0,0.0,0.0,0.0,0.0,0.0,0.0,0.0,0.0,0.0,0.0,0.0,0.0,0.0,0.0,0.0,0.0,0.0,1.7237,1.795,1.8147,1.8178,1.8263,0.0,0.0,0.0,0.0,0.0,0.0,0.0,0.0,0.0,0.0,0.0,2.3315,2.4053,2.4404,2.4166,2.4377,2.435,2.3962,2.3669,2.3523,2.3529,2.2708,2.2413,0.0,0.0,0.0,0.0,0.0,0.0,0.0,0.0,0.0,0.0,0.0,0.0,0.0,0.0,0.0,0.0,0.0,0.0,0.0,0.0,0.0,0.0,0.0,0.0,0.0,0.0,0.0,0.0,0.0,0.0,0.0,0.0,1.4815,1.5166,0.0,0.0,0.0,0.0,0.0,0.0,0.0,0.0,0.0,0.0,0.0,0.0,0.0,1.6955,1.7112,1.7682,1.7697,1.7185,1.8198,1.8399,1.7936,1.8628,1.8801,1.8514,1.827,0.0,1.5306,1.5417,0.0,0.0,0.0,0.0,0.0,0.0,0.0,0.0,0.0,0.0,0.0,0.0,0.0,0.0,0.0,0.0,0.0,0.0,0.0,0.0,0.0,0.0,1.8239,1.8814,1.9083,1.9245,1.9351,1.87,1.8212,1.8694,1.8824,1.911,0.0,0.0,0.0,0.0,0.0,0.0,2.4277,2.4505,2.4485,2.4216,2.4432,2.4463,2.4105,2.4227,2.415,2.3712,2.3543,2.3189,2.2581,2.2571,0.0,0.0,0.0,0.0,0.0,0.0,0.0,0.0,0.0,0.0,0.0,0.0,0.0,0.0,0.0,0.0,0.0,0.0,0.0,0.0,0.0,0.0,0.0,0.0,0.0,0.0,0.0,0.0,0.0,1.4626,1.5035,1.5394,1.514,1.4988,0.0,0.0,0.0,0.0,0.0,0.0,0.0,0.0,0.0,1.7659,1.7681,1.785,1.8141,1.861,1.8617,1.8168,1.868,1.8716,1.8317,1.8313,1.8414,1.8593,1.8363,1.7693,1.6776,1.6279,1.5896,1.5619,0.0,0.0,0.0,0.0,1.5831,1.5995,1.6329,1.6478,1.6521,1.6584,0.0,0.0,0.0,0.0,0.0,0.0,0.0,1.7574,1.8277,1.8574,1.8799,1.9212,1.9546,1.9744,1.9803,1.9486,1.9263,1.9526,1.951,1.9734,2.0726,2.0964,0.0,0.0,0.0,2.3954,2.4377,2.4776,2.4851,2.4368,2.4585,2.4486,2.3702,2.392,2.3963,2.366,2.3105,2.2848,2.295,2.2265,2.1624,0.0,0.0,0.0,0.0,0.0,0.0,0.0,0.0,0.0,0.0,0.0,0.0,0.0,0.0,0.0,0.0,0.0,0.0,0.0,0.0,0.0,0.0,0.0,0.0,0.0,0.0,0.0,0.0,1.5304,1.5597,1.5972,1.5838,1.5706,0.0,0.0,0.0,0.0,0.0,0.0,1.7568,1.7824,1.8152,1.8544,1.8557,1.876,1.9152,1.9417,1.936,1.9027,1.9092,1.8982,1.8726,1.8275,1.8305,1.8645,1.8455,1.8225,1.7956,1.7121,1.6586,1.6246,1.6089,1.625,1.6551,1.6587,1.6713,1.6944,1.7314,1.7477,1.749,1.7483,1.7318,1.7108,1.6836,0.0,0.0,0.0,0.0,1.8017,1.8611,1.8979,1.9225,1.9596,1.9918,2.014,2.0152,2.0219,2.0258,2.0266,2.0212,2.0433,2.128,2.1599,0.0,2.3174,2.3961,2.4412,2.4467,2.4952,2.5098,2.4602,2.4799,2.4594,2.3794,2.3856,2.3903,2.3776,2.2921,2.2647,2.3213,2.2133,2.1472,2.1366,0.0,0.0,0.0,0.0,0.0,0.0,0.0,0.0,0.0,0.0,0.0,0.0,0.0,0.0,0.0,0.0,0.0,0.0,0.0,0.0,0.0,0.0,0.0,0.0,0.0,0.0,0.0,0.0,0.0,1.7634,1.7942,0.0,0.0,0.0,0.0,1.7675,1.776,1.7935,1.8232,1.8872,1.9221,1.9249,1.9808,2.01,2.0128,2.0158,1.9983,1.9652,1.9926,1.9897,1.9647,1.9854,1.9844,1.962,1.962,1.9156,1.8379,1.8184,1.7767,1.7235,1.722,1.7227,1.7198,1.6899,1.6847,1.6936,1.7226,1.7153,1.6981,1.7309,1.7222,1.7019,1.6991,1.7166,0.0,0.0,1.8206,1.8774,1.9391,1.9573,1.9675,2.0077,2.0355,2.0567,2.0574,2.0772,2.0856,2.056,2.0719,2.104,2.1437,0.0,2.2967,2.3407,2.4003,2.4536,2.4924,2.5007,2.5023,2.4977,2.4961,2.4973,2.4911,2.4585,2.4336,2.4278,2.3629,2.3205,2.3117,2.2791,2.218,2.1238,2.118,0.0,0.0,0.0,0.0,0.0,0.0,0.0,0.0,0.0,0.0,0.0,0.0,0.0,0.0,0.0,0.0,0.0,0.0,0.0,0.0,0.0,0.0,0.0,0.0,0.0,0.0,0.0,0.0,1.8131,1.7862,0.0,1.7654,1.7876,1.8053,1.8124,1.8622,1.9049,1.9194,1.9847,2.0109,1.9893,2.0287,2.0308,1.986,2.0093,1.982,1.9069,1.9552,1.9605,1.9307,1.9236,1.9347,1.9614,1.9221,1.8867,1.8622,1.8771,1.8393,1.7673,1.7493,1.764,1.7932,1.782,1.7923,1.8149,1.8226,1.8326,1.8401,1.8148,1.7706,1.7283,1.7471,1.7609,1.7822,1.8252,1.8576,1.8885,1.9514,1.9835,2.0074,2.0444,2.0758,2.1002,2.0999,2.1042,2.1102,2.096,2.1156,2.1586,2.2335,2.2554,2.2902,2.3686,2.405,2.4245,2.4327,2.4579,2.4673,2.4434,2.4597,2.462,2.4453,2.423,2.413,2.4113,2.344,2.3108,2.3221,2.2925,2.2376,2.1608,2.1364,2.092,0.0,0.0,0.0,0.0,0.0,0.0,0.0,0.0,0.0,0.0,0.0,0.0,0.0,0.0,0.0,0.0,0.0,0.0,0.0,0.0,0.0,0.0,0.0,0.0,0.0,1.7961,1.8301,1.8869,1.8607,1.8417,1.8488,1.8733,1.8939,1.9085,1.9429,1.9752,1.9996,2.0396,2.0529,2.0296,2.0619,2.0547,2.0109,2.0207,1.9922,1.9292,1.9554,1.9576,1.936,1.9052,1.918,1.9679,1.9145,1.8853,1.8768,1.9018,1.8653,1.7937,1.7946,1.8165,1.8454,1.8332,1.8508,1.8806,1.8806,1.8955,1.9076,1.8649,1.8092,1.7594,1.7885,1.8004,1.8119,1.8599,1.8819,1.8997,1.94,1.964,1.985,2.0318,2.0588,2.0825,2.1043,2.1101,2.1159,2.1379,2.1669,2.2068,2.2748,2.3051,2.3429,2.4096,2.4331,2.4425,2.4394,2.4518,2.4502,2.427,2.433,2.428,2.4121,2.3769,2.3681,2.3968,2.3032,2.2684,2.3155,2.2759,2.2215,2.1544,2.1029,2.0504,1.9953,0.0,0.0,0.0,0.0,0.0,0.0,0.0,0.0,0.0,0.0,0.0,0.0,0.0,0.0,0.0,0.0,0.0,0.0,0.0,0.0,0.0,0.0,0.0,1.8915,1.8994,1.9287,1.9968,2.0287,2.0385,2.0132,2.0144,2.0344,2.0681,2.0098,1.9993,2.0583,2.0573,2.0532,2.0532,2.0786,2.0925,2.0892,2.056,2.0406,2.0406,2.0072,1.9905,1.9872,1.9492,1.9525,1.986,1.9447,1.9127,1.8893,1.8905,1.8569,1.8086,1.8594,1.8813,1.8775,1.8479,1.8543,1.8843,1.883,1.88,1.8813,1.8783,1.8339,1.785,1.8186,1.8284,1.8358,1.8688,1.8882,1.9043,1.9074,1.8986,1.9052,1.9724,1.9883,2.0087,2.0741,2.087,2.1078,2.176,2.2263,2.258,2.2602,2.3678,2.4533,2.4521,2.4813,0.0,2.5026,2.4737,2.4539,2.4524,2.422,2.4022,2.4053,2.3187,2.3021,2.3883,2.2446,2.1959,2.2793,2.2255,2.161,2.0946,2.0072,1.9524,1.9249,0.0,0.0,0.0,0.0,0.0,0.0,0.0,0.0,0.0,0.0,0.0,0.0,0.0,0.0,0.0,0.0,0.0,0.0,0.0,0.0,0.0,1.903,1.9665,1.9369,1.9601,2.0046,2.0713,2.0276,2.007,2.0437,2.0204,2.0182,2.0527,2.0509,2.0562,2.0751,2.1141,2.1259,2.1009,2.1301,2.1236,2.0676,2.0882,2.0723,2.0173,2.0082,2.0048,2.0048,1.9623,1.9416,1.9379,1.9231,1.9025,1.8841,1.8991,1.8958,1.8821,1.892,1.8954,1.8986,1.9381,1.9593,1.96,1.9168,1.8982,1.8891,1.8608,1.8057,1.7562,1.7839,1.7718,1.7561,1.7858,1.7971,1.8149,1.8676,1.8767,1.8946,1.9672,1.9825,1.9948,2.0364,2.0443,2.06,2.1073,2.1667,2.2161,2.2401,2.2762,2.2986,2.2999,2.3331,2.3583,2.3583,2.3237,2.3031,2.306,2.2769,2.2691,2.301,2.2323,2.2109,2.2587,2.1555,2.106,2.1288,2.0744,2.009,1.9403,1.8752,1.837,0.0,0.0,0.0,0.0,0.0,0.0,0.0,0.0,0.0,0.0,0.0,0.0,0.0,0.0,0.0,0.0,0.0,0.0,0.0,0.0,0.0,0.0,1.9554,2.0104,2.0132,2.033,2.0705,2.1207,2.0876,2.0644,2.0883,2.0762,2.0854,2.1133,2.1128,2.1171,2.1306,2.148,2.1544,2.1321,2.1356,2.1167,2.0745,2.078,2.0603,2.0191,2.0191,2.0191,2.0191,1.9766,1.9616,1.9644,1.9433,1.9284,1.9195,1.9307,1.9258,1.9121,0.0,0.0,0.0,0.0,1.973,1.9543,1.9028,1.8776,1.8582,1.8189,1.7697,1.7335,1.763,1.7441,1.7227,1.7618,1.7722,1.7795,1.8304,1.8413,1.8513,1.9103,1.9381,1.96,1.9828,2.0105,2.0357,2.0515,2.0823,0.0,2.1382,2.207,2.2606,2.2606,2.2806,2.2953,2.2953,2.2631,2.2428,2.2449,2.2149,2.2024,2.2137,2.1541,0.0,0.0,0.0,2.0047,2.0017,1.9575,0.0,0.0,0.0,1.7601,1.7594,1.7303,0.0,0.0,1.7493,1.7493,0.0,0.0,0.0,0.0,0.0,0.0,0.0,0.0,0.0,0.0,0.0,0.0,0.0,0.0,0.0,0.0,2.0021,2.0426,2.0985,2.1159,2.1294,2.15,2.1679,2.1679,2.1412,2.1515,2.1697,2.1948,2.168,2.1602,2.1872,2.1595,0.0,0.0,0.0,2.0918,2.094,2.0589,2.0407,2.0393,2.037,2.0359,2.0359,1.9884,1.991,2.0241,1.973,1.9537,1.9588,1.9515,1.9271,1.8994,1.9377,1.9503,1.9457,1.9469,1.9299,1.9014,1.8533,0.0,0.0,1.7635,1.7261,1.7032,1.7329,1.7192,1.7039,1.7569,1.7662,1.7658,1.7945,1.7933,1.7939,1.8331,1.8743,1.9079,1.9179,1.9753,2.0194,2.011,2.0015,1.9977,2.0029,2.1465,2.2585,2.2585,2.2619,2.2654,2.2654,2.2361,2.2122,2.2116,2.1812,0.0,2.126,2.0715,2.0387,2.0406,1.9499,1.8932,1.8809,1.8533,1.8392,1.836,1.7534,1.7123,1.7102,1.6494,1.6232,1.6313,1.715,1.7409,0.0,0.0,0.0,0.0,0.0,0.0,0.0,0.0,0.0,0.0,0.0,0.0,0.0,0.0,0.0,1.9985,2.0606,2.1189,2.1509,2.1765,2.1864,2.1667,2.165,2.1707,2.1848,2.1376,2.1067,2.1126,2.0954,2.0968,2.1198,2.1184,2.1369,2.1724,2.1317,2.1068,2.1121,2.1159,2.1121,2.1017,2.0816,0.0,2.0689,1.9956,1.9735,1.9928,1.8803,1.8598,1.8991,1.836,1.8126,1.8311,1.9296,1.9426,1.9105,1.9288,1.9203,1.8885,1.7979,1.7806,1.7821,1.7099,1.6619,1.6294,1.6366,1.6158,0.0,1.6413,1.6532,1.6679,1.7348,1.7533,1.7563,1.7939,1.8331,1.8633,1.8796,1.9332,1.9854,1.9918,2.0091,2.0143,1.9845,2.025,2.0631,2.0631,2.0908,2.1116,2.1116,2.079,2.0462,2.0233,1.9935,1.9737,1.9742,1.9367,1.9158,1.9146,1.8217,1.7438,1.6936,1.7064,1.7043,1.6829,1.6658,1.6541,1.6541,1.6322,1.622,1.6224,1.6411,1.6544,0.0,0.0,0.0,0.0,0.0,0.0,0.0,0.0,0.0,0.0,0.0,1.909,1.9511,0.0,2.0367,2.0651,2.0952,2.1299,2.1669,2.1631,2.1619,2.182,2.177,2.1716,2.18,2.1427,2.121,2.1337,2.1276,2.1288,2.1387,2.1437,2.1551,2.1791,2.137,2.1051,2.0867,2.0708,2.0524,2.0252,2.0096,1.9916,1.9673,1.9284,1.9029,1.8851,1.8232,1.8135,1.8383,1.7961,1.7692,1.7644,1.8483,1.8567,1.8195,1.8316,1.8238,1.796,1.7226,1.7013,1.6903,1.6324,1.6029,1.5836,1.5836,1.5734,1.565,1.5961,1.6062,1.6154,1.6674,1.6955,1.7105,1.7077,1.7516,1.7941,1.7906,1.8396,1.8864,1.8891,1.9118,1.92,1.8874,1.8903,1.9217,1.9823,1.9956,2.0133,2.0474,2.032,2.0109,1.9819,1.9596,1.932,1.8993,1.8317,1.794,1.794,1.7322,1.6728,1.6231,1.6331,1.6264,1.5975,1.5733,1.5633,1.5633,1.5414,1.5302,1.5293,1.5518,1.5944,0.0,0.0,0.0,0.0,0.0,0.0,0.0,1.9272,1.8589,1.9315,1.921,1.9188,1.9883,2.0223,2.0551,2.1055,2.1047,2.115,2.1579,2.1351,2.1349,2.1898,2.181,2.1668,2.1514,2.1296,2.1221,2.1429,2.1374,2.1318,2.1363,2.1357,2.138,2.143,2.1072,2.0751,2.0443,2.0006,1.966,1.9344,1.9224,1.8996,1.863,1.8511,1.8322,1.8044,1.7927,1.7722,1.7566,1.7566,1.7317,1.6955,1.7305,1.7207,1.6945,1.7252,1.7235,1.6944,1.6574,1.6239,1.5955,1.5665,1.5452,1.5314,1.538,1.54,1.5409,1.5702,1.583,1.5949,1.6183,1.6487,1.666,1.6289,1.6739,1.7217,1.7039,1.7529,1.7984,1.7896,1.8144,1.8272,1.798,1.7809,1.809,1.9191,1.9188,1.923,1.9765,1.9823,1.9757,1.952,1.9351,1.8943,1.8301,1.742,1.6904,1.6904,1.6584,1.6274,1.592,1.5851,1.5713,1.5524,1.5134,1.4961,1.503,1.4761,1.4623,1.4631,1.4982,1.5547,2.3214,2.2295,2.1565,2.1576,2.0696,1.9965,0.0,1.9896,1.9347,1.9323,1.9703,2.0018,2.0014,2.0233,2.0438,2.0497,2.0783,2.1032,2.1078,2.1452,2.1738,2.1797,2.1613,2.1372,2.1184,2.0665,2.0268,2.0113,1.9782,1.9678,1.9833,1.9698,1.977,2.02,1.9945,1.9957,2.0313,1.9672,1.9417,1.9563,1.9,1.8751,1.866,1.8263,1.8263,1.8579,1.7996,1.7182,1.6299,1.6299,1.6282,1.6185,1.5902,1.5488,1.5281,1.6744,1.709,1.6678,1.6284,1.5881,1.5556,1.5517,1.4892,1.4259,1.4602,1.4616,1.4653,1.513,1.5568,1.6005,1.6372,1.6488,1.6492,1.6247,1.6548,1.679,1.6598,1.7312,1.7957,1.776,1.8188,1.8441,1.807,1.7528,1.7419,1.8006,1.8102,1.8091,1.8148,1.8159,1.8148,1.8118,1.7799,1.7387,1.6954,1.6488,1.6214,1.6214,1.5894,1.5684,1.5638,1.5309,1.5272,1.5574,1.5199,1.5162,1.5537,1.55,1.5464,1.5464,1.5508,1.5396,2.2405,2.2043,2.1908,2.1361,2.116,2.0988,2.0641,2.0189,1.9829,1.9689,1.9862,2.0098,2.0295,2.0377,2.0515,2.0923,2.0618,2.05,2.0874,2.0708,2.0575,2.0743,2.0522,2.0533,2.0945,2.0319,1.9887,1.9954,1.9815,1.9735,1.9826,1.9745,1.9715,1.978,1.966,1.9471,1.923,1.8977,1.8769,1.8601,1.8233,1.7989,1.7796,1.741,1.7059,1.6772,1.6491,1.5967,1.5285,1.5285,1.5222,1.5151,1.5091,1.4865,1.4725,1.5536,1.5584,1.5225,1.5066,1.4867,1.4755,1.4755,1.4462,1.4132,1.4322,1.4317,1.4318,1.4545,1.4696,1.4814,1.5009,1.5155,1.5275,1.5269,1.5588,1.5945,1.6212,1.6543,1.6807,1.6956,1.7101,1.7159,1.6968,1.6742,1.666,1.6879,1.702,1.7206,1.7545,1.7602,1.7527,1.7264,1.686,1.6508,1.6257,1.5759,1.5467,1.5467,1.5061,1.4765,1.4543,1.4395,1.4284,1.4218,1.4032,1.4032,1.4218,1.4218,1.4218,1.4218,1.4322,1.429,2.1872,2.1816,2.1945,2.1187,2.1434,2.1638,2.0862,2.0503,2.0218,1.9828,1.9804,1.9938,2.0102,2.0124,2.0266,2.0737,2.0266,2.0006,2.048,2.0045,1.9785,1.9988,1.9705,1.9765,2.0406,1.9885,1.9584,1.9712,1.9732,1.9691,1.9527,1.9527,1.9391,1.904,1.9163,1.896,1.843,1.8175,1.7877,1.7579,1.7264,1.7028,1.6815,1.6593,1.6145,1.5521,1.5396,1.5124,1.4739,1.4739,1.4691,1.4557,1.4668,1.4564,1.4412,1.4536,1.4484,1.4323,1.4323,1.4282,1.4202,1.4282,1.4172,1.3935,1.4055,1.4066,1.4036,1.408,1.4094,1.4132,1.4132,1.4271,1.4422,1.446,1.4798,1.5232,1.5638,1.5799,1.5986,1.629,1.6258,1.6165,1.605,1.5935,1.582,1.5705,1.57,1.6037,1.6931,1.695,1.6721,1.6186,1.5827,1.5526,1.5295,1.4885,1.4624,1.4624,1.4316,1.4017,1.3792,1.3679,1.3529,1.3349,1.3236,1.3161,1.3161,1.3274,1.3274,1.3168,1.3316,1.3444,2.1891,2.1661,2.1393,2.132,2.147,2.1487,2.1084,2.0924,2.0619,1.9624,1.9613,1.9622,1.906,1.9177,1.9339,1.935,1.9482,1.9634,1.9634,1.9826,1.9998,2.0008,1.9591,1.9307,1.9347,1.9307,1.9231,1.903,1.9049,1.8842,1.8394,1.8352,1.8135,1.7677,1.8047,1.8241,1.8207,1.7302,1.6871,1.6828,1.6222,1.5972,1.593,1.5922,1.5914,1.5872,1.5411,1.5108,1.4875,1.4875,1.482,1.4706,1.4713,1.4465,1.4101,1.4142,1.4375,1.4698,1.4698,1.4417,1.4176,1.4582,1.402,1.3288,1.3695,1.371,1.3658,1.3774,1.4142,1.4467,1.4467,1.45,1.4455,1.4258,1.45,1.4819,1.4827,1.5414,1.5917,1.5908,1.6074,1.6089,1.5705,1.5275,1.4891,1.4499,1.4076,1.4391,1.6012,1.5897,1.5352,1.4576,1.4453,1.426,1.3806,1.3768,1.3729,1.3729,1.3722,1.3729,1.3691,1.3337,1.3298,1.3691,1.3298,1.3105,1.3105,1.3498,1.3498,1.3105,1.3112,1.3305,2.1697,2.154,2.148,2.1567,2.1594,2.1385,2.0631,2.0444,2.0194,1.9257,1.8836,1.863,1.8729,1.8592,1.8562,1.9026,1.9032,1.9097,1.9371,1.9237,1.9031,1.8705,1.8541,1.8337,1.8051,1.8385,1.8486,1.8094,1.8178,1.7922,1.7163,1.7711,1.773,1.7076,1.7201,1.7196,1.7006,1.6359,1.6053,1.6053,1.5868,1.5638,1.5433,1.5539,1.5352,1.4956,1.4785,1.433,1.372,1.4018,1.3886,1.3553,1.395,1.3909,1.3666,1.3728,1.3818,1.3852,1.3852,1.3728,1.3652,1.3769,1.3611,1.3363,1.3487,1.3494,1.3466,1.3514,1.3582,1.3621,1.3621,1.3551,1.3568,1.3853,1.4029,1.4231,1.4521,1.4798,1.4921,1.4805,1.4813,1.4814,1.4696,1.4577,1.442,1.4294,1.3956,1.3898,1.4476,1.443,1.4237,1.3968,1.3929,1.3775,1.3351,1.3042,1.2888,1.2888,1.2385,1.2231,1.2501,1.2114,1.196,1.2114,1.196,1.1921,1.1921,1.2037,1.2037,1.1921,1.1921,1.2114,2.1932,2.1714,2.1589,2.1665,2.1672,2.1433,2.0517,2.0317,1.9987,1.8909,1.8299,1.8048,1.8094,1.7835,1.7759,1.8234,1.8061,1.7996,1.838,1.8243,1.7982,1.7755,1.7847,1.7856,1.7607,1.7825,1.7862,1.749,1.7629,1.7468,1.6763,1.7287,1.7337,1.6665,1.6729,1.6574,1.6137,1.5704,1.544,1.544,1.544,1.5418,1.5399,1.5278,1.5046,1.4657,1.4483,1.3973,1.323,1.3704,1.3538,1.303,1.359,1.368,1.3566,1.3626,1.3607,1.3471,1.3417,1.3403,1.3403,1.3403,1.3403,1.3403,1.3403,1.3403,1.3403,1.3403,1.3329,1.3254,1.3254,1.3227,1.318,1.3357,1.3541,1.3705,1.3828,1.3949,1.3999,1.4051,1.3865,1.3782,1.3949,1.3709,1.3469,1.3309,1.3102,1.3134,1.3603,1.3525,1.3369,1.3212,1.3056,1.2821,1.2586,1.2311,1.2194,1.2194,1.1684,1.1527,1.1762,1.1516,1.1335,1.1335,1.1325,1.1223,1.1068,1.1223,1.1223,1.1068,1.1068,1.1262,2.2527,2.2195,2.1686,2.1611,2.1662,2.1502,2.0654,2.0448,1.9983,1.8533,1.8055,1.768,1.7114,1.6848,1.6765,1.6949,1.667,1.6522,1.681,1.691,1.702,1.7137,1.7511,0.0,0.0,0.0,1.7304,1.712,1.7322,1.7341,1.6996,1.7048,1.6873,1.638,1.6544,1.6336,1.569,1.5241,1.4976,1.4976,1.4976,1.519,1.5631,1.5183,1.4955,1.4955,1.4476,1.3953,1.3472,1.3907,1.3734,1.3165,1.3644,1.3815,1.3802,1.3808,1.372,1.3578,1.3471,1.3417,1.341,1.3382,1.3382,1.3382,1.3334,1.3327,1.3327,1.3321,1.3321,1.3321,1.3321,1.3321,1.3238,1.2775,1.3024,1.3189,1.2768,1.2864,1.318,1.3621,1.3219,1.3003,1.345,1.2856,1.2132,1.169,1.1609,1.2086,1.3349,1.3102,1.2702,1.2314,1.1872,1.1591,1.1591,1.1551,1.1551,1.1551,1.1551,1.1551,1.1551,1.1418,1.1345,1.1345,1.1251,1.1029,1.0563,1.1029,1.099,1.0563,1.0563,1.0835,2.2422,2.2031,2.1728,2.1564,2.1092,2.0546,2.003,1.9501,1.8848,1.7856,1.6862,1.6108,1.5813,1.5548,1.5449,1.5578,1.6032,1.641,1.6563,1.6638,1.6527,1.6177,0.0,1.6236,1.5937,1.6037,1.5973,1.5578,1.6704,1.6789,1.5386,1.634,1.6565,1.5664,1.5707,1.5662,1.549,1.4986,1.476,1.476,1.476,1.4789,1.4812,1.4678,1.4579,1.4476,1.4343,1.4013,1.3577,1.4068,1.3887,1.337,1.3961,1.3998,1.3815,1.3973,1.3919,1.3741,1.37,1.3619,1.3503,1.3271,1.3177,1.3108,1.2632,1.2516,1.2491,1.2432,1.2443,1.2443,1.2443,1.2443,1.2401,1.2276,1.2359,1.2376,1.2099,1.2218,1.2361,1.2329,1.2326,1.2335,1.2459,1.2294,1.2095,1.2012,1.1965,1.202,1.2098,1.2027,1.1913,1.1792,1.1671,1.147,1.1189,1.1149,1.1149,1.1149,1.0867,1.0827,1.1149,1.0747,1.0521,1.0521,1.0392,1.0253,1.0136,1.0253,1.0253,1.0136,1.0136,1.0369,2.2626,2.2162,2.172,2.1435,2.0917,2.0264,1.9568,1.9045,1.8397,1.7226,1.6207,1.5383,1.5094,1.4774,1.4649,1.4809,1.5123,1.5494,1.5815,1.5854,1.5785,1.5622,1.5813,1.5857,1.5601,1.5764,1.5719,1.5343,1.6047,1.6137,1.5195,1.5935,1.6118,1.5568,1.553,1.5403,1.5111,1.4831,1.4694,1.4694,1.4694,1.4647,1.4611,1.4611,1.4529,1.4394,1.4394,1.4087,1.3635,1.4122,1.398,1.3518,1.3868,1.3883,1.3707,1.3611,1.3465,1.3342,1.3363,1.3471,1.3482,1.3195,1.2938,1.2705,1.2313,1.2186,1.2204,1.2314,1.2359,1.2401,1.2609,1.2526,1.2318,1.2152,1.1944,1.176,1.1641,1.1558,1.1463,1.1346,1.1724,1.1902,1.132,1.1362,1.1445,1.1237,1.1029,1.0937,1.0926,1.1277,1.1516,1.1516,1.1312,1.1108,1.0909,1.0868,1.0787,1.0623,1.0329,1.0202,1.029,0.993,0.9801,0.9961,0.9845,0.9839,0.998,0.998,0.998,0.998,0.998,1.0136,2.2882,2.2296,2.1608,2.1218,2.0806,2.0224,1.9211,1.8728,1.8086,1.6736,1.5774,1.5043,1.4721,1.4322,1.4146,1.4401,1.4309,1.4373,1.4868,1.4939,1.5045,1.5304,1.5651,1.5916,1.5916,1.5938,1.5874,1.5597,1.5459,1.5452,1.5632,1.5686,1.5686,1.5547,1.5547,1.5207,1.4572,1.4572,1.4618,1.4663,1.4618,1.465,1.4721,1.4675,1.4549,1.4453,1.4426,1.4084,1.3572,1.404,1.3945,1.3502,1.3591,1.3546,1.3458,1.3053,1.2846,1.276,1.2883,1.3066,1.3203,1.3033,1.2743,1.2416,1.2137,1.2047,1.2101,1.2362,1.2443,1.2526,1.2941,1.2775,1.2443,1.2069,1.1694,1.1362,1.132,1.0904,1.0529,1.0445,1.1112,1.1278,1.0112,1.0195,1.032,1.0028,0.9653,0.9532,0.9945,1.0654,1.1112,1.1112,1.0779,1.0523,1.0507,1.0518,1.0393,0.9988,0.988,0.9705,0.9359,0.9183,0.9249,0.9617,0.9497,0.9543,0.9852,0.993,0.9919,0.9903,0.9997,0.9997,2.2121,2.1647,2.1218,2.0789,2.0209,1.9636,1.9131,1.818,1.7171,1.6409,1.5205,1.4327,1.4421,1.3925,1.3579,1.4042,1.4131,1.4287,1.4572,1.4609,1.4633,1.481,1.4876,1.4922,1.4922,1.5085,1.5174,1.5102,1.5191,1.526,1.528,1.5662,1.5475,1.4671,1.4625,1.4377,1.3896,1.3849,1.4077,1.4445,1.4077,1.4253,1.493,1.4514,1.4198,1.4101,1.3977,1.3643,1.322,1.3547,1.3458,1.3053,1.3458,1.3363,1.3008,1.292,1.2907,1.2889,1.2869,1.2686,1.2396,1.2373,1.2543,1.2627,1.1609,1.1283,1.1282,1.109,1.107,1.107,1.1153,1.1403,1.1611,1.1528,1.1445,1.1278,1.0904,1.0195,0.9527,0.9105,0.9188,0.923,0.898,0.9021,0.9147,0.9486,0.9449,0.9449,0.9532,0.9653,0.9741,0.9741,0.9657,0.9618,0.9525,0.9604,0.9538,0.9272,0.9412,0.9389,0.915,0.9107,0.9128,0.9209,0.9021,0.8958,0.911,0.9461,0.9612,0.9519,0.9965,0.9921,2.1651,2.1284,2.0924,2.0498,1.9949,1.9348,1.8632,1.7832,1.698,1.6066,1.5093,1.4406,1.439,1.4059,1.3822,1.3888,1.4054,1.4251,1.4472,1.4509,1.4624,1.493,1.497,1.497,1.497,1.5038,1.4986,1.4706,1.4999,1.5181,1.5181,1.5134,1.4899,1.4422,1.4146,1.3917,1.3682,1.3682,1.3823,1.4005,1.3823,1.3933,1.4292,1.4058,1.3883,1.3745,1.36,1.3364,1.3116,1.3204,1.3097,1.292,1.2875,1.2742,1.252,1.2254,1.2165,1.2165,1.2165,1.2165,1.2165,1.1899,1.1988,1.2042,1.1417,1.1188,1.1199,1.1274,1.1216,1.1213,1.1417,1.1246,1.1112,1.132,1.1195,1.0862,1.0153,0.9903,0.9569,0.8854,0.8687,0.8562,0.8102,0.8018,0.8186,0.865,0.8524,0.8441,0.8692,0.8524,0.8524,0.8984,0.8859,0.8716,0.8667,0.8707,0.8547,0.8199,0.8234,0.816,0.7827,0.7782,0.8006,0.8401,0.8313,0.8476,0.8855,0.909,0.914,0.909,0.934,0.9335,2.1256,2.0929,2.067,2.0134,1.9629,1.9028,1.8029,1.7464,1.6856,1.5809,1.5111,1.4682,1.4617,1.4453,1.4226,1.4062,1.4133,1.4323,1.451,1.4513,1.462,1.4946,1.5113,1.5134,1.504,1.504,1.4852,1.4422,1.4711,1.4899,1.504,1.4523,1.4194,1.4093,1.3729,1.3493,1.3399,1.3399,1.3446,1.3541,1.3446,1.3493,1.3682,1.3588,1.3486,1.3377,1.3238,1.3032,1.2839,1.2672,1.2607,1.2562,1.2221,1.1988,1.181,1.1455,1.1277,1.1188,1.1188,1.141,1.1677,1.141,1.1438,1.1572,1.1319,1.1259,1.1259,1.1487,1.1422,1.1342,1.168,1.1143,1.0654,1.1029,1.0779,1.0195,0.9407,0.9486,0.9444,0.8604,0.8353,0.806,0.7352,0.7185,0.7269,0.7729,0.7478,0.7394,0.7771,0.7394,0.7394,0.806,0.7935,0.7805,0.7785,0.7801,0.7591,0.7144,0.7129,0.6961,0.6543,0.6557,0.6903,0.7609,0.7629,0.7919,0.8577,0.8577,0.8607,0.8666,0.8685,0.8685,2.0778,2.0529,2.0329,1.9498,1.8963,1.842,1.7398,1.6735,1.619,1.5683,1.5111,1.4824,1.5152,1.4892,1.4675,1.4693,1.4529,1.4461,1.4635,1.4561,1.445,1.4302,1.4819,1.4993,1.4516,1.4469,1.4469,1.4375,1.4059,1.4012,1.4476,1.4005,1.3541,1.3069,1.3022,1.2786,1.2361,1.2361,1.255,1.2975,1.255,1.2833,1.3682,1.3211,1.2969,1.2952,1.2818,1.2523,1.2077,1.1846,1.1708,1.1697,1.1587,1.1277,1.0832,1.0787,1.052,1.0119,1.0119,1.0164,1.0253,1.0654,1.129,1.1838,1.1285,1.1041,1.0927,1.085,1.0513,1.0252,1.0294,1.0205,1.0153,1.0195,0.9861,0.9365,0.8863,0.8524,0.8148,0.7604,0.7185,0.6853,0.6769,0.6472,0.6347,0.6769,0.6811,0.6769,0.6811,0.6472,0.6263,0.6347,0.664,0.6825,0.6753,0.6812,0.6718,0.6501,0.6577,0.656,0.6351,0.637,0.6607,0.7079,0.7003,0.7271,0.7811,0.7811,0.7966,0.8237,0.8322,0.8317,2.0144,1.9919,1.9547,1.8847,1.8512,1.8145,1.7384,1.6817,1.6357,1.6136,1.562,1.5237,1.5289,1.5383,1.5223,1.4586,1.4836,1.5016,1.4832,1.4887,1.4911,1.4911,1.5158,1.5222,1.4926,1.457,1.4288,1.4005,1.3258,1.3022,1.3487,1.3305,1.3116,1.2928,1.2644,1.2408,1.2219,1.2219,1.2314,1.2456,1.1908,1.1876,1.2245,1.1935,1.1671,1.1434,1.187,1.1593,1.0942,1.1011,1.0899,1.0625,1.063,1.0476,1.0298,1.0298,1.0164,0.9986,0.9986,0.9986,1.0021,1.0175,1.0608,1.1047,1.1199,1.1172,1.1107,1.0992,1.0779,1.0593,1.0593,1.0498,1.032,0.982,0.9741,0.9616,0.8863,0.8571,0.8148,0.7189,0.7063,0.6933,0.643,0.6389,0.6601,0.7063,0.6895,0.6685,0.6685,0.6347,0.6011,0.572,0.5804,0.5918,0.5891,0.5915,0.5879,0.5756,0.5837,0.5837,0.5714,0.5774,0.5956,0.632,0.6291,0.6564,0.7266,0.7252,0.7405,0.7764,0.7797,0.7797,1.9643,1.949,1.9186,1.8535,1.8228,1.7942,1.7338,1.6811,1.6454,1.6466,1.6037,1.5664,1.5497,1.57,1.5555,1.4587,1.4921,1.5217,1.4999,1.5053,1.5067,1.5038,1.5198,1.5195,1.4946,1.445,1.4005,1.3493,1.2692,1.2361,1.2692,1.2692,1.2692,1.2692,1.2361,1.2219,1.2219,1.2219,1.2219,1.2172,1.1616,1.134,1.1335,1.1073,1.0786,1.0475,1.1044,1.0902,1.0271,1.0296,1.0207,1.0028,0.9866,0.9808,0.9763,0.9629,0.9585,0.9585,0.9406,0.9477,0.9574,0.9677,0.9957,1.0332,1.0863,1.108,1.115,1.1069,1.0902,1.0715,1.0577,1.0435,1.0169,0.9651,0.9701,0.9704,0.8941,0.8718,0.8403,0.7311,0.7269,0.7185,0.6598,0.6514,0.6685,0.7147,0.6685,0.6392,0.6685,0.6347,0.6011,0.5804,0.5678,0.5552,0.5426,0.5384,0.536,0.5297,0.5335,0.533,0.527,0.5308,0.5509,0.5853,0.5828,0.6173,0.695,0.6838,0.7005,0.7486,0.7369,0.7369,1.9271,1.9373,1.9519,1.8706,1.8206,1.7739,1.715,1.6539,1.621,1.654,1.6231,1.5885,1.5876,1.5885,1.5648,1.4839,1.4816,1.496,1.5069,1.4972,1.4727,1.4289,1.4697,1.4782,1.4276,1.393,1.3493,1.2928,1.2456,1.2219,1.2219,1.2219,1.2219,1.2219,1.2219,1.2219,1.2219,1.2219,1.2219,1.2172,1.1647,1.1411,1.1364,1.0938,1.0644,1.0497,1.0497,1.0481,1.033,0.9771,0.9776,1.0133,0.9536,0.9322,0.9228,0.8778,0.8603,0.8563,0.8067,0.8191,0.8604,0.9039,0.9522,0.9966,1.0229,1.0588,1.0879,1.0879,1.0625,1.0226,0.9903,0.9602,0.9459,0.975,0.9597,0.931,0.898,0.8804,0.8571,0.8148,0.7729,0.7394,0.7394,0.6682,0.6263,0.6643,0.5972,0.572,0.6601,0.6347,0.6263,0.6643,0.6347,0.5885,0.5426,0.5384,0.536,0.5297,0.5294,0.5267,0.5207,0.5204,0.5379,0.5676,0.578,0.6147,0.6908,0.6547,0.6781,0.7486,0.7099,0.7138,1.8885,1.8861,1.8545,1.7611,1.7725,1.7816,1.7042,1.678,1.6763,1.6952,1.6658,1.6333,1.6136,1.6432,1.6331,1.5112,1.548,1.58,1.5441,1.5638,1.5786,1.5532,1.5481,1.5163,1.4432,1.394,1.3493,1.2928,1.2456,1.2219,1.2219,1.2219,1.2219,1.2219,1.2219,1.2219,1.2219,1.2219,1.2219,1.2172,1.1616,1.1158,1.0779,1.052,1.005,0.9422,1.0064,1.0004,0.937,0.9089,0.9051,0.9133,0.8546,0.8559,0.8786,0.8652,0.8607,0.8554,0.8357,0.8581,0.893,0.8969,0.9273,0.9678,1.0045,1.0572,1.0923,1.0462,1.0042,0.9585,0.915,0.9038,0.9042,0.9033,0.9253,0.9333,0.8875,0.8718,0.8487,0.7771,0.7771,0.7771,0.7436,0.7436,0.7516,0.7646,0.7143,0.685,0.7143,0.6769,0.656,0.6685,0.6601,0.635,0.5927,0.5594,0.5376,0.5357,0.5357,0.5346,0.5327,0.5327,0.5402,0.5507,0.5484,0.5859,0.6709,0.6508,0.6626,0.7099,0.6943,0.6982,1.8707,1.8733,1.8327,1.751,1.7696,1.7861,1.7074,1.6818,1.684,1.7219,1.6784,1.6348,1.6449,1.6664,1.6484,1.5387,1.5734,1.5962,1.5543,1.569,1.579,1.5579,1.5499,1.5209,1.4593,1.4183,1.3817,1.3487,1.2873,1.2522,1.2522,1.2385,1.229,1.229,1.2241,1.2219,1.2219,1.2219,1.2219,1.2172,1.1626,1.1075,1.0554,1.0301,0.9697,0.8968,0.957,0.9455,0.0,0.8807,0.8766,0.8684,0.8312,0.8363,0.8563,0.8384,0.8429,0.855,0.8325,0.8492,0.8783,0.8672,0.89,0.9286,0.9768,1.0323,1.071,1.0308,0.9872,0.9431,0.9169,0.8958,0.8864,0.9089,0.9169,0.9113,0.8837,0.8722,0.8487,0.7813,0.7897,0.8018,0.7729,0.7771,0.7897,0.806,0.7562,0.7269,0.7604,0.7269,0.7021,0.7227,0.7063,0.685,0.6598,0.6179,0.5888,0.5888,0.5762,0.5678,0.5678,0.551,0.5373,0.5352,0.5335,0.576,0.6571,0.6798,0.7027,0.7185,0.722,0.72,0.0,1.8864,1.8721,1.8137,1.807,1.7966,1.7193,1.6719,0.0,1.725,1.6662,1.6199,1.6779,1.6644,1.6276,1.5692,1.5669,1.565,1.5556,1.5304,1.5078,1.4772,1.4934,1.4962,1.4721,1.4553,1.4395,1.4395,1.3578,1.3082,1.3076,1.2645,1.24,1.2389,1.2279,1.2219,1.2219,1.2219,1.2219,1.2172,1.17,1.1179,1.0659,1.0185,0.9616,0.9016,0.9016,0.8967,0.8889,0.8877,0.8774,0.8697,0.8684,0.8632,0.8563,0.8112,0.8246,0.855,0.8004,0.8054,0.8317,0.827,0.8475,0.8839,0.9404,0.9856,1.0253,1.0222,0.984,0.9446,0.954,0.904,0.874,0.9431,0.9121,0.8676,0.8806,0.8758,0.8529,0.819,0.8102,0.8102,0.8102,0.7729,0.7604,0.8022,0.7352,0.7105,0.798,0.7729,0.7604,0.8064,0.7729,0.7436,0.7436,0.6979,0.6685,0.6685,0.6347,0.6137,0.6095,0.572,0.5441,0.5341,0.5477,0.5858,0.654,0.7346,0.7701,0.7656,0.7701,0.7649,1.8899,0.0,1.8325,1.7882,1.8161,1.8322,0.0,1.7351,1.7405,1.721,1.7151,1.7043,1.6722,1.6991,1.6927,1.5985,1.6315,1.6455,1.583,1.5801,1.5686,1.5121,1.5332,1.5366,1.4962,1.4758,1.4447,1.4067,1.3524,1.3071,1.2597,1.2447,1.2356,1.2263,1.2236,1.2219,1.2219,1.2219,1.2219,1.2219,1.2078,1.1558,1.0706,1.0564,0.9982,0.9062,0.9062,0.9054,0.9022,0.8559,0.8538,0.8778,0.8279,0.831,0.8607,0.8473,0.8518,0.8538,0.8292,0.848,0.8835,0.874,0.8982,0.9216,0.9103,0.9333,0.9487,0.8833,0.8277,0.7765,0.7151,0.7127,0.7353,0.7416,0.7896,0.8319,0.8273,0.8244,0.8232,0.8102,0.8102,0.8102,0.8102,0.8018,0.798,0.8102,0.7897,0.7855,0.806,0.8018,0.798,0.8102,0.8018,0.7939,0.7939,0.7185,0.6685,0.6685,0.6601,0.643,0.6095,0.6308,0.6256,0.5903,0.6535,0.6879,0.6941,0.7127,0.7171,0.7091,0.711,0.7099,1.8865,1.8748,1.8433,1.7773,1.7996,1.816,1.731,1.7271,1.736,1.7137,1.7153,1.715,1.7124,1.7165,1.7087,1.6619,1.6527,1.6286,1.564,1.5688,1.5651,1.5343,1.5325,1.5315,1.5105,1.4784,1.445,1.4159,1.3573,1.3049,1.2741,1.2495,1.2372,1.2307,1.2247,1.2219,1.2219,1.2219,1.2219,1.2219,1.2159,1.1569,1.063,1.0535,0.9951,0.902,0.902,0.902,0.8965,0.8636,0.8619,0.8753,0.843,0.8416,0.8607,0.8607,0.8607,0.8587,0.8448,0.8501,0.8671,0.862,0.8709,0.8809,0.865,0.8513,0.8441,0.819,0.7604,0.7021,0.6766,0.6628,0.6603,0.6944,0.7133,0.7278,0.7448,0.7646,0.7729,0.7478,0.7813,0.8022,0.7813,0.7771,0.7855,0.806,0.7939,0.7855,0.806,0.8102,0.8102,0.8102,0.8102,0.8102,0.8102,0.7646,0.7352,0.7352,0.7147,0.6933,0.6724,0.6685,0.6585,0.634,0.6927,0.7188,0.7103,0.7263,0.7322,0.7275,0.7275,0.7213,1.866,1.8831,1.87,1.7916,1.7898,1.7895,1.7261,1.7114,1.7101,1.7199,1.7077,1.7067,1.7463,1.7268,1.7097,1.7209,1.659,1.5923,1.5508,1.5539,1.5506,1.539,1.525,1.5138,1.5187,1.4811,1.4502,1.436,1.3644,1.3189,1.298,1.2645,1.2394,1.2378,1.2274,1.2219,1.2219,1.2219,1.2219,1.2219,1.2017,1.1408,1.0521,1.0319,0.9765,0.8935,0.8923,0.8919,0.8915,0.8856,0.8803,0.8688,0.8672,0.8673,0.8607,0.8607,0.8607,0.8595,0.8457,0.8316,0.8188,0.8113,0.8093,0.8055,0.7998,0.7681,0.736,0.7719,0.7245,0.6685,0.7017,0.6598,0.6305,0.7017,0.6682,0.6305,0.6643,0.7021,0.7185,0.6853,0.7436,0.7897,0.7562,0.752,0.7646,0.8022,0.7771,0.7646,0.8064,0.8102,0.8102,0.8102,0.8102,0.8102,0.8102,0.8102,0.8102,0.8102,0.7729,0.752,0.752,0.7063,0.6822,0.6839,0.7074,0.7224,0.7224,0.7569,0.7717,0.7679,0.7679,0.7599,1.8306,1.8467,1.88,1.87,1.8509,1.8317,1.8206,1.7779,1.7499,1.7715,1.7615,1.7369,1.6984,1.7323,1.747,1.6946,1.6827,1.6644,1.6111,1.6246,1.6121,1.5352,1.5554,1.558,1.5057,1.5181,1.4895,1.4038,1.3975,1.3517,1.2549,1.2447,1.2356,1.2252,1.223,1.2219,1.2219,1.2219,1.2219,1.2172,1.1726,1.1202,1.063,1.0105,0.9546,0.8983,0.8905,0.8919,0.891,0.8787,0.8701,0.868,0.8656,0.8619,0.8607,0.8607,0.8607,0.855,0.8056,0.7794,0.7552,0.7227,0.728,0.7481,0.7191,0.6964,0.6755,0.6537,0.6355,0.6137,0.5804,0.5885,0.6137,0.6263,0.6472,0.6643,0.6685,0.6769,0.6895,0.7227,0.7394,0.7604,0.7939,0.798,0.8018,0.8102,0.8022,0.8018,0.8102,0.8102,0.8102,0.8102,0.8102,0.8102,0.8102,0.8102,0.8102,0.8102,0.8022,0.798,0.798,0.7562,0.7474,0.7873,0.7758,0.7677,0.7677,0.7604,0.7558,0.7546,0.7546,0.7537,1.8286,1.8495,1.8821,1.885,1.8471,1.807,1.8088,1.781,1.7518,1.74,1.7392,1.7358,1.7117,1.7147,1.7085,1.6638,1.679,1.6725,1.6111,1.6076,1.5928,1.5386,1.5356,1.5352,1.5132,1.4972,1.4667,1.4194,1.3733,1.3221,1.2687,1.2444,1.2274,1.2219,1.2219,1.2219,1.2219,1.2219,1.2219,1.2219,1.1867,1.1324,1.0568,1.0231,0.9598,0.8856,0.8815,0.8771,0.8726,0.8685,0.8664,0.866,0.8624,0.8607,0.8563,0.8335,0.8201,0.8197,0.7932,0.7618,0.736,0.7706,0.7634,0.7442,0.7346,0.7017,0.6615,0.6257,0.596,0.5778,0.5813,0.5966,0.6108,0.6108,0.6418,0.656,0.6098,0.656,0.7021,0.6766,0.7269,0.7771,0.7729,0.7729,0.7813,0.8064,0.7897,0.7813,0.806,0.8102,0.8102,0.8102,0.8102,0.8102,0.8102,0.8102,0.8102,0.8102,0.8102,0.8102,0.8102,0.7811,0.7787,0.7995,0.7815,0.7765,0.7765,0.7591,0.7486,0.7486,0.7486,0.7486,1.8305,1.8599,1.8864,1.8726,1.835,1.8032,1.8094,1.7843,1.7549,1.7358,1.729,1.7315,1.7268,1.7003,1.6672,1.6368,1.6668,1.6671,1.5953,1.5864,1.5749,1.5497,1.5299,1.5205,1.5221,1.4852,1.4476,1.4241,1.3541,1.2975,1.2739,1.2408,1.2219,1.2219,1.2219,1.2219,1.2219,1.2219,1.2156,1.2129,1.197,1.1351,1.0459,1.024,0.9689,0.887,0.8849,0.8893,0.892,0.8831,0.8831,0.892,0.8697,0.8518,0.8429,0.8157,0.7933,0.7751,0.7751,0.7389,0.7071,0.784,0.7764,0.7349,0.7389,0.7174,0.6804,0.6284,0.5886,0.5739,0.6071,0.6127,0.6087,0.6087,0.6262,0.6224,0.5552,0.6224,0.6808,0.6347,0.7115,0.7757,0.7635,0.7592,0.7719,0.8051,0.7825,0.7687,0.8064,0.8102,0.8102,0.8102,0.8102,0.8102,0.8102,0.8102,0.8102,0.8102,0.8102,0.8102,0.8102,0.7999,0.7966,0.7966,0.7787,0.7733,0.7733,0.7578,0.7486,0.7486,0.7408,0.7369,1.8252,1.8593,1.9033,1.8478,1.8487,1.8712,1.895,1.8274,1.7766,1.8349,1.792,1.736,1.724,1.7097,1.6756,1.6106,1.6558,1.6705,1.5843,1.6085,1.6167,1.5728,1.5778,1.569,1.5228,1.5181,1.4758,1.3823,1.3682,1.3258,1.2314,1.2219,1.2219,1.2219,1.2219,1.2219,1.2219,1.2219,1.2159,1.2004,1.1637,1.1055,1.0303,0.9839,0.9556,0.9418,0.9325,0.9505,0.9852,0.9406,0.9496,0.9808,0.892,0.8335,0.8023,0.8384,0.7982,0.7263,0.7263,0.6904,0.6448,0.6542,0.6751,0.6865,0.6595,0.6949,0.7288,0.652,0.6163,0.6057,0.6084,0.6104,0.6101,0.6101,0.5807,0.5468,0.5426,0.5468,0.5762,0.6518,0.6824,0.7251,0.8017,0.8144,0.8144,0.8187,0.8117,0.8064,0.8102,0.8102,0.8102,0.8102,0.8102,0.8102,0.8102,0.8102,0.8102,0.8102,0.8102,0.8102,0.8102,0.8098,0.8094,0.8094,0.788,0.7791,0.7787,0.7611,0.7486,0.7486,0.7099,0.6943,1.8288,1.8544,1.8703,1.828,1.8285,1.8409,1.8463,1.8084,1.7714,1.7631,1.7362,1.7042,1.6604,1.6773,1.6743,1.6156,1.6427,1.647,1.5636,1.5754,1.5796,1.5334,1.5372,1.5368,1.5228,1.4899,1.4523,1.4146,1.3541,1.3022,1.2644,1.2361,1.2219,1.2219,1.2219,1.2219,1.2219,1.2143,1.1998,1.1884,1.1817,1.131,1.0435,1.0511,1.015,0.9513,0.9744,0.9913,0.9941,0.9496,0.9585,0.9941,0.9277,0.8741,0.8335,0.8201,0.7933,0.762,0.762,0.7081,0.6498,0.7115,0.7135,0.6875,0.6862,0.7129,0.7319,0.6477,0.6337,0.6447,0.6206,0.6148,0.6033,0.5778,0.599,0.6105,0.5519,0.609,0.6697,0.6696,0.721,0.775,0.8144,0.815,0.8134,0.8191,0.8163,0.8102,0.8102,0.8102,0.8102,0.8102,0.8102,0.8102,0.8102,0.8102,0.8102,0.8102,0.8102,0.8102,0.8102,0.8102,0.8102,0.8102,0.7946,0.7717,0.7471,0.7301,0.7058,0.6817,0.6609,0.6509,1.8324,1.8465,1.852,1.8105,1.806,1.8122,1.8093,1.7896,1.7592,1.7182,1.6936,1.6715,1.6353,1.6435,1.6469,1.6045,1.6119,1.5994,1.5343,1.5444,1.5403,1.5085,1.5167,1.5235,1.5187,1.4892,1.4615,1.4429,1.3629,1.3022,1.2692,1.2181,1.1946,1.1931,1.1946,1.1971,1.2159,1.1891,1.1701,1.1584,1.1489,1.1028,1.0349,1.054,1.024,0.9649,0.9825,1.0007,1.0164,0.954,0.9411,0.9545,0.9366,0.892,0.8339,0.8201,0.7933,0.7706,0.781,0.7341,0.6789,0.7544,0.7549,0.7242,0.749,0.7624,0.7602,0.687,0.6802,0.6835,0.6469,0.6328,0.6208,0.5957,0.6336,0.6574,0.5771,0.647,0.7127,0.678,0.7375,0.7957,0.8187,0.8146,0.8168,0.8187,0.8163,0.8102,0.8102,0.8102,0.8102,0.8102,0.8102,0.8102,0.8102,0.8102,0.8102,0.8102,0.8102,0.8102,0.8102,0.8102,0.8102,0.8102,0.7978,0.7769,0.7477,0.7173,0.6905,0.6621,0.629,0.6148,1.8343,1.8398,1.8562,1.7967,1.7902,1.801,1.8086,1.7786,1.7461,1.7331,1.6827,1.6446,1.6664,1.6249,1.5875,1.574,1.5539,1.5304,1.5042,1.5092,1.5181,1.5181,1.5316,1.535,1.5194,1.5316,1.5106,1.4435,1.3964,1.3258,1.2267,1.1637,1.1299,1.1411,1.1351,1.1522,1.1987,1.1522,1.1233,1.1069,1.0467,1.0135,0.9991,0.964,0.9676,0.9986,0.9496,0.9852,1.0609,0.9674,0.9009,0.8652,0.9098,0.8737,0.7978,0.8429,0.8026,0.7252,0.7659,0.7552,0.7239,0.7527,0.7754,0.8004,0.8365,0.8407,0.8204,0.7811,0.756,0.7311,0.6811,0.6727,0.6727,0.6685,0.6685,0.6601,0.6179,0.6434,0.6685,0.6727,0.7124,0.7646,0.8114,0.8199,0.8199,0.8199,0.8163,0.8102,0.8102,0.8102,0.8102,0.8102,0.8102,0.8102,0.8102,0.8102,0.8102,0.8102,0.8102,0.8102,0.8102,0.8102,0.8102,0.8102,0.7978,0.7896,0.7896,0.7351,0.7103,0.7066,0.6219,0.5773,1.7931,1.7926,1.7895,1.7697,1.7388,1.7151,1.7464,1.7364,1.7095,1.6739,1.6653,1.6501,1.6189,1.6199,1.6068,1.5446,1.5517,1.5359,1.4672,1.4919,1.504,1.4657,1.4649,1.4663,1.4617,1.4043,1.3583,1.3352,1.255,1.1936,1.1652,1.1144,1.0827,1.0779,1.0749,1.0789,1.0849,1.071,1.0565,1.0462,0.9934,0.9676,0.964,0.9778,0.9746,0.9496,0.9718,0.9941,1.0209,0.9897,0.9322,0.8652,0.9098,0.892,0.8429,0.8563,0.8429,0.8201,0.8308,0.8232,0.8068,0.8252,0.8513,0.8778,0.8989,0.8934,0.8723,0.829,0.782,0.7352,0.7227,0.7436,0.752,0.6853,0.6723,0.6746,0.657,0.6895,0.7254,0.7199,0.7581,0.7995,0.8187,0.8146,0.8168,0.8187,0.8163,0.8102,0.8102,0.8102,0.8102,0.8102,0.8102,0.8102,0.8102,0.8102,0.8102,0.8102,0.8102,0.8102,0.8102,0.8102,0.8102,0.8102,0.8077,0.7857,0.7569,0.7027,0.6619,0.6328,0.5672,0.5367,1.7646,1.7678,1.7697,1.7355,1.7039,1.6828,1.6911,1.694,1.687,1.67,1.656,1.6404,1.6137,1.5963,1.5757,1.5467,1.5206,1.4897,1.4443,1.4523,1.4476,1.4146,1.4191,1.4156,1.4153,1.363,1.3169,1.2928,1.2172,1.1605,1.1416,1.071,1.047,1.0782,1.0366,1.029,1.0602,1.0187,0.9953,0.9856,0.9365,0.9135,0.9131,0.9344,0.9411,0.9322,0.9585,0.9629,0.9451,0.9451,0.9098,0.8607,0.892,0.8831,0.8607,0.8607,0.8587,0.855,0.8513,0.8445,0.846,0.8582,0.8729,0.8947,0.932,0.9186,0.892,0.8667,0.8331,0.7949,0.778,0.793,0.8065,0.7619,0.7684,0.7708,0.7322,0.7646,0.788,0.7489,0.7771,0.8122,0.8134,0.8139,0.8122,0.8134,0.8139,0.8102,0.8102,0.8102,0.8102,0.8102,0.8102,0.8102,0.8102,0.8102,0.8018,0.7855,0.7976,0.8018,0.7813,0.8018,0.8102,0.8102,0.8102,0.798,0.7687,0.7179,0.6697,0.6282,0.5787,0.544,1.7467,1.7606,1.7778,1.694,1.6815,1.6795,1.6438,1.6467,1.6651,1.6868,1.6489,1.6127,1.6248,1.5528,1.5095,1.5441,1.4625,1.404,1.4249,1.3964,1.3682,1.3635,1.3726,1.375,1.3647,1.3685,1.3459,1.2869,1.2392,1.1867,1.1338,1.0348,1.0152,1.0933,1.0051,0.9913,1.0675,0.9907,0.941,0.9232,0.8839,0.866,0.8607,0.8607,0.8831,0.9232,0.9277,0.9054,0.8607,0.8652,0.8652,0.8607,0.8607,0.8607,0.8607,0.8607,0.8554,0.8473,0.8379,0.8438,0.8638,0.8764,0.8774,0.8865,0.955,0.9403,0.9016,0.9049,0.8955,0.8777,0.8399,0.8334,0.8397,0.8643,0.8989,0.9082,0.8273,0.8399,0.8403,0.7604,0.7813,0.8102,0.8102,0.8102,0.8102,0.8102,0.8102,0.8102,0.8102,0.8102,0.8102,0.8102,0.8102,0.8102,0.8102,0.8064,0.7855,0.7478,0.7813,0.7855,0.7478,0.7855,0.8102,0.8102,0.8102,0.8102,0.8102,0.7604,0.7105,0.6685,0.6263,0.5801,1.738,1.7206,1.7203,1.7003,1.6557,1.6154,1.584,1.572,1.5817,1.6207,1.6184,1.5891,1.5201,1.4916,1.4576,1.4051,1.3874,1.3662,1.3246,1.3493,1.3541,1.3116,1.2999,1.2987,1.3063,1.2671,1.2333,1.2218,1.1699,1.1149,1.055,0.9972,0.9508,0.9251,0.8998,0.8948,0.9084,0.9383,0.9238,0.8741,0.9131,0.9037,0.8607,0.8607,0.8652,0.8786,0.9143,0.9054,0.8607,0.9009,0.892,0.8607,0.8607,0.8607,0.8607,0.8607,0.8595,0.8566,0.8473,0.8887,0.9432,0.9497,0.9956,1.0567,1.0735,1.0457,1.0088,1.0008,0.9375,0.8811,0.9063,0.8866,0.8618,0.8696,0.8576,0.8404,0.816,0.819,0.819,0.798,0.8022,0.8102,0.8102,0.8102,0.8102,0.8102,0.8102,0.8102,0.8102,0.8102,0.8102,0.8102,0.8102,0.8102,0.8102,0.7771,0.7646,0.7939,0.7687,0.7687,0.7939,0.8064,0.8102,0.8102,0.8102,0.8102,0.8102,0.7269,0.6811,0.6685,0.593,0.551,1.7281,1.7164,1.7162,1.6662,1.616,1.5701,1.5273,1.5117,1.5061,1.4993,1.5219,1.5221,1.451,1.4251,1.402,1.3647,1.3397,1.314,1.2916,1.2928,1.288,1.2597,1.2438,1.2387,1.2455,1.2116,1.1721,1.1207,1.093,1.0535,0.9972,0.9513,0.9331,0.9418,0.896,0.8783,0.892,0.9016,0.8922,0.8607,0.8926,0.9011,0.892,0.892,0.9054,0.9273,0.9277,0.9143,0.8964,0.9188,0.9009,0.8607,0.8831,0.8786,0.8607,0.8607,0.8579,0.8582,0.8753,0.9066,0.9405,0.9573,0.9945,1.033,1.0373,1.0161,0.9946,0.9946,0.9394,0.8846,0.9099,0.884,0.848,0.8475,0.8636,0.8669,0.8198,0.8232,0.8315,0.8148,0.8102,0.8102,0.8102,0.8102,0.8102,0.8102,0.8102,0.8018,0.7813,0.798,0.8018,0.7771,0.798,0.8018,0.7771,0.752,0.7311,0.7143,0.7101,0.7101,0.7143,0.7311,0.7646,0.8102,0.7897,0.7771,0.7771,0.7063,0.6601,0.6389,0.593,0.5636,1.732,1.7214,1.713,1.608,1.5555,1.517,1.4693,1.4495,1.4248,1.3649,1.4068,1.4394,1.3852,1.3539,1.3377,1.3392,1.2946,1.2632,1.2735,1.2405,1.2118,1.214,1.1968,1.1846,1.1955,1.1765,1.1283,1.0449,1.0403,1.0169,0.9602,0.919,0.9247,0.9897,0.912,0.8857,0.9188,0.8964,0.8786,0.8741,0.8786,0.909,0.9517,0.9517,0.9705,0.9986,0.9585,0.9406,0.9406,0.9406,0.9188,0.8875,0.9188,0.9054,0.8697,0.8607,0.8558,0.8581,0.896,0.9031,0.9077,0.9493,0.9592,0.9588,0.9805,0.9728,0.9576,0.9752,0.9465,0.9107,0.9107,0.8787,0.844,0.8233,0.8707,0.8984,0.8273,0.8357,0.8487,0.8148,0.8102,0.8102,0.8102,0.8022,0.8018,0.8102,0.798,0.7771,0.7562,0.7729,0.7729,0.7436,0.7687,0.7687,0.7311,0.7227,0.6892,0.6263,0.6434,0.6476,0.6221,0.6518,0.7063,0.7855,0.7478,0.7269,0.7269,0.6811,0.643,0.6095,0.6011,0.5759,1.791,1.7165,1.6277,1.5425,1.4639,1.4072,1.4158,1.3742,1.3169,1.2621,1.3269,1.3712,1.2991,1.2859,1.269,1.2289,1.2138,1.2086,1.2102,1.1974,1.19,1.1998,1.1452,1.1271,1.1784,1.1322,1.0982,1.0846,1.0801,1.0394,0.9406,0.9267,0.9129,0.8807,0.8668,0.8619,0.8697,0.9451,0.9585,0.9232,0.9629,1.0027,1.0419,1.0419,1.0254,0.9986,0.9941,0.9897,0.9897,0.9897,0.9852,0.9763,0.9451,0.9277,0.9143,0.8741,0.8599,0.8579,0.8585,0.8811,0.9136,0.9553,0.9692,0.9822,1.0644,1.0523,1.018,1.062,1.034,0.9928,0.9928,0.9603,0.9067,0.8294,0.8198,0.8232,0.8148,0.8148,0.8148,0.8102,0.8102,0.8102,0.8102,0.7771,0.7646,0.8022,0.7394,0.7143,0.7897,0.7352,0.7021,0.7352,0.7101,0.6853,0.6811,0.6472,0.6389,0.6601,0.6347,0.6305,0.6601,0.6685,0.6769,0.6895,0.6811,0.6811,0.6811,0.6389,0.6137,0.6095,0.5678,0.5468,1.7623,1.6899,1.6128,1.5114,1.4538,1.4057,1.347,1.2959,1.2431,1.1939,1.2034,1.2091,1.1857,1.2083,1.2151,1.1572,1.1705,1.1895,1.1895,1.1906,1.1933,1.1982,1.1657,1.1531,1.1768,1.1464,1.0999,1.0461,1.064,1.0347,0.9366,0.9322,0.9188,0.9009,0.8691,0.8662,0.8884,0.9268,0.9488,0.9631,1.0063,1.0477,1.0958,1.1091,1.1004,1.069,1.047,1.0372,1.0387,1.0387,1.0253,1.003,1.0075,0.9941,0.9629,0.9188,0.9009,0.9001,0.8962,0.8999,0.911,0.9273,0.9496,0.9788,1.0164,1.0071,0.9871,1.0144,0.9996,0.9584,0.9137,0.903,0.8863,0.8232,0.8102,0.8102,0.8102,0.7897,0.7687,0.7687,0.7939,0.8018,0.7771,0.7771,0.7855,0.806,0.752,0.7147,0.7311,0.6937,0.6685,0.6682,0.6685,0.6601,0.6389,0.6221,0.6053,0.5972,0.5804,0.5804,0.5972,0.5972,0.5972,0.5972,0.6224,0.6347,0.6347,0.5927,0.572,0.572,0.551,0.5258,1.7114,1.6529,1.6086,1.4873,1.4298,1.3777,1.2842,1.2314,1.191,1.1582,1.1236,1.0972,1.1023,1.1448,1.168,1.1319,1.1557,1.1746,1.1857,1.1857,1.1879,1.1938,1.1676,1.159,1.1726,1.1474,1.101,1.0209,1.0387,1.0209,0.9496,0.9366,0.9353,0.9459,0.9079,0.8987,0.9263,0.9321,0.9624,1.0228,1.0452,1.0826,1.1307,1.151,1.1587,1.1575,1.1096,1.0985,1.1184,1.0919,1.0806,1.0738,1.0801,1.0629,1.0337,0.978,0.9562,0.9496,0.9496,0.9313,0.9154,0.9254,0.9282,0.94,0.9616,0.9502,0.9333,0.9602,0.9545,0.9254,0.8653,0.8598,0.8605,0.8223,0.8029,0.8033,0.8198,0.798,0.7729,0.7729,0.8022,0.8064,0.7478,0.7604,0.7729,0.7729,0.7269,0.685,0.6727,0.6518,0.6308,0.6137,0.6266,0.6266,0.5927,0.5927,0.5759,0.5426,0.5384,0.5384,0.5384,0.53,0.5216,0.5216,0.5466,0.5675,0.5927,0.5468,0.5216,0.5216,0.509,0.4836,1.6482,1.6084,1.5958,1.456,1.3438,1.2663,1.2472,1.1948,1.1532,1.1601,1.1306,1.1034,1.0942,1.1054,1.1268,1.1681,1.1675,1.1675,1.1949,1.1739,1.1614,1.1803,1.1212,1.0942,1.1476,1.106,1.0698,1.0654,1.0253,1.003,0.9986,0.9545,0.9455,0.9839,0.9829,0.9777,0.9678,1.0109,1.0589,1.1026,1.1064,1.1261,1.1574,1.1605,1.1924,1.2392,1.187,1.1989,1.2505,1.1587,1.1792,1.2642,1.1588,1.1263,1.1349,1.0665,1.0254,0.9941,0.9941,0.9674,0.9353,0.9794,0.922,0.8567,0.9564,0.9349,0.8848,0.946,0.9492,0.9407,0.9328,0.9057,0.8696,0.8276,0.7909,0.7839,0.8525,0.8654,0.8612,0.8612,0.8654,0.8403,0.7562,0.7063,0.6769,0.6769,0.6056,0.5804,0.6601,0.5972,0.5636,0.6053,0.572,0.5468,0.5426,0.5426,0.5426,0.5384,0.5384,0.5384,0.5384,0.4962,0.4752,0.4752,0.433,0.4539,0.5426,0.4962,0.4752,0.471,0.4288,0.4078,1.7032,1.636,1.5719,1.4539,1.3473,1.2551,1.2233,1.1759,1.1307,1.1041,1.065,1.049,1.072,1.0896,1.0992,1.1101,1.1323,1.1457,1.1182,1.1151,1.1151,1.1194,1.0991,1.103,1.1524,1.1052,1.0698,1.0698,1.0495,1.0371,1.0371,1.0132,1.0078,1.0212,0.9841,0.9877,1.0361,1.0901,1.1365,1.1797,1.1797,1.2022,1.2439,1.2353,1.2585,1.3056,1.2881,1.2649,1.2355,1.1916,1.1779,1.1819,1.1417,1.1253,1.1188,1.0734,1.0423,1.0233,0.9995,0.9842,0.9701,0.9762,0.9385,0.9005,0.9792,0.9455,0.8933,0.9502,0.9535,0.9226,0.8509,0.8344,0.8235,0.7776,0.763,0.7672,0.8251,0.8105,0.7687,0.7143,0.7478,0.7604,0.6724,0.664,0.6685,0.6685,0.6224,0.5969,0.6263,0.5762,0.5468,0.5636,0.551,0.5384,0.5384,0.5132,0.4962,0.4962,0.4668,0.45,0.45,0.433,0.4246,0.4246,0.4078,0.4162,0.45,0.433,0.4246,0.4246,0.4078,0.3868,1.7344,1.6594,1.5794,1.4453,1.3555,1.2833,1.2212,1.1706,1.1307,1.1079,1.0485,1.0119,1.0609,1.0535,1.0485,1.0938,1.1125,1.1125,1.0885,1.072,1.069,1.0866,1.07,1.0855,1.1484,1.1057,1.0787,1.0965,1.0724,1.0618,1.0618,1.0473,1.0525,1.0784,1.0201,1.0314,1.1153,1.1406,1.1741,1.2161,1.2161,1.2413,1.2833,1.2737,1.2967,1.3478,1.3526,1.3216,1.2729,1.2463,1.2263,1.2027,1.1809,1.1579,1.1378,1.1069,1.0831,1.0594,1.0363,1.0213,1.0068,0.9956,0.9653,0.9394,0.9814,0.9549,0.9154,0.9587,0.9479,0.8983,0.8295,0.801,0.7858,0.7519,0.7412,0.7421,0.7691,0.758,0.7267,0.6677,0.7035,0.7143,0.6263,0.6305,0.6434,0.6308,0.6053,0.5885,0.5885,0.5594,0.5384,0.5384,0.5384,0.5384,0.5384,0.4962,0.471,0.471,0.4246,0.3994,0.3994,0.3868,0.3784,0.3784,0.3658,0.3574,0.3574,0.3742,0.3784,0.3784,0.3658,0.3407,0.0,0.0,0.0,1.4307,1.3717,1.3358,1.2426,1.183,1.1572,1.1819,1.0872,1.0154,1.0604,0.9937,0.9831,1.1331,1.1078,1.0769,1.1028,1.042,1.0193,1.0795,1.0356,1.0382,1.1405,1.101,1.0921,1.1449,1.0939,1.0608,1.0608,1.0462,1.0779,1.1551,1.1006,1.1153,1.2069,1.1653,1.1653,1.2152,1.2152,1.2359,1.2733,1.2733,1.3019,1.3592,1.3727,1.3788,1.3752,1.3281,1.3276,1.3501,1.2749,1.2292,1.1978,1.1698,1.1388,1.1096,1.1101,1.0794,1.0439,1.0411,1.004,0.954,0.9678,0.9569,0.9454,0.974,0.9266,0.8722,0.8853,0.8217,0.7594,0.7602,0.7269,0.6993,0.6879,0.7195,0.744,0.744,0.7416,0.7108,0.6227,0.6098,0.593,0.5471,0.5387,0.5384,0.5384,0.5384,0.5384,0.5384,0.5384,0.5384,0.5384,0.4962,0.4668,0.4668,0.4206,0.3954,0.3954,0.3577,0.3369,0.3369,0.2945,0.2692,0.2692,0.3155,0.3367,0.3367,0.2903,0.2692,1.7718,0.0,0.0,0.0,0.0,0.0,1.2529,1.2249,1.1967,1.1263,1.0827,1.06,1.0634,1.0068,0.9942,1.1068,1.0897,1.0553,1.0259,0.9975,0.9986,1.0462,1.0195,1.0312,1.128,1.0958,1.0752,1.0846,1.0601,1.0417,1.0383,1.0524,1.074,1.0953,1.1129,1.1486,1.2069,1.2276,1.2567,1.303,1.303,1.3113,1.3196,1.3196,1.3299,1.3464,1.3505,1.3418,1.3235,1.3273,1.3121,1.2755,1.2302,1.2018,1.1799,1.1513,1.1219,1.0982,1.1074,1.0956,1.0768,1.0859,1.0558,1.0222,1.047,1.0171,0.9669,0.9611,0.9219,0.8717,0.8063,0.7916,0.7831,0.7223,0.7006,0.6855,0.6542,0.6313,0.6199,0.615,0.6342,0.6372,0.581,0.5691,0.562,0.5492,0.5412,0.5384,0.5384,0.5384,0.5384,0.5384,0.5384,0.5258,0.492,0.4458,0.4078,0.3785,0.3009,0.2554,0.2554,0.2427,0.2385,0.2385,0.2577,0.2524,0.2188,0.265,0.2903,0.2903,0.2777,0.2692,1.7928,1.7058,1.604,1.5159,0.0,0.0,1.2961,1.2714,1.2464,1.1422,1.0972,1.0689,1.0388,0.9999,0.9783,1.0088,1.0133,1.0149,1.0107,0.9711,0.9673,1.0325,0.9904,0.9981,1.1112,1.0652,1.0443,1.077,1.0703,1.0582,1.0472,1.0608,1.0862,1.1278,1.157,1.1986,1.265,1.2692,1.2941,1.3403,1.3403,1.3403,1.3403,1.3403,1.3279,1.3113,1.3221,1.301,1.2629,1.2908,1.2712,1.2177,1.1995,1.1767,1.15,1.1307,1.1079,1.0938,1.1058,1.102,1.0938,1.1063,1.0891,1.0672,1.0918,1.063,1.0184,1.0176,0.9853,0.9295,0.8492,0.834,0.8315,0.7863,0.7508,0.7225,0.6963,0.6466,0.5933,0.5698,0.5795,0.5865,0.5645,0.5575,0.5553,0.5553,0.5503,0.538,0.5166,0.5145,0.5046,0.4836,0.4836,0.471,0.4414,0.3996,0.3659,0.3409,0.2709,0.2294,0.2294,0.2294,0.2294,0.2294,0.2575,0.2566,0.2272,0.2356,0.2398,0.2398,0.2608,0.2608,1.7915,1.7197,0.0,1.5408,1.529,0.0,1.3737,1.3379,1.3093,1.2183,1.1482,1.0853,1.032,1.004,0.9663,0.9146,0.9314,0.9672,1.0199,0.952,0.9296,1.0247,0.9606,0.9568,1.0864,1.0315,1.0143,1.087,1.08,1.0719,1.0762,1.0757,1.1172,1.2044,1.2127,1.2513,1.3314,1.2941,1.2982,1.3403,1.3403,1.3403,1.3403,1.3362,1.3106,1.2781,1.2917,1.2646,1.2129,1.241,1.2264,1.1859,1.1827,1.1543,1.1209,1.1123,1.1052,1.0971,1.1069,1.1031,1.096,1.1069,1.1031,1.096,1.1069,1.0949,1.0777,1.094,1.0651,1.016,0.9571,0.9188,0.8955,0.8859,0.829,0.7743,0.7725,0.7115,0.6382,0.5889,0.5698,0.5616,0.5621,0.5613,0.5561,0.5526,0.5521,0.5311,0.4788,0.4706,0.4546,0.4036,0.3994,0.3994,0.3952,0.3617,0.3367,0.3241,0.2821,0.2528,0.2486,0.2486,0.2486,0.2486,0.2483,0.2482,0.2482,0.2146,0.2018,0.2103,0.244,0.2398,1.7649,1.715,1.6673,1.6377,1.612,0.0,1.5044,1.4518,1.3975,1.3307,1.277,1.2245,1.1623,1.1134,1.0809,1.0747,0.9996,0.9468,0.9672,0.914,0.9085,1.0052,0.9752,0.972,1.0401,1.0698,1.0591,0.9943,0.975,1.0096,1.1048,1.1083,1.1329,1.1822,1.2231,1.2576,1.2816,1.3106,1.3314,1.3403,1.3403,1.3403,1.3403,1.3024,1.2982,1.3238,1.289,1.2509,1.2116,1.2499,1.2468,1.2198,1.1921,1.1805,1.176,1.1412,1.1226,1.1194,1.1128,1.1085,1.1069,1.1096,1.1085,1.1074,1.1096,1.1069,1.0934,1.0502,1.0277,1.0037,0.9601,0.9399,0.916,0.8627,0.8031,0.7536,0.7334,0.7115,0.6785,0.6427,0.5983,0.5693,0.5698,0.5624,0.5491,0.51,0.5365,0.5267,0.4366,0.4566,0.4588,0.404,0.3994,0.3868,0.3533,0.3449,0.3071,0.2314,0.1824,0.1407,0.1108,0.1108,0.1108,0.1108,0.1099,0.1095,0.1095,0.1683,0.2188,0.2566,0.2272,0.2103,1.747,1.7087,1.6726,1.6516,1.6255,0.0,0.0,1.4798,1.4318,1.3132,1.2979,1.2726,1.1707,1.144,1.129,1.0964,1.038,0.9956,0.9987,0.9544,0.9373,0.9902,0.9838,0.995,1.0404,1.0556,1.0451,1.0122,0.9968,1.025,1.1039,1.1323,1.1648,1.2053,1.2498,1.2807,1.2953,1.3165,1.3322,1.3403,1.3403,1.3403,1.3403,1.3148,1.3065,1.3024,1.2816,1.2484,1.211,1.2318,1.2195,1.1849,1.1731,1.1604,1.1446,1.1253,1.1188,1.1177,1.1123,1.1101,1.1058,1.0837,1.0843,1.0923,1.0501,1.046,1.053,1.0256,1.0116,1.0002,0.9553,0.9146,0.873,0.8402,0.7802,0.7251,0.7187,0.6965,0.6681,0.6538,0.6044,0.5704,0.5689,0.569,0.5474,0.4995,0.5079,0.486,0.3938,0.3959,0.3893,0.3409,0.3363,0.3281,0.3071,0.3071,0.2861,0.2398,0.2114,0.1824,0.1357,0.1357,0.123,0.1018,0.0802,0.08,0.101,0.122,0.1473,0.1684,0.1683,0.1557,1.738,1.7001,1.672,1.654,1.6282,1.5861,0.0,0.0,0.0,1.3115,1.3176,1.3096,1.1778,1.1807,1.1779,1.1032,1.0757,1.0647,1.0647,1.0214,0.9879,0.9937,0.9906,1.0024,1.0446,1.021,1.0154,1.053,1.0335,1.0471,1.1033,1.1434,1.1875,1.2355,1.2755,1.3023,1.3173,1.32,1.3234,1.3356,1.339,1.3403,1.3403,1.3314,1.3106,1.2816,1.2765,1.2551,1.2235,1.2349,1.2051,1.154,1.1561,1.1298,1.0965,1.1069,1.1128,1.1166,1.1118,1.1118,1.1085,1.0644,1.0624,1.0651,0.9951,0.984,0.998,0.998,0.998,0.9901,0.9543,0.8848,0.8248,0.8294,0.7618,0.7017,0.7156,0.6892,0.6573,0.6496,0.6145,0.58,0.5712,0.5605,0.5361,0.4859,0.4723,0.4385,0.3478,0.3408,0.3255,0.2736,0.2692,0.2692,0.2692,0.2608,0.2524,0.244,0.2356,0.2104,0.1641,0.1599,0.1431,0.1051,0.0716,0.0716,0.1051,0.0716,0.0631,0.0842,0.1052,0.101,1.756,1.7012,1.6653,1.7159,1.656,1.5941,1.6282,0.0,1.4946,1.4723,0.0,1.4034,1.3189,0.0,0.0,1.2137,1.1543,1.119,1.1119,1.0748,1.0494,1.0447,1.0025,0.9839,1.0134,0.9815,0.9822,1.04,0.9892,1.0107,1.129,1.1409,1.1805,1.2634,1.272,1.2827,1.3023,1.3152,1.322,1.32,1.3336,1.3403,1.3403,1.2982,1.2982,1.3327,1.3085,1.2856,1.2663,1.3211,1.2849,1.1986,1.1587,1.1269,1.1085,1.1096,1.1237,1.1428,1.1177,1.1166,1.1221,1.0923,1.0662,1.0419,1.0189,0.9851,0.9587,0.9587,0.9587,0.9569,0.9654,0.8999,0.8299,0.8392,0.7614,0.6956,0.7143,0.7074,0.6871,0.6576,0.6448,0.6264,0.5775,0.5291,0.4864,0.4415,0.4343,0.3992,0.2998,0.3252,0.3268,0.274,0.2692,0.2692,0.2692,0.2314,0.1892,0.1472,0.1137,0.0716,0.0253,0.021,0.021,0.0168,0.0084,0.0084,0.0168,0.0084,0.0463,0.122,0.0926,0.0758,1.7447,1.7065,1.6807,1.6848,1.6552,1.6171,1.6042,1.5639,1.5125,1.4541,0.0,0.0,0.0,0.0,0.0,0.0,1.2079,1.1711,1.1358,1.1028,1.0743,1.0522,1.046,1.0431,1.0409,1.0152,1.0014,1.0063,0.9766,0.9998,1.0839,1.1115,1.154,1.2206,1.244,1.2718,1.3003,1.3057,1.3173,1.3308,1.3121,1.2982,1.2982,1.2775,1.2692,1.2657,1.3048,1.3041,1.274,1.3263,1.2958,1.2069,1.1861,1.1598,1.1227,1.0974,1.1041,1.1226,1.1058,1.1074,1.1134,1.0847,1.0346,0.9879,1.0111,0.9861,0.945,0.925,0.9221,0.9144,0.8926,0.824,0.7545,0.7582,0.6862,0.6241,0.6299,0.6286,0.6186,0.608,0.6026,0.5873,0.538,0.5317,0.5093,0.436,0.4257,0.3888,0.2916,0.294,0.2961,0.2721,0.2703,0.2692,0.2692,0.2272,0.1934,0.1724,0.1052,0.0631,0.0421,0.0126,0.0,0.0,0.0,0.0,0.0,0.0,0.0042,0.0126,0.0253,0.0295,1.7403,1.7064,1.6818,1.6656,1.6452,1.6153,1.5794,1.5579,1.5193,1.4359,1.4341,0.0,0.0,0.0,1.3229,1.2796,0.0,1.2098,1.1747,1.1397,1.1035,1.0731,1.0847,1.0808,1.0483,1.03,1.0153,0.9988,0.9841,1.0007,1.0577,1.1048,1.146,1.1824,1.2172,1.2493,1.2873,1.2842,1.299,1.3281,1.2908,1.2692,1.2692,1.2692,1.2484,1.2158,1.2945,1.298,1.2573,1.2945,1.2689,1.2069,1.1944,1.1694,1.1373,1.0981,1.0949,1.1096,1.1036,1.1031,1.1031,1.0842,1.0267,0.9679,1.0126,0.9815,0.9322,0.9046,0.8896,0.8723,0.8377,0.7658,0.7017,0.7017,0.6325,0.5715,0.5698,0.5695,0.5695,0.5695,0.5598,0.5365,0.5065,0.5157,0.5024,0.4168,0.3925,0.3564,0.2869,0.2757,0.2692,0.2684,0.2706,0.265,0.2524,0.2061,0.1724,0.1473,0.0845,0.0507,0.0505,0.0168,0.0,0.0,0.0,0.0,0.0,0.0,-0.0253,-0.0674,-0.0337,-0.0253,1.7582,1.7012,1.6591,1.6915,1.6294,1.5679,1.5913,1.563,1.5168,1.4687,0.0,0.0,1.3909,0.0,0.0,0.0,1.2723,0.0,0.0,1.1885,1.1402,1.12,1.0971,1.0609,1.0149,0.9865,0.9918,1.0335,1.0077,1.0189,1.0859,1.1378,1.1682,1.1727,1.185,1.2121,1.2515,1.2371,1.2561,1.3016,1.281,1.2692,1.2692,1.2692,1.2484,1.2116,1.2762,1.2652,1.2122,1.2299,1.2233,1.2069,1.1611,1.1403,1.1349,1.1174,1.1096,1.1118,1.1226,1.1112,1.0944,1.1052,1.0667,1.0216,1.0366,0.975,0.9021,0.9021,0.868,0.8334,0.829,0.7658,0.7017,0.7017,0.6317,0.5722,0.5706,0.5695,0.5695,0.5695,0.5301,0.4921,0.4968,0.4624,0.4166,0.3714,0.3173,0.2827,0.2784,0.2757,0.2684,0.2697,0.2692,0.2524,0.2061,0.1598,0.0968,0.0126,0.0043,0.0043,0.0042,0.0,0.0,0.0,0.0,0.0,0.0,0.0,-0.0253,-0.0716,-0.0674,-0.0884,1.7529,1.7174,1.685,1.6969,1.6669,1.6329,1.6224,1.5805,1.535,1.4993,0.0,0.0,0.0,0.0,0.0,0.0,0.0,0.0,0.0,1.121,1.0994,1.1066,1.1063,1.0914,1.0467,1.0256,1.0119,1.0024,1.0047,1.0227,1.0553,1.1188,1.1617,1.1714,1.2081,1.2393,1.2611,1.2735,1.2889,1.3146,1.2849,1.2567,1.2318,1.2318,1.1902,1.1237,1.2034,1.2111,1.1659,1.2034,1.1945,1.1611,1.1445,1.1195,1.0915,1.0871,1.0965,1.1118,1.1232,1.1172,1.1036,1.0992,1.0773,1.0446,0.9966,0.9569,0.9203,0.8706,0.842,0.8307,0.8411,0.7962,0.7468,0.7211,0.6631,0.6077,0.5786,0.5662,0.5635,0.5635,0.5229,0.4821,0.4524,0.4097,0.3798,0.3631,0.3434,0.3198,0.2887,0.2816,0.275,0.2784,0.2504,0.2236,0.2063,0.1367,0.0638,0.0043,0.0,0.0,0.0,-0.0295,-0.0463,-0.0463,-0.0715,-0.0842,-0.0842,-0.0842,-0.1094,-0.1557,-0.1557,-0.1473,1.7521,1.7304,1.712,1.7023,1.6861,1.6624,1.6317,1.5936,1.555,1.5152,0.0,0.0,0.0,0.0,0.0,0.0,0.0,0.0,0.0,1.1128,1.1074,1.1358,1.1165,1.0909,1.0603,1.0372,1.0207,1.0065,1.0123,1.029,1.0525,1.1186,1.1554,1.1636,1.2008,1.234,1.2651,1.2641,1.2836,1.3139,1.2632,1.2268,1.2069,1.1944,1.1445,1.0737,1.1528,1.157,1.1153,1.1486,1.1403,1.1153,1.1153,1.0987,1.0701,1.0744,1.0954,1.1172,1.1292,1.1199,1.109,1.1009,1.0831,1.0602,0.9998,0.9678,0.937,0.874,0.8395,0.825,0.8149,0.7917,0.7567,0.6986,0.6573,0.6191,0.575,0.5632,0.5559,0.5345,0.4954,0.4511,0.4083,0.3618,0.3366,0.3366,0.331,0.3124,0.2679,0.2566,0.2461,0.2285,0.2009,0.1739,0.1609,0.091,0.0302,0.0,-0.0171,-0.0255,-0.0253,-0.0674,-0.0926,-0.0926,-0.1178,-0.1304,-0.1304,-0.1304,-0.1556,-0.2018,-0.2018,-0.1934]},{"header":{"parameterUnit":"m.s-1","parameterCategory":1,"la1":30.6,"la2":29.2853,"lo1":-89.7004,"lo2":-87.6739,"dy":0.0162,"dx":0.0183,"nx":112,"ny":82,"refTime":"2023-10-09T18:00:00:Z","depth":0,"parameterNumber":3,"parameterNumberName":"V-component_of_WINDS"},"data":[0.0,0.0,0.0,0.0,0.0,0.0,0.0,0.0,0.0,0.0,0.0,0.0,0.0,0.0,0.0,0.0,0.0,0.0,0.0,0.0,0.0,0.0,0.0,0.0,0.0,0.0,0.0,0.0,0.0,0.0,0.0,0.0,0.0,0.0,0.0,0.0,0.0,0.0,0.0,0.0,0.0,0.0,0.0,0.0,0.0,0.0,0.0,0.0,0.0,0.0,0.0,0.0,0.0,0.0,0.0,0.0,0.0,0.0,0.0,0.0,0.0,0.0,0.0,0.0,0.0,0.0,0.0,0.0,0.0,0.0,0.0,0.0,0.0,0.0,0.0,0.0,0.0,0.0,0.0,0.0,0.0,0.0,0.0,0.0,0.0,0.0,0.0,0.0,0.0,0.0,3.3735,3.5136,3.6103,3.636,3.57,3.5079,3.402,3.2367,0.0,0.0,0.0,0.0,0.0,0.0,0.0,0.0,0.0,0.0,0.0,0.0,0.0,0.0,0.0,0.0,0.0,0.0,0.0,0.0,0.0,0.0,0.0,0.0,0.0,0.0,0.0,0.0,0.0,0.0,0.0,0.0,0.0,0.0,0.0,0.0,0.0,0.0,0.0,0.0,0.0,0.0,0.0,0.0,0.0,0.0,0.0,0.0,0.0,0.0,0.0,0.0,0.0,0.0,0.0,0.0,0.0,0.0,0.0,0.0,0.0,0.0,0.0,0.0,0.0,0.0,0.0,0.0,0.0,0.0,0.0,0.0,0.0,0.0,0.0,0.0,0.0,0.0,0.0,0.0,0.0,0.0,0.0,0.0,0.0,0.0,0.0,0.0,0.0,0.0,0.0,0.0,0.0,0.0,0.0,0.0,0.0,0.0,0.0,0.0,0.0,0.0,0.0,0.0,3.5642,3.7781,3.8158,3.7718,3.6461,3.6229,3.5268,3.3083,0.0,0.0,0.0,0.0,0.0,0.0,0.0,0.0,0.0,0.0,0.0,0.0,0.0,0.0,0.0,0.0,0.0,0.0,0.0,0.0,0.0,0.0,0.0,0.0,0.0,0.0,0.0,0.0,0.0,0.0,0.0,0.0,0.0,0.0,0.0,0.0,0.0,0.0,0.0,0.0,0.0,0.0,0.0,0.0,0.0,0.0,0.0,0.0,0.0,0.0,0.0,0.0,0.0,0.0,0.0,0.0,0.0,0.0,0.0,0.0,0.0,0.0,0.0,0.0,0.0,0.0,0.0,0.0,0.0,0.0,0.0,0.0,0.0,0.0,0.0,0.0,0.0,0.0,0.0,0.0,0.0,0.0,0.0,0.0,0.0,0.0,0.0,0.0,0.0,0.0,0.0,0.0,0.0,0.0,0.0,0.0,0.0,0.0,0.0,0.0,0.0,0.0,0.0,3.5356,3.6981,3.8962,3.9181,3.8755,3.7739,3.6886,3.578,3.4328,3.3484,0.0,0.0,0.0,0.0,0.0,0.0,0.0,0.0,0.0,0.0,0.0,0.0,0.0,0.0,0.0,0.0,0.0,0.0,0.0,0.0,0.0,0.0,0.0,0.0,0.0,0.0,0.0,0.0,0.0,0.0,0.0,0.0,0.0,0.0,0.0,0.0,0.0,0.0,0.0,0.0,0.0,0.0,0.0,0.0,0.0,0.0,0.0,0.0,0.0,0.0,0.0,0.0,0.0,0.0,0.0,0.0,0.0,0.0,0.0,0.0,0.0,0.0,0.0,0.0,0.0,0.0,0.0,0.0,0.0,0.0,0.0,0.0,0.0,0.0,0.0,0.0,0.0,0.0,0.0,0.0,0.0,0.0,0.0,0.0,0.0,0.0,0.0,0.0,0.0,0.0,0.0,0.0,0.0,0.0,0.0,0.0,0.0,0.0,0.0,0.0,0.0,0.0,3.7245,3.8311,3.9824,3.9986,3.9675,3.8916,3.7629,3.6456,3.5535,3.463,0.0,0.0,0.0,0.0,0.0,0.0,0.0,0.0,0.0,0.0,0.0,0.0,0.0,0.0,0.0,0.0,0.0,0.0,0.0,0.0,0.0,0.0,0.0,0.0,0.0,0.0,0.0,0.0,0.0,0.0,0.0,0.0,0.0,0.0,0.0,0.0,0.0,0.0,0.0,0.0,0.0,0.0,0.0,0.0,0.0,0.0,0.0,0.0,0.0,0.0,0.0,0.0,0.0,0.0,0.0,0.0,0.0,0.0,0.0,0.0,0.0,0.0,0.0,0.0,0.0,0.0,0.0,0.0,0.0,0.0,0.0,0.0,0.0,0.0,0.0,0.0,0.0,0.0,0.0,0.0,0.0,0.0,0.0,0.0,0.0,0.0,0.0,0.0,0.0,0.0,0.0,0.0,0.0,0.0,0.0,0.0,0.0,0.0,0.0,0.0,0.0,0.0,3.8663,3.9859,4.071,4.0825,4.0469,3.9698,3.8882,3.7812,3.6318,3.5387,0.0,0.0,0.0,0.0,0.0,0.0,0.0,0.0,0.0,0.0,0.0,0.0,0.0,0.0,0.0,0.0,0.0,0.0,0.0,0.0,0.0,0.0,0.0,0.0,0.0,0.0,0.0,0.0,0.0,0.0,0.0,0.0,0.0,0.0,0.0,0.0,0.0,0.0,0.0,0.0,0.0,0.0,0.0,0.0,0.0,0.0,0.0,0.0,0.0,0.0,0.0,0.0,0.0,0.0,0.0,0.0,0.0,0.0,0.0,0.0,0.0,0.0,0.0,0.0,0.0,0.0,0.0,0.0,0.0,0.0,0.0,0.0,0.0,0.0,0.0,0.0,0.0,0.0,0.0,0.0,0.0,0.0,0.0,0.0,0.0,0.0,0.0,0.0,0.0,0.0,0.0,0.0,0.0,0.0,0.0,0.0,0.0,0.0,0.0,0.0,0.0,0.0,3.9318,4.075,0.0,4.1895,4.1262,4.0503,3.9296,3.8157,3.7122,0.0,0.0,0.0,0.0,0.0,0.0,0.0,0.0,0.0,0.0,0.0,0.0,0.0,0.0,0.0,0.0,0.0,0.0,0.0,0.0,0.0,0.0,0.0,0.0,0.0,0.0,0.0,0.0,0.0,0.0,0.0,0.0,0.0,0.0,0.0,0.0,0.0,0.0,0.0,0.0,0.0,0.0,0.0,0.0,0.0,0.0,0.0,0.0,0.0,0.0,0.0,0.0,0.0,0.0,0.0,0.0,0.0,0.0,0.0,0.0,0.0,0.0,0.0,0.0,0.0,0.0,0.0,0.0,0.0,0.0,0.0,0.0,0.0,0.0,0.0,0.0,0.0,0.0,0.0,0.0,0.0,0.0,0.0,0.0,0.0,0.0,0.0,0.0,0.0,0.0,0.0,0.0,0.0,0.0,0.0,0.0,0.0,0.0,0.0,0.0,0.0,0.0,3.9009,4.0233,4.1562,0.0,4.2482,4.1814,4.1309,3.9848,3.864,3.7881,0.0,0.0,0.0,0.0,0.0,0.0,0.0,0.0,0.0,0.0,0.0,0.0,0.0,0.0,0.0,0.0,0.0,0.0,0.0,0.0,0.0,0.0,0.0,0.0,0.0,0.0,0.0,0.0,0.0,0.0,0.0,0.0,0.0,0.0,0.0,0.0,0.0,0.0,0.0,0.0,0.0,0.0,0.0,0.0,0.0,0.0,0.0,0.0,0.0,0.0,0.0,0.0,0.0,0.0,0.0,0.0,0.0,0.0,0.0,0.0,0.0,0.0,0.0,0.0,0.0,0.0,0.0,0.0,0.0,0.0,0.0,0.0,0.0,0.0,0.0,0.0,0.0,0.0,0.0,0.0,0.0,0.0,0.0,0.0,0.0,0.0,0.0,0.0,0.0,0.0,0.0,0.0,0.0,0.0,0.0,0.0,0.0,0.0,0.0,0.0,0.0,0.0,4.0722,4.1573,4.2332,4.3138,4.2516,4.2021,4.2021,4.0607,3.9388,0.0,0.0,0.0,0.0,0.0,0.0,0.0,0.0,0.0,0.0,0.0,0.0,0.0,0.0,0.0,0.0,0.0,0.0,0.0,0.0,0.0,0.0,0.0,0.0,0.0,0.0,0.0,0.0,0.0,0.0,0.0,0.0,0.0,0.0,0.0,0.0,0.0,0.0,0.0,0.0,0.0,0.0,0.0,0.0,0.0,0.0,0.0,0.0,0.0,0.0,0.0,0.0,0.0,0.0,0.0,0.0,0.0,0.0,0.0,0.0,0.0,0.0,0.0,0.0,0.0,0.0,0.0,0.0,0.0,0.0,0.0,0.0,0.0,0.0,0.0,0.0,0.0,0.0,0.0,0.0,0.0,0.0,0.0,0.0,0.0,0.0,0.0,0.0,0.0,0.0,0.0,0.0,0.0,0.0,0.0,0.0,0.0,0.0,0.0,0.0,0.0,0.0,0.0,4.1307,4.2702,4.3919,4.4652,4.4057,4.3414,4.2896,4.1435,4.018,3.9284,0.0,0.0,0.0,0.0,0.0,0.0,0.0,0.0,0.0,0.0,0.0,0.0,0.0,0.0,0.0,0.0,0.0,0.0,0.0,0.0,0.0,0.0,0.0,0.0,0.0,0.0,0.0,0.0,0.0,0.0,0.0,0.0,0.0,0.0,0.0,0.0,0.0,0.0,0.0,0.0,0.0,0.0,0.0,0.0,0.0,0.0,0.0,0.0,0.0,0.0,0.0,0.0,0.0,0.0,0.0,0.0,0.0,0.0,0.0,0.0,0.0,0.0,0.0,0.0,0.0,0.0,0.0,0.0,0.0,0.0,0.0,0.0,0.0,0.0,0.0,0.0,0.0,0.0,0.0,0.0,0.0,0.0,0.0,0.0,0.0,0.0,0.0,0.0,0.0,0.0,0.0,0.0,0.0,0.0,0.0,0.0,0.0,0.0,0.0,0.0,0.0,0.0,4.2686,4.3699,4.4587,4.5407,4.4772,4.4104,4.369,4.224,4.0961,4.0027,0.0,0.0,0.0,0.0,0.0,0.0,0.0,0.0,0.0,0.0,0.0,0.0,0.0,0.0,0.0,0.0,0.0,0.0,0.0,0.0,0.0,0.0,0.0,0.0,0.0,0.0,0.0,0.0,0.0,0.0,0.0,0.0,0.0,0.0,0.0,0.0,0.0,0.0,0.0,0.0,0.0,0.0,0.0,0.0,0.0,0.0,0.0,0.0,0.0,0.0,0.0,0.0,0.0,0.0,0.0,0.0,0.0,0.0,0.0,0.0,0.0,0.0,0.0,0.0,0.0,0.0,0.0,0.0,0.0,0.0,0.0,0.0,0.0,0.0,0.0,0.0,0.0,0.0,0.0,0.0,0.0,0.0,0.0,0.0,0.0,0.0,0.0,0.0,0.0,0.0,0.0,0.0,0.0,0.0,0.0,0.0,0.0,0.0,0.0,0.0,0.0,0.0,4.4468,4.465,4.4859,4.5654,4.501,4.4462,4.4324,4.3034,4.1788,4.0839,0.0,0.0,0.0,0.0,0.0,0.0,0.0,0.0,0.0,0.0,0.0,0.0,0.0,0.0,0.0,0.0,0.0,0.0,0.0,0.0,0.0,0.0,0.0,0.0,0.0,0.0,0.0,0.0,0.0,0.0,0.0,0.0,0.0,0.0,0.0,0.0,0.0,0.0,0.0,0.0,0.0,0.0,0.0,0.0,0.0,0.0,0.0,0.0,0.0,0.0,0.0,0.0,0.0,0.0,0.0,0.0,0.0,0.0,0.0,0.0,3.209,3.0776,0.0,0.0,0.0,0.0,0.0,0.0,0.0,0.0,0.0,0.0,0.0,0.0,0.0,0.0,0.0,0.0,0.0,0.0,0.0,0.0,0.0,0.0,0.0,0.0,0.0,0.0,0.0,0.0,0.0,0.0,0.0,0.0,0.0,0.0,0.0,0.0,0.0,0.0,0.0,0.0,4.5118,4.587,4.6399,4.6656,4.646,4.5793,4.458,4.4064,4.3141,4.1517,4.1351,0.0,0.0,0.0,0.0,0.0,0.0,0.0,0.0,0.0,0.0,0.0,0.0,0.0,0.0,0.0,0.0,0.0,0.0,0.0,0.0,0.0,0.0,0.0,0.0,0.0,0.0,0.0,0.0,0.0,0.0,0.0,0.0,0.0,0.0,0.0,0.0,0.0,0.0,0.0,0.0,0.0,0.0,0.0,0.0,0.0,0.0,0.0,0.0,0.0,0.0,0.0,0.0,0.0,0.0,0.0,0.0,0.0,0.0,0.0,3.4401,3.2972,0.0,0.0,0.0,0.0,0.0,0.0,0.0,0.0,0.0,0.0,0.0,0.0,0.0,0.0,0.0,0.0,0.0,0.0,0.0,0.0,0.0,0.0,0.0,0.0,0.0,0.0,0.0,0.0,0.0,0.0,0.0,0.0,0.0,0.0,0.0,0.0,0.0,0.0,0.0,0.0,4.6269,4.7004,4.7469,4.7601,4.7495,4.6964,4.5796,4.5315,4.4435,4.2983,4.2327,0.0,0.0,0.0,0.0,0.0,0.0,0.0,0.0,0.0,0.0,0.0,0.0,0.0,0.0,0.0,0.0,0.0,0.0,0.0,0.0,0.0,0.0,0.0,0.0,0.0,0.0,0.0,0.0,0.0,0.0,0.0,0.0,0.0,0.0,0.0,0.0,0.0,0.0,0.0,0.0,0.0,0.0,0.0,0.0,0.0,0.0,0.0,0.0,0.0,0.0,0.0,0.0,0.0,4.0736,4.0474,4.0184,3.9768,3.9515,3.9325,3.7874,3.6409,3.4883,3.3473,0.0,0.0,0.0,0.0,0.0,0.0,0.0,0.0,0.0,0.0,0.0,0.0,0.0,0.0,0.0,0.0,0.0,0.0,0.0,0.0,0.0,0.0,3.739,3.8825,3.925,3.915,3.8289,0.0,0.0,0.0,0.0,0.0,0.0,0.0,0.0,0.0,0.0,0.0,4.7605,4.8111,4.8416,4.8535,4.8429,4.8049,4.7283,4.6643,4.5796,4.4604,4.3447,4.2543,0.0,0.0,0.0,0.0,0.0,0.0,0.0,0.0,0.0,0.0,0.0,0.0,0.0,0.0,0.0,0.0,0.0,0.0,0.0,0.0,0.0,0.0,0.0,0.0,0.0,0.0,0.0,0.0,0.0,0.0,0.0,0.0,3.1148,3.1976,0.0,0.0,0.0,0.0,0.0,0.0,0.0,0.0,0.0,0.0,0.0,0.0,0.0,4.2231,4.2421,4.3833,4.387,4.2602,4.4551,4.4765,4.3435,4.4627,4.4767,4.4083,4.3973,0.0,3.7589,3.6486,0.0,0.0,0.0,0.0,0.0,0.0,0.0,0.0,0.0,0.0,0.0,0.0,0.0,0.0,0.0,0.0,0.0,0.0,0.0,0.0,0.0,0.0,4.0667,4.1522,4.2301,4.2785,4.2523,4.0974,4.0079,4.1619,4.2032,4.2546,0.0,0.0,0.0,0.0,0.0,0.0,4.896,4.9283,4.938,4.9513,4.9406,4.8998,4.8216,4.7936,4.7143,4.5611,4.5346,4.4606,4.3205,4.2901,0.0,0.0,0.0,0.0,0.0,0.0,0.0,0.0,0.0,0.0,0.0,0.0,0.0,0.0,0.0,0.0,0.0,0.0,0.0,0.0,0.0,0.0,0.0,0.0,0.0,0.0,0.0,0.0,0.0,3.141,3.2426,3.325,3.4308,3.5098,0.0,0.0,0.0,0.0,0.0,0.0,0.0,0.0,0.0,4.4474,4.4885,4.5532,4.6425,4.7626,4.7875,4.7252,4.8269,4.8129,4.7027,4.7322,4.7199,4.6751,4.6842,4.5719,4.3561,4.0229,3.8614,3.8178,0.0,0.0,0.0,0.0,3.8218,3.9037,3.8941,3.9175,3.9581,3.9428,0.0,0.0,0.0,0.0,0.0,0.0,0.0,4.1214,4.1847,4.2655,4.3494,4.4251,4.5086,4.5681,4.5613,4.4814,4.3974,4.3601,4.3565,4.4064,4.5545,4.5737,0.0,0.0,0.0,4.9249,5.0259,5.1151,5.1592,5.1304,5.1113,5.0554,4.9414,4.9179,4.8592,4.7391,4.6532,4.5701,4.4861,4.4113,4.343,0.0,0.0,0.0,0.0,0.0,0.0,0.0,0.0,0.0,0.0,0.0,0.0,0.0,0.0,0.0,0.0,0.0,0.0,0.0,0.0,0.0,0.0,0.0,0.0,0.0,0.0,0.0,0.0,3.3292,3.4274,3.5048,3.6262,3.7,0.0,0.0,0.0,0.0,0.0,0.0,4.4174,4.5249,4.6379,4.761,4.8107,4.895,5.0138,5.0999,5.1354,5.1229,5.1663,5.1454,5.0674,5.0381,5.0038,4.9704,4.9775,4.9568,4.8835,4.4098,4.1706,4.0916,4.0011,4.0031,4.0456,4.023,4.1107,4.2404,4.2254,4.2652,4.3153,4.2734,4.2464,4.2212,4.1605,0.0,0.0,0.0,0.0,4.4246,4.4931,4.5539,4.6199,4.7017,4.7645,4.8102,4.8351,4.8365,4.7798,4.5922,4.5732,4.6233,4.7309,4.7808,0.0,4.9276,5.0589,5.1542,5.1732,5.2756,5.3292,5.2834,5.2656,5.2147,5.1099,5.0725,5.0184,4.9292,4.8055,4.7017,4.6304,4.5443,4.4765,4.4296,0.0,0.0,0.0,0.0,0.0,0.0,0.0,0.0,0.0,0.0,0.0,0.0,0.0,0.0,0.0,0.0,0.0,0.0,0.0,0.0,0.0,0.0,0.0,0.0,0.0,0.0,0.0,0.0,0.0,3.8196,3.9773,0.0,0.0,0.0,0.0,4.5014,4.5232,4.6044,4.773,4.9325,5.0237,5.031,5.177,5.262,5.2693,5.3559,5.3624,5.2914,5.4561,5.4946,5.4164,5.492,5.4799,5.409,5.409,5.3261,5.1631,4.7916,4.5984,4.5267,4.4352,4.4014,4.3942,4.3178,4.3533,4.4336,4.4224,4.4253,4.4528,4.5239,4.4938,4.4263,4.419,4.4792,0.0,0.0,4.6442,4.7813,4.8451,4.8673,4.8927,4.9691,4.9831,5.0039,5.0923,5.1011,5.0428,4.8731,4.896,4.9418,4.9375,0.0,5.1433,5.1363,5.1992,5.2692,5.3373,5.355,5.3586,5.3564,5.3529,5.348,5.3422,5.2799,5.1967,5.1044,5.0314,4.9132,4.7397,4.7382,4.6764,4.5351,4.5292,0.0,0.0,0.0,0.0,0.0,0.0,0.0,0.0,0.0,0.0,0.0,0.0,0.0,0.0,0.0,0.0,0.0,0.0,0.0,0.0,0.0,0.0,0.0,0.0,0.0,0.0,0.0,0.0,4.1697,4.2661,0.0,4.3971,4.4808,4.583,4.706,4.804,4.9383,5.1167,5.2214,5.3076,5.3741,5.4261,5.4587,5.4751,5.5581,5.5679,5.4991,5.6683,5.7037,5.6272,5.6668,5.6589,5.6166,5.5723,5.5184,5.4566,5.3191,5.0879,4.8148,4.7257,4.6868,4.6715,4.6424,4.6844,4.7511,4.7481,4.7819,4.8251,4.8138,4.7594,4.7084,4.7598,4.8379,4.9133,4.9558,5.0521,5.1448,5.1505,5.1926,5.2379,5.2571,5.2951,5.3401,5.3738,5.3763,5.3572,5.2956,5.2036,5.1477,5.1753,5.2339,5.2827,5.3122,5.3859,5.4456,5.4719,5.5205,5.5334,5.4799,5.4683,5.4416,5.3891,5.3091,5.2493,5.2156,5.0918,4.991,4.9167,4.8745,4.8053,4.7074,4.6542,4.5971,0.0,0.0,0.0,0.0,0.0,0.0,0.0,0.0,0.0,0.0,0.0,0.0,0.0,0.0,0.0,0.0,0.0,0.0,0.0,0.0,0.0,0.0,0.0,0.0,0.0,4.1431,4.2985,4.5204,4.6198,4.6904,4.7464,4.8249,4.9258,5.0456,5.1537,5.2918,5.466,5.5471,5.6212,5.6919,5.7135,5.7327,5.7482,5.8069,5.8167,5.7762,5.8868,5.9149,5.8604,5.8745,5.8704,5.8497,5.8058,5.7701,5.7441,5.7359,5.5545,5.2653,5.1121,5.0421,5.0275,5.0028,5.0421,5.1061,5.1061,5.1381,5.1794,5.1326,5.0738,5.0293,5.077,5.1556,5.2343,5.2796,5.3795,5.4685,5.4501,5.508,5.5668,5.5541,5.5899,5.6353,5.6564,5.6626,5.6687,5.6897,5.5364,5.4026,5.4082,5.4802,5.5364,5.5418,5.6125,5.668,5.6693,5.6895,5.6859,5.6321,5.5955,5.5508,5.4981,5.394,5.3424,5.3596,5.196,5.0875,5.0662,4.9941,4.9244,4.8603,4.8147,4.7438,4.6442,0.0,0.0,0.0,0.0,0.0,0.0,0.0,0.0,0.0,0.0,0.0,0.0,0.0,0.0,0.0,0.0,0.0,0.0,0.0,0.0,0.0,0.0,0.0,4.3827,4.5364,4.7145,4.8808,5.0449,5.1503,5.1686,5.2477,5.3697,5.5407,5.5787,5.6654,5.8227,5.9224,5.9734,5.9734,6.0473,6.0879,6.089,6.1003,6.1096,6.1096,6.1207,6.1261,6.1272,6.1353,6.1342,6.1235,6.1326,6.0895,6.0149,6.0187,5.9801,5.8927,5.5977,5.4831,5.472,5.3954,5.4139,5.4821,5.4784,5.4794,5.4831,5.4841,5.4415,5.3836,5.3765,5.435,5.5067,5.4956,5.6128,5.7433,5.7423,5.811,5.8745,5.8523,5.8469,5.8648,5.9289,5.9451,5.9626,6.0295,5.886,5.723,5.6296,5.7968,5.9136,5.821,5.8723,0.0,5.9226,5.8543,5.8075,5.8039,5.7319,5.6852,5.6839,5.5465,5.4815,5.534,5.3446,5.2126,5.1724,5.1107,5.0449,4.9798,5.0072,4.9407,4.7793,0.0,0.0,0.0,0.0,0.0,0.0,0.0,0.0,0.0,0.0,0.0,0.0,0.0,0.0,0.0,0.0,0.0,0.0,0.0,0.0,0.0,4.6954,4.7919,4.6689,4.7987,5.0166,5.3179,5.414,5.5049,5.6246,5.6662,5.7291,5.8371,5.9039,5.993,6.1021,6.1837,6.2292,6.2336,6.2526,6.2672,6.2817,6.2749,6.2843,6.3022,6.3092,6.3103,6.3103,6.3195,6.2891,6.2289,6.2294,6.1867,6.1147,6.1755,6.1888,6.144,5.8665,5.7586,5.7575,5.7196,5.7206,5.7328,5.6773,5.7042,5.7606,5.7698,5.7709,5.7781,5.8349,5.8754,5.9167,5.969,6.0187,6.0541,6.0381,6.0557,6.0665,6.0433,6.0342,6.0384,6.0533,6.0548,6.0577,6.0663,6.066,6.0274,5.9225,5.9589,5.988,5.9624,5.9705,5.9774,5.9774,5.9658,5.9319,5.8636,5.8456,5.8068,5.7311,5.5777,5.4894,5.4953,5.3433,5.2454,5.2361,5.2327,5.1996,5.1297,5.0914,5.0472,0.0,0.0,0.0,0.0,0.0,0.0,0.0,0.0,0.0,0.0,0.0,0.0,0.0,0.0,0.0,0.0,0.0,0.0,0.0,0.0,0.0,0.0,5.0528,5.1865,5.1938,5.2448,5.3852,5.6628,5.7749,5.8702,5.9695,6.0191,6.078,6.1592,6.2131,6.2817,6.3678,6.4197,6.4505,6.4538,6.4526,6.4547,6.4684,6.4673,6.473,6.49,6.49,6.49,6.49,6.5031,6.4791,6.4252,6.4316,6.4075,6.3653,6.415,6.4368,6.4165,0.0,0.0,0.0,0.0,6.0497,6.0147,5.9779,5.9777,5.996,6.008,6.0227,6.0454,6.0857,6.1074,6.1338,6.208,6.2578,6.2963,6.3183,6.3558,6.3773,6.3599,6.3515,6.3366,6.2886,6.3044,6.3004,6.2213,6.2687,0.0,6.1878,6.147,6.1275,6.1275,6.1201,6.1188,6.1188,6.0933,6.0591,6.0042,5.9737,5.92,5.8239,5.7045,0.0,0.0,0.0,5.3976,5.3986,5.4148,0.0,0.0,0.0,5.289,5.211,5.3153,0.0,0.0,4.9831,4.9831,0.0,0.0,0.0,0.0,0.0,0.0,0.0,0.0,0.0,0.0,0.0,0.0,0.0,0.0,0.0,0.0,5.3818,5.5834,5.8249,5.7937,5.8012,5.9475,6.1112,6.2189,6.2405,6.3154,6.3918,6.4657,6.4913,6.5391,6.6207,6.6339,0.0,0.0,0.0,6.6597,6.6794,6.6822,6.6878,6.6963,6.6889,6.6851,6.6851,6.6994,6.6946,6.6724,6.6877,6.6893,6.6796,6.6818,6.6929,6.6927,6.5026,6.4294,6.4268,6.4182,6.3744,6.3177,6.3198,0.0,0.0,6.2399,6.2504,6.2607,6.2485,6.2523,6.2767,6.3351,6.4095,6.4907,6.5679,6.6491,6.7096,6.695,6.6876,6.6537,6.5532,6.5892,6.5922,6.4271,6.4709,6.5089,6.4255,6.346,6.2904,6.2904,6.2892,6.288,6.288,6.2279,6.1825,6.1703,6.1065,0.0,5.952,5.8802,5.8378,5.833,5.7032,5.6276,5.6317,5.6409,5.6085,5.5273,5.6359,5.6117,5.4447,5.5572,5.569,5.4852,5.4187,5.3981,0.0,0.0,0.0,0.0,0.0,0.0,0.0,0.0,0.0,0.0,0.0,0.0,0.0,0.0,0.0,5.5662,5.7887,6.0043,6.1917,6.2655,6.2828,6.2483,6.3438,6.4409,6.5062,6.5424,6.5689,6.5875,6.6585,6.7399,6.8269,6.8355,6.8952,7.0232,6.905,6.9045,7.0457,6.9752,6.9763,7.0529,6.9855,0.0,6.9567,6.974,6.9397,6.865,6.8967,6.8658,6.7902,6.8075,6.8542,6.8938,6.6881,6.6111,6.6083,6.5378,6.5484,6.5861,6.5385,6.5595,6.6076,6.6267,6.6348,6.6429,6.6411,6.6503,0.0,6.6601,6.6773,6.6897,6.6929,6.7042,6.7155,6.7096,6.695,6.6623,6.5684,6.6057,6.6229,6.5148,6.5585,6.6141,6.6068,6.4718,6.3613,6.3613,6.3522,6.3454,6.3454,6.3397,6.3093,6.2387,6.2278,6.189,6.0986,6.0163,5.9737,5.97,5.901,5.8634,5.8821,5.8784,5.8709,5.8568,5.8819,5.8771,5.8406,5.9359,5.9751,5.9508,5.6533,5.5517,0.0,0.0,0.0,0.0,0.0,0.0,0.0,0.0,0.0,0.0,0.0,5.1747,5.3424,0.0,5.7516,5.9238,6.1283,6.331,6.4999,6.6081,6.6167,6.4742,6.5418,6.6341,6.7217,6.7829,6.8306,6.8717,6.9185,6.9631,7.0091,7.0116,7.049,7.1274,7.0586,7.0641,7.1591,7.119,7.1284,7.1808,7.1405,7.1213,7.124,7.1346,7.1172,7.0815,7.0977,7.076,7.0292,7.0401,7.0469,7.0441,6.9741,6.8991,6.8201,6.7764,6.7623,6.7616,6.7364,6.7297,6.7324,6.7507,6.7578,6.7583,6.7583,6.7647,6.7787,6.8116,6.8212,6.8271,6.8628,6.864,6.8603,6.865,6.8499,6.8146,6.7267,6.762,6.7735,6.6428,6.681,6.7234,6.6921,6.6059,6.5399,6.5218,6.4769,6.4591,6.4935,6.5065,6.4762,6.3952,6.4348,6.3942,6.2245,6.1469,6.1052,6.1052,6.0783,6.0706,6.0841,6.0814,6.0832,6.0949,6.0971,6.0997,6.0997,6.1536,6.1806,6.1768,6.0825,6.0028,0.0,0.0,0.0,0.0,0.0,0.0,0.0,4.8078,4.9391,5.2622,5.4154,5.5528,5.7644,5.9468,6.1089,6.2362,6.4299,6.6072,6.7412,6.863,6.8754,6.7144,6.7501,6.8203,6.9152,6.9792,7.0509,7.1343,7.1441,7.1539,7.1689,7.1528,7.1603,7.1914,7.1857,7.2072,7.2485,7.2445,7.258,7.2826,7.2696,7.2635,7.269,7.272,7.2808,7.2877,7.2745,7.2595,7.2472,7.2472,7.213,7.1654,7.2253,7.1674,7.0411,7.0337,6.9939,6.9407,6.9536,6.9134,6.8598,6.8705,6.8634,6.8544,6.849,6.8405,6.8443,6.9218,6.9429,6.9602,7.027,7.036,7.0238,7.0205,7.0059,6.9702,6.882,6.9181,6.9226,6.7674,6.8012,6.8342,6.7692,6.7494,6.7218,6.679,6.6099,6.5843,6.6459,6.6523,6.6298,6.5635,6.6255,6.5926,6.3956,6.3352,6.3087,6.3087,6.3131,6.3212,6.3262,6.3279,6.3314,6.3441,6.3495,6.3536,6.3519,6.3622,6.3654,6.3692,6.5055,6.4601,4.4064,4.5147,4.6578,4.8247,4.9055,5.0283,0.0,5.4572,5.5597,5.8492,5.9642,6.0484,6.1596,6.3208,6.4454,6.464,6.6803,6.8525,6.8674,7.003,7.0964,7.0741,7.0144,7.0177,7.109,7.0755,7.0829,7.1766,7.1939,7.2332,7.3059,7.2407,7.2671,7.4092,7.3474,7.3835,7.5316,7.4719,7.4745,7.5474,7.4812,7.4513,7.4495,7.4634,7.4634,7.4516,7.3895,7.3326,7.2767,7.2767,7.2691,7.2632,7.2855,7.2864,7.2668,7.2345,7.2224,7.224,7.233,7.238,7.241,7.2419,7.1991,7.1482,7.1373,7.0852,7.0445,7.1183,7.1328,7.1272,7.1269,7.1242,7.108,7.0375,7.0105,6.9766,6.8968,6.9276,6.9434,6.8517,6.893,6.9428,6.9405,6.8859,6.812,6.72,6.6972,6.6934,6.6999,6.7037,6.6999,6.6886,6.7012,6.708,6.6909,6.6904,6.6891,6.6891,6.7008,6.7098,6.7068,6.7144,6.7152,6.7123,6.7169,6.7177,6.7132,6.714,6.7148,6.7148,6.7339,6.6523,4.7911,4.9364,5.0916,5.2458,5.3717,5.5124,5.7294,5.8323,5.9477,6.1741,6.2875,6.3865,6.5236,6.6519,6.7498,6.7904,6.9466,7.0762,7.1182,7.1922,7.265,7.309,7.2462,7.2053,7.23,7.2195,7.2477,7.335,7.3468,7.3652,7.3991,7.3689,7.4061,7.5297,7.5005,7.5458,7.6769,7.6469,7.6521,7.6923,7.6128,7.6026,7.6512,7.5599,7.5199,7.5263,7.4965,7.4719,7.4503,7.4503,7.4197,7.3852,7.4383,7.4309,7.3819,7.3093,7.2924,7.2999,7.3032,7.3073,7.3136,7.3136,7.2915,7.2702,7.2624,7.2387,7.2187,7.2501,7.2231,7.1808,7.1767,7.1298,7.0912,7.1073,7.1044,7.1005,7.1105,7.0948,7.0685,7.0288,7.0052,6.9957,7.0004,6.9737,6.9395,6.898,6.8423,6.8215,6.8612,6.8679,6.8698,6.8764,6.7939,6.7623,6.8206,6.7922,6.7669,6.7669,6.776,6.7825,6.7873,6.7905,6.7928,6.7982,6.8021,6.8021,6.7982,6.7982,6.7982,6.7982,6.8479,6.8326,5.1527,5.3243,5.4918,5.6385,5.8002,5.955,6.0694,6.1723,6.2925,6.4604,6.5672,6.6774,6.8274,6.9325,7.0098,7.0571,7.156,7.2445,7.2921,7.3366,7.384,7.4433,7.4024,7.3603,7.3428,7.3571,7.4056,7.487,7.4946,7.4957,7.4999,7.4999,7.5317,7.6011,7.6503,7.7117,7.7888,7.7948,7.8017,7.8085,7.7274,7.7207,7.7853,7.6622,7.6159,7.6288,7.6314,7.6249,7.6046,7.6046,7.5577,7.4887,7.5462,7.5363,7.4796,7.4135,7.3867,7.3898,7.3898,7.3906,7.3921,7.3906,7.3768,7.3614,7.3592,7.343,7.3277,7.3507,7.3147,7.2702,7.2702,7.2157,7.1688,7.2079,7.213,7.224,7.2792,7.2198,7.1556,7.1448,7.0774,7.0194,7.022,7.0246,7.0272,7.0298,6.9739,6.9462,6.9852,6.9928,6.9983,7.0109,6.9069,6.8617,6.9349,6.8919,6.8615,6.8615,6.864,6.8702,6.8747,6.877,6.8799,6.8874,6.8896,6.8911,6.8911,6.8889,6.8889,6.8949,6.9517,6.9771,5.4267,5.6246,5.8184,5.9996,6.1807,6.3412,6.441,6.5365,6.6404,6.76,6.8538,6.9429,7.0516,7.1415,7.2019,7.2056,7.2708,7.3274,7.3274,7.3991,7.4471,7.4509,7.4579,7.4653,7.4643,7.4653,7.5036,7.5973,7.6049,7.61,7.625,7.626,7.6272,7.6379,7.7978,7.8815,7.8863,7.9066,7.9159,7.9169,7.8418,7.807,7.8079,7.8041,7.8002,7.8011,7.8143,7.7725,7.6974,7.6974,7.6467,7.5654,7.5692,7.574,7.5849,7.5841,7.5718,7.5616,7.5616,7.571,7.5795,7.5678,7.5188,7.4647,7.4573,7.3974,7.3468,7.432,7.449,7.4427,7.4427,7.4381,7.4151,7.3353,7.3107,7.3043,7.3081,7.2321,7.1612,7.1573,7.0856,7.0211,7.0298,7.0353,7.0435,7.0477,7.0563,7.0539,7.0229,7.0255,7.0336,7.0461,7.0447,7.0486,7.0616,7.0623,7.0631,7.0631,7.0593,7.0631,7.0638,7.0666,7.0674,7.0638,7.0674,7.071,7.071,7.0676,7.0676,7.071,7.0748,7.0712,5.7362,5.9585,6.2051,6.4456,6.597,6.7186,6.8279,6.8743,6.9142,6.9734,6.9687,6.9985,7.1453,7.2054,7.2425,7.291,7.3756,7.4344,7.4233,7.455,7.4764,7.4846,7.4887,7.4937,7.5007,7.5489,7.5906,7.6282,7.6824,7.7245,7.7417,7.7293,7.757,7.8236,7.8809,7.9409,8.0009,8.0184,8.0246,8.0246,8.0004,7.9293,7.8258,7.8795,7.8752,7.8311,7.8343,7.8269,7.8061,7.8008,7.7516,7.6861,7.7385,7.6916,7.6047,7.6631,7.6417,7.5894,7.5894,7.5917,7.597,7.591,7.574,7.5546,7.5524,7.5324,7.517,7.544,7.511,7.4626,7.4626,7.4242,7.3881,7.4067,7.4113,7.4075,7.4058,7.3764,7.3341,7.2767,7.2406,7.2207,7.2231,7.2255,7.2287,7.2272,7.1383,7.0678,7.0561,7.0531,7.057,7.0624,7.0632,7.0662,7.0743,7.0801,7.0829,7.0829,7.0919,7.0946,7.0898,7.0965,7.0992,7.0965,7.0992,7.0998,7.0998,7.0979,7.0979,7.0998,7.0998,7.0965,6.0565,6.2838,6.5231,6.7302,6.8735,6.9832,7.0676,7.0855,7.0868,7.088,7.0758,7.0903,7.1737,7.2205,7.2746,7.3474,7.416,7.4779,7.5289,7.5443,7.5626,7.596,7.5979,7.6017,7.6075,7.6826,7.7178,7.6903,7.7713,7.839,7.8863,7.879,7.9019,7.9682,7.9988,8.0339,8.0667,8.0792,8.0843,8.0843,8.0843,8.0251,7.922,7.9761,7.9725,7.9321,7.9353,7.9246,7.9057,7.8976,7.8529,7.7862,7.8322,7.783,7.6938,7.7522,7.7169,7.6399,7.6092,7.6015,7.6015,7.6015,7.6015,7.6015,7.6015,7.6015,7.6015,7.6015,7.5592,7.5168,7.5168,7.4776,7.4507,7.5031,7.5117,7.5087,7.5065,7.4804,7.4397,7.3791,7.3469,7.3246,7.3254,7.3299,7.3344,7.3373,7.2458,7.1737,7.165,7.1664,7.1694,7.1723,7.1751,7.1794,7.1835,7.1883,7.1903,7.1903,7.1988,7.2013,7.1975,7.1698,7.1569,7.1569,7.1254,7.1112,7.1136,7.1112,7.1112,7.1136,7.1136,7.1106,6.3837,6.5976,6.7746,6.8672,7.017,7.1444,7.1734,7.1753,7.16,7.1181,7.1747,7.2082,7.1456,7.208,7.2982,7.3781,7.4045,7.4718,7.6415,7.6673,7.6969,7.7703,7.778,0.0,0.0,0.0,7.8866,7.8027,7.8742,7.9658,8.061,8.0639,8.0676,8.0738,8.1542,8.1663,8.0954,8.1,8.105,8.105,8.105,8.097,8.0886,8.0932,8.0934,8.0934,8.1061,8.0677,7.9967,7.9892,7.9407,7.8672,7.863,7.86,7.8523,7.8561,7.8061,7.7253,7.6399,7.6092,7.6053,7.6137,7.6137,7.6137,7.6106,7.6068,7.6068,7.6029,7.6029,7.6029,7.6029,7.6029,7.6044,7.6083,7.6041,7.6012,7.6045,7.5355,7.4745,7.4626,7.4024,7.3507,7.3466,7.3612,7.3735,7.3806,7.3819,7.3703,7.3366,7.337,7.3441,7.3586,7.3659,7.3703,7.3703,7.371,7.371,7.371,7.371,7.371,7.371,7.2861,7.2398,7.2398,7.1542,7.1142,7.1213,7.1142,7.1148,7.1213,7.1213,7.1172,6.7012,6.8825,7.0517,7.1507,7.2217,7.2699,7.2843,7.2461,7.2068,7.2119,7.1435,7.1008,7.1515,7.2372,7.3272,7.4083,7.5224,7.6382,7.7508,7.7651,7.7755,7.7988,0.0,7.8056,7.8117,7.9492,8.0302,8.014,8.0751,8.1611,8.2762,8.2618,8.2573,8.2749,8.2979,8.2988,8.2821,8.2874,8.2915,8.2915,8.2915,8.2553,8.1914,8.1938,8.1638,8.1061,8.1085,8.1023,8.086,8.0816,8.0292,7.9627,8.02,7.9638,7.86,7.9246,7.8938,7.8176,7.7946,7.7484,7.7068,7.7742,7.7957,7.781,7.7295,7.7116,7.6962,7.6338,7.6138,7.6138,7.6138,7.6138,7.6145,7.6165,7.6152,7.5991,7.5323,7.5542,7.5637,7.493,7.5168,7.5483,7.5463,7.549,7.5561,7.5575,7.5543,7.5099,7.378,7.3594,7.3652,7.3671,7.3691,7.3722,7.3765,7.3772,7.3772,7.3772,7.3814,7.3819,7.3772,7.3002,7.2561,7.2561,7.1672,7.1258,7.1275,7.1258,7.1258,7.1275,7.1275,7.1241,6.9249,7.0423,7.1459,7.2075,7.2349,7.2454,7.224,7.2178,7.1943,7.1067,7.0906,7.0849,7.0632,7.2016,7.3436,7.424,7.5811,7.745,7.9058,7.925,7.9582,8.0371,8.0413,8.0404,8.0494,8.1338,8.2063,8.2531,8.2556,8.3016,8.4028,8.393,8.3895,8.3999,8.4046,8.3871,8.3566,8.3577,8.3601,8.3601,8.3601,8.3332,8.2862,8.2862,8.2401,8.1631,8.1631,8.1447,8.1207,8.1124,8.0831,8.0513,8.0969,8.0531,7.9768,8.026,7.9928,7.9196,7.9589,7.9174,7.8459,7.8587,7.863,7.8549,7.7742,7.7485,7.7324,7.6397,7.6152,7.6145,7.6111,7.6125,7.6159,7.6185,7.6218,7.6128,7.5633,7.5922,7.6134,7.5638,7.5897,7.6225,7.6313,7.6307,7.6295,7.6326,7.6356,7.6014,7.5068,7.4898,7.4822,7.4822,7.4853,7.4884,7.4952,7.4958,7.497,7.4993,7.4679,7.4658,7.5,7.3867,7.3214,7.3192,7.2341,7.1711,7.1297,7.1297,7.1297,7.1297,7.1297,7.1275,7.0685,7.1118,7.1371,7.1488,7.1527,7.141,7.0921,7.1292,7.1216,6.9377,7.0243,7.0962,6.9633,7.139,7.3415,7.452,7.6048,7.8023,8.0712,8.1096,8.1673,8.3333,8.3427,8.3337,8.3337,8.3452,8.3862,8.4669,8.4178,8.414,8.4861,8.4891,8.4891,8.4916,8.4916,8.4621,8.3979,8.3979,8.3971,8.3963,8.3971,8.3886,8.3755,8.3763,8.3309,8.2493,8.2339,8.1963,8.1376,8.1177,8.1154,8.1229,8.1214,8.1222,8.1236,8.1263,8.0821,8.0281,8.1053,8.0786,7.9972,7.9208,7.9058,7.8951,7.8007,7.7704,7.7498,7.6428,7.6138,7.6125,7.6055,7.6083,7.6138,7.6198,7.6257,7.6307,7.6313,7.6374,7.6426,7.6438,7.6344,7.6319,7.6483,7.6472,7.6455,7.6494,7.6542,7.6596,7.6505,7.6409,7.6344,7.6344,7.6392,7.6388,7.6272,7.6349,7.6366,7.6184,7.5686,7.563,7.6224,7.479,7.3994,7.3987,7.3057,7.2184,7.1512,7.1501,7.1424,7.1308,7.1413,7.1413,7.0968,7.1359,7.1488,7.1614,7.1211,7.0804,7.078,6.9982,6.9351,6.9856,6.9848,6.9834,7.0294,7.1429,7.3045,7.5303,7.6479,7.8277,8.16,8.2069,8.2462,8.3462,8.3569,8.3561,8.3561,8.4206,8.4706,8.4838,8.5338,8.5722,8.5838,8.5809,8.5843,8.5944,8.5952,8.5915,8.5915,8.5922,8.5845,8.5745,8.5845,8.546,8.467,8.4742,8.4281,8.3426,8.2694,8.2354,8.2304,8.1499,8.1236,8.1263,8.1236,8.1212,8.127,8.1284,8.1207,8.1091,8.1253,8.1242,8.1129,8.0974,8.0908,8.0579,7.9153,7.8727,7.8411,7.6781,7.635,7.635,7.6338,7.6301,7.6269,7.6282,7.6295,7.6319,7.6374,7.6472,7.6558,7.657,7.656,7.6555,7.6585,7.658,7.6565,7.6563,7.6607,7.6607,7.6596,7.6542,7.657,7.657,7.6581,7.6271,7.5534,7.6154,7.5966,7.4503,7.5627,7.5788,7.4518,7.4169,7.4009,7.3999,7.2488,7.1984,7.2555,7.2471,7.2096,7.1399,7.2048,7.2015,7.1235,7.1142,7.0923,7.1047,7.0148,6.9181,6.8932,6.8337,6.7788,6.7569,6.8433,6.926,6.9183,7.1084,7.3238,7.4935,7.6294,7.8323,8.1816,8.2285,8.2939,8.467,8.4901,8.4901,8.4901,8.5286,8.5533,8.5581,8.5887,8.6094,8.6094,8.6102,8.6143,8.6184,8.6269,8.6346,8.6384,8.6384,8.6361,8.6293,8.6361,8.6146,8.5691,8.573,8.5244,8.4396,8.3509,8.2914,8.2519,8.1634,8.1256,8.1284,8.1291,8.1312,8.1347,8.1387,8.14,8.14,8.14,8.14,8.14,8.144,8.1427,8.1182,7.997,7.9608,7.937,7.8057,7.7355,7.704,7.697,7.668,7.6344,7.6313,7.6332,7.638,7.6477,7.651,7.6553,7.6599,7.6618,7.6632,7.6682,7.6691,7.6673,7.6662,7.6676,7.6685,7.6657,7.6676,7.6676,7.6623,7.6638,7.6497,7.607,7.6419,7.6123,7.4865,7.5568,7.5655,7.4865,7.4831,7.4611,7.4095,7.3319,7.2632,7.2115,7.2085,7.1843,7.1455,7.1856,7.1817,7.0906,7.0514,7.0061,7.0217,6.9021,6.7608,6.6991,6.6777,6.6369,6.5221,6.6949,6.8523,6.8217,7.0447,7.2763,7.4067,7.5565,7.7754,8.1253,8.2046,8.3178,8.558,8.5986,8.6102,8.6118,8.6118,8.6151,8.6184,8.6175,8.6143,8.6118,8.6207,8.6262,8.6239,8.6376,8.6414,8.6428,8.6428,8.6421,8.6406,8.6421,8.6414,8.6384,8.6399,8.6059,8.5364,8.4477,8.3758,8.3116,8.2035,8.161,8.1617,8.1471,8.1427,8.1453,8.1504,8.1528,8.1541,8.1541,8.151,8.1472,8.151,8.1387,8.1053,8.0221,7.9795,7.948,7.8618,7.7878,7.7337,7.7286,7.6852,7.6409,7.6356,7.6392,7.6472,7.6612,7.6563,7.6568,7.6628,7.6655,7.6687,7.6797,7.6813,7.6805,7.676,7.6785,7.6793,7.6756,7.6793,7.6793,7.6687,7.67,7.6674,7.648,7.6635,7.6224,7.5051,7.5327,7.5304,7.4792,7.4948,7.4681,7.3945,7.3747,7.3048,7.1794,7.1794,7.1712,7.1547,7.1702,7.1702,6.9173,6.9166,6.9184,6.9423,6.8234,6.6844,6.6229,6.5594,6.5087,6.501,6.5947,6.7213,6.87,6.9317,7.0361,7.2829,7.4097,7.594,7.9444,8.1284,8.3009,8.4897,8.5681,8.6126,8.6168,8.6176,8.6176,8.6192,8.6323,8.6331,8.6215,8.6293,8.6406,8.6479,8.6486,8.6521,8.6583,8.6583,8.6556,8.6493,8.6556,8.6514,8.6384,8.6457,8.6454,8.6338,8.545,8.506,8.4927,8.3302,8.2651,8.2574,8.18,8.1528,8.1589,8.1595,8.1629,8.168,8.168,8.1674,8.1663,8.1612,8.0974,8.0106,7.9358,7.8564,7.7751,7.6894,7.6626,7.6582,7.6577,7.6549,7.6477,7.6472,7.6515,7.6617,7.6677,7.6676,7.6717,7.6773,7.6813,7.6882,7.689,7.6876,7.6887,7.689,7.6886,7.689,7.6886,7.6876,7.6894,7.6887,7.6862,7.6571,7.5754,7.6416,7.5836,7.3384,7.4711,7.4516,7.2143,7.2808,7.3218,7.3095,7.2318,7.2213,7.2785,7.2785,7.2375,7.1598,7.2335,7.2296,6.8831,6.9181,6.9166,6.8833,6.7467,6.5988,6.5304,6.4161,6.3392,6.3973,6.4905,6.5998,6.7228,6.8329,6.9565,7.1296,7.2721,7.4637,7.7659,7.9119,8.0943,8.3761,8.4352,8.4975,8.6019,8.6199,8.6246,8.6293,8.645,8.6486,8.6375,8.6443,8.6472,8.65,8.6542,8.6576,8.6603,8.6603,8.659,8.6569,8.6094,8.5862,8.5771,8.5262,8.5062,8.5055,8.4127,8.3811,8.382,8.2589,8.2092,8.2088,8.1773,8.1635,8.1658,8.1658,8.1674,8.1696,8.1696,8.1696,8.1613,8.1043,8.0239,7.9549,7.9685,7.9492,7.9028,7.8216,7.7614,7.7206,7.7206,7.6825,7.6455,7.6521,7.657,7.6586,7.6677,7.671,7.6717,7.6852,7.6864,7.6836,7.688,7.6883,7.6905,7.6864,7.6879,7.6897,7.6897,7.6887,7.6914,7.6975,7.6969,7.6803,7.6453,7.6764,7.6297,7.47,7.5752,7.5752,7.4155,7.4934,7.5155,7.4576,7.3755,7.3183,7.2959,7.2411,7.1964,7.1611,7.1922,7.1922,6.8082,6.8532,6.8456,6.7987,6.6573,6.5112,6.4426,6.3152,6.2358,6.296,6.3877,6.4934,6.6138,6.7334,6.857,6.994,7.1347,7.3161,7.5836,7.7218,7.9125,8.2389,8.2756,8.3511,8.558,8.6061,8.6293,8.6414,8.6535,8.6583,8.6535,8.6535,8.6535,8.6535,8.6583,8.6603,8.6603,8.6603,8.6603,8.661,8.6055,8.5777,8.5738,8.5182,8.4785,8.4549,8.3885,8.351,8.3275,8.2367,8.2023,8.2045,8.1829,8.1718,8.1723,8.1739,8.1745,8.1745,8.1765,8.16,8.1274,8.0632,8.0008,7.9487,7.9495,7.9465,7.9337,7.8757,7.8189,7.7781,7.8036,7.7307,7.6593,7.7211,7.693,7.6614,7.6982,7.689,7.6729,7.6801,7.6805,7.6813,7.6866,7.6873,7.6897,7.6856,7.6897,7.6922,7.6897,7.6887,7.6914,7.6969,7.6978,7.6987,7.6996,7.6999,7.6649,7.5752,7.6298,7.622,7.5363,7.5908,7.5816,7.4889,7.4577,7.3805,7.2598,7.2255,7.1925,7.1602,7.1614,7.1614,6.6522,6.6737,6.6695,6.6886,6.5647,6.4236,6.3587,6.282,6.226,6.2133,6.29,6.4156,6.5968,6.6327,6.6945,6.8888,6.9892,7.1339,7.4068,7.592,7.8036,8.0777,8.1021,8.1998,8.4743,8.583,8.6414,8.65,8.6569,8.6603,8.6603,8.6603,8.6603,8.6603,8.6603,8.6603,8.6603,8.6603,8.6603,8.661,8.6642,8.6674,8.668,8.6735,8.6299,8.5491,8.5491,8.4981,8.4134,8.3335,8.2981,8.2898,8.2104,8.1814,8.1786,8.1796,8.1854,8.1897,8.1908,8.1346,8.0597,8.051,8.0454,8.0085,7.8358,7.7798,7.7719,7.7719,7.7754,7.8004,7.8873,7.7847,7.7038,7.8695,7.7809,7.686,7.7686,7.7273,7.671,7.6717,7.676,7.6793,7.6793,7.6858,7.6894,7.6901,7.6956,7.6975,7.6905,7.6887,7.6894,7.6901,7.6887,7.6923,7.6996,7.6999,7.6649,7.5752,7.5713,7.5324,7.4466,7.4427,7.4023,7.3139,7.3954,7.3493,7.1738,7.2557,7.2496,7.1602,7.168,7.1676,6.4397,6.4974,6.4943,6.4595,6.351,6.2389,6.1713,6.0894,6.0575,6.1779,6.2304,6.3156,6.502,6.5751,6.6581,6.7989,6.9828,7.1638,7.3233,7.5387,7.759,7.9672,8.2028,8.4113,8.5668,8.6184,8.6414,8.65,8.6569,8.6603,8.6603,8.6603,8.6603,8.6603,8.6603,8.6603,8.6603,8.6603,8.6603,8.661,8.6055,8.584,8.5849,8.5291,8.4915,8.4751,8.4638,8.4527,8.4285,8.3412,8.3063,8.2975,8.2174,8.1858,8.1873,8.1888,8.1892,8.1819,8.1212,8.0795,8.0325,7.9102,7.8713,7.8468,7.7279,7.7682,7.8344,7.7185,7.6925,7.7023,7.7312,7.7443,7.7482,7.7404,7.7457,7.7408,7.7147,7.689,7.6719,7.6756,7.6756,7.6756,7.6789,7.6789,7.6742,7.6768,7.6817,7.6844,7.6817,7.689,7.6908,7.6897,7.6905,7.6926,7.692,7.6984,7.6882,7.661,7.661,7.6454,7.6181,7.6181,7.6058,7.5777,7.5465,7.4967,7.4346,7.3462,7.2549,7.168,7.1696,7.1692,6.1188,6.212,6.2118,6.1826,6.096,6.0179,6.0163,5.9261,5.8971,6.1056,6.1298,6.182,6.3893,6.4725,6.5657,6.7487,6.901,7.0721,7.2733,7.4618,7.6752,7.9225,8.2621,8.4898,8.5204,8.5907,8.6323,8.6375,8.6785,8.7033,8.7033,8.7092,8.7106,8.7106,8.6758,8.6603,8.6603,8.6603,8.6603,8.661,8.6133,8.593,8.5956,8.5436,8.5113,8.4879,8.4813,8.4629,0.0,8.3796,8.3408,8.3063,8.2551,8.2153,8.1897,8.1916,8.1911,8.1781,8.0901,8.0373,7.9791,7.8389,7.7734,7.7374,7.7118,7.7755,7.8373,7.7639,7.7262,7.716,7.7467,7.7492,7.7424,7.7516,7.7467,7.7356,7.7191,7.6929,7.6719,7.6752,7.6743,7.6691,7.676,7.6756,7.6743,7.6687,7.6777,7.6805,7.6773,7.6805,7.6867,7.6809,7.6864,7.6844,7.6866,7.69,7.6962,7.6962,7.6972,7.6978,7.6978,7.699,7.6843,7.6532,7.6298,7.5836,7.5104,7.3985,7.2983,7.2143,7.2493,7.2298,0.0,5.8273,5.8483,5.8748,5.8196,5.7861,5.8869,5.7949,0.0,5.991,5.9954,6.0324,6.2756,6.3358,6.4381,6.7136,6.7702,6.8989,7.241,7.398,7.6019,7.9459,8.2844,8.4585,8.3755,8.5251,8.6308,8.6308,8.727,8.7859,8.7821,8.7884,8.7879,8.7802,8.7028,8.6603,8.6603,8.6603,8.6603,8.661,8.6675,8.6743,8.6809,8.6866,8.6498,8.5777,8.5777,8.5311,8.4573,8.4456,8.3917,8.3179,8.3063,8.2558,8.1897,8.1904,8.189,8.1781,8.0815,7.9986,7.9134,7.8275,7.7389,7.6837,7.7636,7.7816,7.7882,7.8635,7.8369,7.7985,7.876,7.7836,7.7084,7.8577,7.7787,7.6895,7.7666,7.7239,7.6715,7.6712,7.6682,7.6682,7.6682,7.676,7.6773,7.673,7.6797,7.686,7.6734,7.676,7.6773,7.6726,7.676,7.6789,7.6789,7.6871,7.6897,7.6897,7.6887,7.6904,7.6907,7.6975,7.6604,7.5788,7.6523,7.6024,7.4283,7.4168,7.3661,7.2841,7.3661,7.3156,5.2191,0.0,5.5983,5.6823,5.6734,5.66,0.0,5.6865,5.693,5.8334,5.8962,5.9928,6.2003,6.2861,6.401,6.6263,6.763,6.9203,7.1591,7.5553,7.9084,8.1341,8.3486,8.4711,8.4585,8.6167,8.721,8.7272,8.8188,8.8453,8.7891,8.7873,8.757,8.6912,8.6719,8.6603,8.6603,8.6603,8.6603,8.6603,8.6623,8.6694,8.6803,8.682,8.6771,8.6676,8.6676,8.6598,8.6287,8.5,8.4334,8.3956,8.2672,8.208,8.1892,8.1906,8.1902,8.1664,8.0158,7.9431,7.9078,7.8224,7.7332,7.6792,7.7632,7.7408,7.6917,7.7152,7.7135,7.711,7.7365,7.7564,7.77,7.7458,7.7568,7.7523,7.7096,7.6824,7.6708,7.6682,7.6682,7.6682,7.6682,7.6691,7.6734,7.6682,7.6743,7.6747,7.6687,7.6691,7.6734,7.6682,7.6691,7.6739,7.6739,7.6813,7.6897,7.6897,7.6905,7.688,7.6907,7.6929,7.6816,7.6609,7.6126,7.5311,7.4207,7.3601,7.2812,7.1995,7.219,7.2073,5.0372,5.2038,5.3723,5.4397,5.4776,5.5174,5.5856,5.5622,5.5799,5.7623,5.8025,5.884,6.1488,6.2692,6.4049,6.6348,6.786,6.9845,7.2992,7.6892,8.0285,8.2531,8.3964,8.4959,8.5393,8.6321,8.6932,8.694,8.7864,8.8299,8.787,8.7866,8.7686,8.7222,8.6796,8.6603,8.6603,8.6603,8.6603,8.6603,8.6177,8.6062,8.6183,8.5801,8.5674,8.5816,8.5816,8.5816,8.5743,8.4835,8.4208,8.3723,8.2814,8.2227,8.1892,8.1892,8.1892,8.1698,8.0377,7.9625,7.9175,7.8709,7.7952,7.7312,7.7802,7.7345,7.6685,7.6712,7.6773,7.6867,7.6851,7.7216,7.7414,7.6953,7.7171,7.7354,7.6906,7.6768,7.676,7.6785,7.6752,7.673,7.6752,7.6756,7.6747,7.6687,7.6739,7.6747,7.6687,7.6682,7.6682,7.6682,7.6682,7.6682,7.6682,7.6768,7.6797,7.6797,7.6856,7.6836,7.6855,7.6897,7.671,7.6299,7.5385,7.4655,7.4192,7.3745,7.3111,7.2252,7.2252,7.2022,5.0074,5.1301,5.2263,5.2496,5.3203,5.4069,5.4848,5.4485,5.4653,5.7033,5.7192,5.7847,6.1027,6.2664,6.4369,6.6844,6.8608,7.109,7.5175,7.8118,8.0711,8.3039,8.4335,8.5308,8.5854,8.6197,8.6369,8.6393,8.7378,8.7922,8.7835,8.7884,8.7841,8.7725,8.699,8.6603,8.6603,8.6603,8.6603,8.6603,8.5842,8.5571,8.5684,8.4804,8.4476,8.4568,8.4452,8.4413,8.4374,8.4262,8.3757,8.3102,8.2946,8.2514,8.1892,8.1892,8.1892,8.1776,8.0887,7.9959,7.9148,7.9273,7.8647,7.7866,7.8146,7.755,7.6875,7.7075,7.7003,7.6897,7.6828,7.6866,7.689,7.6828,7.6858,7.689,7.6901,7.6867,7.6813,7.6882,7.6789,7.6743,7.6777,7.6781,7.6768,7.673,7.6756,7.6768,7.6726,7.6682,7.6682,7.6682,7.6682,7.6682,7.6682,7.6682,7.6682,7.6682,7.676,7.6781,7.6781,7.6864,7.6532,7.5786,7.4744,7.418,7.418,7.3949,7.3424,7.2681,7.2681,7.2297,4.9621,5.1434,5.3181,5.3175,5.3944,5.4546,5.3923,5.3819,5.4157,5.5237,5.662,5.8287,6.0473,6.273,6.4917,6.7032,7.06,7.3931,7.6206,7.941,8.1746,8.2331,8.4438,8.5625,8.5124,8.6371,8.7253,8.7395,8.8236,8.8465,8.7898,8.7873,8.757,8.6835,8.668,8.6603,8.6603,8.6603,8.6603,8.661,8.6513,8.6544,8.6576,8.5774,8.5445,8.5467,8.4728,8.4413,8.4335,8.3602,8.3218,8.3024,8.2359,8.2009,8.1892,8.1892,8.1892,8.1781,8.0889,7.958,7.8426,7.9124,7.8295,7.7256,7.8735,7.8128,7.7205,7.8674,7.8023,7.6904,7.6969,7.6923,7.6904,7.6894,7.6876,7.6901,7.6897,7.689,7.6879,7.6809,7.6793,7.6773,7.6739,7.6734,7.6691,7.6682,7.673,7.6691,7.6682,7.6682,7.6682,7.6682,7.6682,7.6682,7.6682,7.6682,7.6682,7.6682,7.673,7.6734,7.6734,7.6777,7.6746,7.651,7.499,7.4213,7.4213,7.2728,7.1908,7.1792,7.1792,7.1714,5.0669,5.2501,5.4084,5.4074,5.4906,5.5614,5.5157,5.5534,5.62,5.7136,5.8362,6.0041,6.2382,6.4558,6.7117,7.0485,7.3457,7.5834,7.7244,7.9683,8.1704,8.2762,8.4395,8.5428,8.5547,8.6289,8.6777,8.6855,8.7325,8.7483,8.7167,8.7163,8.699,8.6603,8.6603,8.6603,8.6603,8.6603,8.6603,8.6603,8.6139,8.6015,8.6072,8.5247,8.4653,8.4262,8.3874,8.3446,8.3019,8.2631,8.2436,8.2398,8.2048,8.1892,8.1897,8.1881,8.1895,8.1856,8.145,8.0499,7.9621,8.0491,7.9282,7.773,7.8995,7.824,7.706,7.7874,7.7897,7.7754,7.8222,7.7975,7.7611,7.7611,7.7234,7.6908,7.6946,7.6908,7.6867,7.6851,7.6805,7.6756,7.676,7.676,7.6752,7.6726,7.6743,7.6752,7.6687,7.6682,7.6682,7.6682,7.6682,7.6682,7.6682,7.6682,7.6682,7.6682,7.6682,7.6682,7.6682,7.632,7.6087,7.6065,7.4356,7.3497,7.3497,7.2219,7.1602,7.1602,7.1602,7.1602,5.1782,5.3541,5.4979,5.5067,5.5852,5.6652,5.6633,5.7244,5.8193,5.9553,6.0548,6.2043,6.4728,6.7259,7.0115,7.3832,7.6166,7.7804,7.8632,8.0443,8.2216,8.3615,8.4604,8.5415,8.6047,8.6151,8.6215,8.6254,8.6406,8.6493,8.6528,8.6576,8.6603,8.6603,8.6603,8.6603,8.6603,8.6603,8.6494,8.63,8.5849,8.55,8.518,8.4538,8.3817,8.3082,8.2888,8.2451,8.1859,8.1869,8.1869,8.1859,8.1883,8.1902,8.1911,8.1899,8.1921,8.1899,8.1899,8.1384,8.0824,8.142,8.0172,7.8563,7.9462,7.854,7.7279,7.7676,7.8059,7.8384,7.879,7.8394,7.7887,7.7887,7.7403,7.6936,7.6987,7.6936,7.6847,7.6887,7.6976,7.7032,7.7084,7.7088,7.7075,7.7002,7.6868,7.6764,7.6726,7.6682,7.6682,7.6682,7.6682,7.6682,7.6682,7.6682,7.6682,7.6682,7.6682,7.6682,7.6682,7.6104,7.5793,7.5793,7.4084,7.3186,7.3186,7.2103,7.1602,7.1602,7.161,7.1614,5.2173,5.3998,5.587,5.6139,5.6793,5.7377,5.7258,5.7518,5.8453,6.0848,6.2237,6.3813,6.6513,7.0535,7.3865,7.5169,7.8108,8.0312,8.0566,8.2748,8.4403,8.4605,8.539,8.5962,8.6085,8.6094,8.6167,8.6361,8.6384,8.645,8.659,8.6603,8.6603,8.6603,8.6603,8.6603,8.6603,8.6603,8.6177,8.541,8.621,8.5775,8.4294,8.431,8.3871,8.3061,8.2246,8.1833,8.1713,8.1765,8.1755,8.1718,8.1859,8.1881,8.1913,8.1916,8.1956,8.1983,8.1983,8.1466,8.0798,8.0868,8.0185,7.9469,8.0433,7.9423,7.8373,8.0047,7.9409,7.8046,7.73,7.7024,7.6985,7.6985,7.7008,7.6993,7.6996,7.6993,7.6972,7.6912,7.7513,7.7984,7.7909,7.7896,7.7896,7.7891,7.7231,7.6726,7.6682,7.6682,7.6682,7.6682,7.6682,7.6682,7.6682,7.6682,7.6682,7.6682,7.6682,7.6682,7.6682,7.6644,7.6605,7.6605,7.4977,7.4123,7.4084,7.2413,7.1602,7.1602,7.168,7.1696,5.2739,5.4923,5.6928,5.7106,5.8661,6.0095,6.0038,6.105,6.2418,6.3982,6.5512,6.741,7.0172,7.3381,7.611,7.7673,7.9851,8.1636,8.2357,8.3726,8.4712,8.4796,8.5544,8.606,8.6085,8.6143,8.6207,8.6269,8.6406,8.6486,8.6542,8.6583,8.6603,8.6603,8.6603,8.6603,8.6603,8.6061,8.5372,8.4559,8.5436,8.5544,8.4987,8.4465,8.3801,8.309,8.2709,8.2217,8.1702,8.1755,8.1745,8.1702,8.1819,8.1878,8.1881,8.1895,8.1921,8.1951,8.1951,8.145,8.0872,8.133,8.0544,7.9586,8.045,7.9485,7.8252,7.8993,7.8338,7.7584,7.8309,7.8118,7.7735,7.7754,7.7738,7.7572,7.7107,7.7378,7.7524,7.7014,7.7085,7.7386,7.7896,7.7541,7.7386,7.793,7.7265,7.6682,7.6682,7.6682,7.6682,7.6682,7.6682,7.6682,7.6682,7.6682,7.6682,7.6682,7.6682,7.6682,7.6682,7.6682,7.6682,7.6682,7.5599,7.4994,7.5019,7.3309,7.2469,7.2453,7.1923,7.1697,5.3884,5.569,5.7317,5.8308,6.0364,6.23,6.2838,6.399,6.5369,6.6891,6.8886,7.0988,7.3195,7.5497,7.7687,7.953,8.1268,8.2765,8.3802,8.4618,8.5181,8.5277,8.6017,8.6401,8.6132,8.6382,8.6469,8.6223,8.6353,8.6486,8.6535,8.6332,8.6365,8.6604,8.6365,8.6204,8.6177,8.5623,8.494,8.4088,8.4417,8.4478,8.4289,8.395,8.3397,8.2681,8.2621,8.2245,8.1674,8.175,8.1804,8.1789,8.1809,8.1859,8.192,8.1895,8.1921,8.1904,8.158,8.1349,8.1162,8.1134,8.0702,8.026,8.0551,7.9636,7.85,7.8528,7.775,7.7159,7.8366,7.8221,7.7799,7.7858,7.7789,7.7573,7.7089,7.7347,7.7564,7.7007,7.703,7.7326,7.7891,7.7503,7.7304,7.7891,7.7265,7.6682,7.6682,7.6682,7.6682,7.6682,7.6682,7.6682,7.6682,7.6682,7.6682,7.6682,7.6682,7.6682,7.6682,7.6682,7.6682,7.6682,7.591,7.55,7.549,7.4067,7.3387,7.3374,7.2815,7.2552,5.5731,5.6206,5.681,5.9698,6.1795,6.3593,6.5356,6.5803,6.6617,6.9351,7.2166,7.4375,7.5167,7.6856,7.8688,8.0507,8.2335,8.3849,8.4769,8.5593,8.6094,8.6094,8.6863,8.7055,8.617,8.6863,8.7058,8.6261,8.6339,8.645,8.6596,8.5855,8.5822,8.6674,8.5854,8.5358,8.5294,8.5358,8.4964,8.4079,8.3369,8.2544,8.1735,8.2603,8.252,8.1696,8.1755,8.1713,8.1618,8.1734,8.1849,8.1888,8.1839,8.1839,8.1917,8.1911,8.1951,8.1867,8.0927,8.1212,8.1711,7.9998,8.0526,8.1718,8.0857,7.9989,7.9303,7.9304,7.8072,7.6801,7.6886,7.6894,7.6894,7.6897,7.6897,7.6905,7.69,7.6919,7.6897,7.6894,7.7525,7.8064,7.8017,7.8008,7.8008,7.8008,7.7265,7.6682,7.6682,7.6682,7.6682,7.6682,7.6682,7.6682,7.6682,7.6682,7.6682,7.6682,7.6682,7.6682,7.6682,7.6682,7.6682,7.6682,7.591,7.5526,7.5526,7.4639,7.4192,7.4235,7.435,7.4386,5.4879,5.6317,5.7965,6.0716,6.2834,6.5002,6.7988,6.8215,6.8726,7.2146,7.3969,7.5403,7.6988,7.8741,8.0322,8.1598,8.3214,8.4673,8.5666,8.5981,8.6118,8.6145,8.6384,8.6461,8.6191,8.6524,8.6676,8.6436,8.6556,8.6642,8.6681,8.6472,8.6237,8.5849,8.5617,8.5179,8.4541,8.4559,8.4144,8.333,8.3158,8.2914,8.2603,8.2233,8.1961,8.1755,8.1729,8.1702,8.1669,8.1707,8.1814,8.1888,8.1839,8.1859,8.1911,8.1897,8.1911,8.1895,8.1609,8.1303,8.1005,8.1065,8.0999,8.0971,8.1262,8.0364,7.9248,7.9294,7.8086,7.6797,7.6809,7.6789,7.6781,7.6882,7.7325,7.7598,7.7025,7.7349,7.7552,7.6969,7.6971,7.7283,7.7891,7.7503,7.7304,7.7891,7.7265,7.6682,7.6682,7.6682,7.6682,7.6682,7.6682,7.6682,7.6682,7.6682,7.6682,7.6682,7.6682,7.6682,7.6682,7.6682,7.6682,7.6682,7.6449,7.6354,7.6423,7.5572,7.5178,7.5164,7.4668,7.4416,5.661,5.8276,6.0105,6.3248,6.5152,6.7182,7.0781,7.1417,7.1995,7.4559,7.607,7.7382,7.8874,8.0025,8.1299,8.2945,8.3827,8.4755,8.6022,8.6207,8.6215,8.6269,8.6539,8.6624,8.6308,8.6669,8.6819,8.65,8.661,8.6687,8.6713,8.6448,8.6045,8.5495,8.5192,8.4571,8.3706,8.3718,8.3314,8.2499,8.2596,8.2582,8.2543,8.2008,8.1804,8.1814,8.1745,8.1739,8.176,8.176,8.1839,8.1892,8.1859,8.1869,8.1892,8.1892,8.1698,8.1349,8.0999,8.077,8.0494,7.997,8.0112,8.0481,8.0242,7.9471,7.8675,7.8743,7.8033,7.7248,7.7265,7.7486,7.755,7.6928,7.7157,7.739,7.6918,7.72,7.7412,7.6902,7.6756,7.6877,7.7386,7.7032,7.6877,7.7386,7.7032,7.6682,7.6682,7.6682,7.6682,7.6682,7.6682,7.6682,7.6682,7.6682,7.6691,7.6747,7.6696,7.6691,7.6752,7.6691,7.6682,7.6682,7.6682,7.6734,7.6764,7.6303,7.6073,7.6108,7.5638,7.5429,5.9806,6.1148,6.2643,6.655,6.8393,7.0126,7.3577,7.5051,7.589,7.6682,7.8202,7.9713,8.0764,8.1065,8.1941,8.434,8.4287,8.4466,8.6015,8.6339,8.6384,8.6391,8.697,8.7125,8.6469,8.7016,8.713,8.643,8.646,8.6494,8.6486,8.5824,8.5375,8.52,8.4522,8.3751,8.283,8.2926,8.259,8.1824,8.1946,8.1965,8.1892,8.1892,8.1869,8.1824,8.1819,8.1844,8.1892,8.1888,8.1888,8.1892,8.1892,8.1892,8.1892,8.1892,8.1387,8.061,7.9717,7.9868,8.0082,7.7671,7.8535,8.0136,7.8483,7.799,7.7996,7.7914,7.7846,7.7787,7.7868,7.8465,7.8654,7.6977,7.6662,7.673,7.6703,7.669,7.6729,7.6773,7.6752,7.6682,7.6682,7.6682,7.6682,7.6682,7.6682,7.6682,7.6682,7.6682,7.6682,7.6682,7.6682,7.6682,7.6682,7.6726,7.6747,7.6785,7.6752,7.6747,7.6785,7.6747,7.6682,7.6682,7.6682,7.6682,7.6682,7.6773,7.686,7.6897,7.6894,7.693,5.9994,6.1262,6.2965,6.7259,7.1186,7.4399,7.5944,7.7484,7.862,7.878,7.9103,8.0119,8.2518,8.3006,8.3463,8.482,8.5483,8.5952,8.6373,8.6414,8.6406,8.6472,8.6015,8.5938,8.644,8.6064,8.5719,8.5577,8.561,8.5408,8.4776,8.4649,8.427,8.363,8.3422,8.2956,8.2116,8.2751,8.2688,8.1878,8.2543,8.2514,8.1892,8.1892,8.1888,8.1873,8.1834,8.1844,8.1892,8.1849,8.1859,8.1892,8.1892,8.1892,8.1892,8.1892,8.1776,8.1504,8.061,7.9937,7.9324,7.8765,7.8945,7.9259,7.8882,7.8762,7.8613,7.7993,7.7403,7.6958,7.6929,7.707,7.7137,7.6696,7.7142,7.7514,7.6833,7.6712,7.6712,7.6734,7.673,7.6682,7.6682,7.6682,7.6682,7.6682,7.6682,7.6682,7.6682,7.6682,7.6682,7.6682,7.6682,7.6682,7.6682,7.6756,7.6768,7.6739,7.6764,7.6764,7.6739,7.6726,7.6682,7.6682,7.6682,7.6682,7.6682,7.6805,7.6886,7.6897,7.6959,7.699,6.1403,6.3502,6.621,7.076,7.4038,7.6531,7.7892,7.8917,7.9802,8.0649,8.1124,8.1878,8.3356,8.4034,8.4628,8.5559,8.5796,8.5994,8.6423,8.65,8.6507,8.6549,8.5782,8.5435,8.5898,8.5197,8.474,8.477,8.4806,8.4659,8.4255,8.4309,8.3936,8.3061,8.3073,8.2699,8.1859,8.232,8.2291,8.1892,8.233,8.2281,8.1859,8.1859,8.1844,8.1781,8.1819,8.1834,8.1854,8.1829,8.1849,8.1892,8.1869,8.1873,8.1892,8.1892,8.1621,8.1227,8.0738,7.9956,7.9091,7.8677,7.8513,7.8463,7.8458,7.817,7.7844,7.7844,7.7558,7.7269,7.7239,7.7584,7.782,7.7389,7.7292,7.721,7.679,7.6708,7.6699,7.6717,7.6682,7.6682,7.6682,7.6682,7.6682,7.6682,7.6682,7.6691,7.6752,7.6734,7.6691,7.6756,7.6734,7.6691,7.6756,7.6781,7.6801,7.6817,7.6821,7.6821,7.6817,7.6801,7.6768,7.6682,7.6743,7.6756,7.6756,7.6864,7.6905,7.6883,7.6959,7.6981,6.2852,6.6116,7.0005,7.4255,7.6242,7.7593,7.9275,7.9907,8.0546,8.2115,8.2956,8.3495,8.3903,8.4587,8.5364,8.6074,8.5668,8.5478,8.6173,8.6221,8.6223,8.6377,8.5494,8.4959,8.5062,8.4379,8.3932,8.3962,8.3967,8.3956,8.3866,8.3912,8.3591,8.2848,8.2859,8.2534,8.1829,8.1854,8.1873,8.1878,8.1873,8.1762,8.1556,8.1556,8.1612,8.1696,8.1745,8.1765,8.1765,8.1765,8.1829,8.1864,8.1829,8.1844,8.1883,8.1892,8.1426,8.0795,8.0597,8.0039,7.9287,7.8372,7.8124,7.8085,7.8098,7.7477,7.6945,7.7671,7.7785,7.7671,7.7671,7.8258,7.865,7.7925,7.7166,7.6623,7.6703,7.6694,7.6719,7.6717,7.6682,7.6682,7.6682,7.673,7.6691,7.6682,7.6734,7.6756,7.6777,7.676,7.676,7.6789,7.6764,7.6764,7.6801,7.6809,7.684,7.6894,7.6919,7.6915,7.6897,7.6912,7.6864,7.6747,7.6785,7.6805,7.6805,7.6886,7.688,7.6907,7.6914,7.6933,6.2849,6.6976,7.1571,7.3955,7.6423,7.8554,7.9531,8.103,8.2273,8.2596,8.2613,8.3055,8.4713,8.5088,8.5232,8.5409,8.5352,8.532,8.5436,8.4862,8.4675,8.5372,8.4146,8.35,8.4179,8.3533,8.3066,8.3084,8.309,8.2787,8.2158,8.2135,8.2111,8.2068,8.2043,8.2009,8.1883,8.176,8.1745,8.1824,8.1739,8.1298,8.05,8.05,8.0955,8.1696,8.1702,8.1707,8.1707,8.1707,8.1713,8.1723,8.176,8.1819,8.1834,8.1878,8.1815,8.1621,8.0834,8.0456,8.0184,7.9231,7.8938,7.8922,7.8855,7.828,7.7656,7.7715,7.724,7.6704,7.6704,7.6824,7.6968,7.6898,7.679,7.6708,7.6717,7.6717,7.6717,7.6682,7.6682,7.6682,7.6682,7.6756,7.6768,7.673,7.6793,7.6817,7.6743,7.6797,7.6867,7.6797,7.6821,7.6882,7.6886,7.6876,7.6883,7.6905,7.6887,7.689,7.6905,7.6897,7.689,7.6879,7.6886,7.6886,7.6886,7.6883,7.6904,7.6907,7.6978,7.6993,6.5199,6.8734,7.2005,7.4498,7.68,7.8715,7.969,8.0961,8.1953,8.2026,8.2367,8.307,8.4366,8.4965,8.5113,8.4682,8.4624,8.4637,8.4637,8.4714,8.4908,8.5256,8.4276,8.3701,8.4063,8.2883,8.2157,8.2228,8.2205,8.2045,8.1809,8.1814,8.1829,8.1849,8.1412,8.114,8.1116,8.0562,8.0537,8.0992,8.0506,8.0256,8.0192,7.9227,7.9555,8.0859,8.0888,8.1176,8.1646,8.1646,8.1663,8.1691,8.1686,8.1702,8.1739,8.1829,8.1849,8.1772,8.1422,8.0946,8.0344,7.9461,7.912,7.9005,7.8524,7.8143,7.7932,7.837,7.7561,7.6669,7.7195,7.7011,7.6677,7.6708,7.6682,7.6682,7.6682,7.6743,7.6764,7.6764,7.6739,7.6691,7.6756,7.6756,7.6747,7.6687,7.6781,7.6856,7.6801,7.6875,7.6897,7.6858,7.6897,7.6905,7.6883,7.6897,7.691,7.6956,7.6969,7.6969,7.6956,7.6956,7.6956,7.6956,7.6936,7.6887,7.6887,7.692,7.6975,7.6975,7.699,7.7008,6.6626,6.9346,7.1454,7.4347,7.6448,7.813,7.9398,8.0588,8.1517,8.1762,8.2559,8.3343,8.373,8.4462,8.4785,8.4203,8.3895,8.3908,8.4366,8.4366,8.4521,8.4946,8.4076,8.3457,8.3438,8.229,8.1565,8.1669,8.1646,8.1669,8.1755,8.1809,8.1693,8.1444,8.0859,8.0437,8.013,7.9494,7.9458,8.0052,7.9393,7.9224,7.9512,7.8181,7.8406,7.9829,7.9897,8.0386,8.1186,8.1222,8.1395,8.1562,8.1356,8.1418,8.1613,8.1485,8.1551,8.1755,8.1755,8.1343,8.0733,8.0053,7.9538,7.9052,7.8672,7.8096,7.7762,7.8556,7.7736,7.6749,7.7448,7.7336,7.7021,7.7023,7.7201,7.7239,7.679,7.6734,7.676,7.676,7.673,7.6726,7.6785,7.6773,7.676,7.676,7.6805,7.6844,7.6894,7.6912,7.6929,7.6904,7.6933,7.6933,7.692,7.692,7.6933,7.6996,7.6999,7.6999,7.6999,7.7005,7.7011,7.7011,7.6954,7.6939,7.692,7.6993,7.7011,7.7011,7.7019,7.6997,6.5497,6.7645,6.964,7.2577,7.4779,7.6696,7.8468,8.0248,8.1729,8.2548,8.3417,8.3808,8.3111,8.3608,8.4171,8.4114,8.3405,8.3405,8.5024,8.3199,8.231,8.3979,8.272,8.1732,8.1658,8.1597,8.1606,8.1612,8.1663,8.1691,8.1696,8.1789,8.1406,8.0494,8.0417,7.999,7.9176,7.9122,7.9099,7.9079,7.9034,7.8572,7.7737,7.7653,7.8039,7.8797,7.8838,7.9333,8.0084,8.0222,8.0705,8.1249,8.0538,8.0781,8.14,8.0665,8.0955,8.1702,8.1702,8.1734,8.1693,8.1602,8.0528,7.9422,8.0056,7.8626,7.6914,7.7747,7.731,7.6612,7.6661,7.7244,7.7836,7.7921,7.8548,7.8712,7.7069,7.6701,7.6705,7.6705,7.6701,7.6729,7.6777,7.6864,7.689,7.689,7.6949,7.6969,7.6905,7.6956,7.6981,7.691,7.6975,7.6993,7.6996,7.6996,7.6996,7.6999,7.6999,7.6999,7.6999,7.6989,7.7002,7.7002,7.6988,7.6975,7.6996,7.6989,7.7002,7.7004,7.699,7.7001,6.4548,6.7016,6.9294,7.1067,7.3819,7.6279,7.6963,7.8973,8.0775,8.1127,8.1928,8.246,8.2116,8.2762,8.3144,8.2577,8.2192,8.2174,8.2842,8.261,8.261,8.3274,8.2789,8.239,8.2322,8.1874,8.1606,8.1606,8.1081,8.0821,8.0821,8.034,7.9914,7.9582,7.9077,7.8325,7.7395,7.7873,7.8083,7.8059,7.8059,7.7827,7.7445,7.6905,7.6748,7.6987,7.6976,7.8479,8.0858,8.0332,8.0313,8.0583,8.0286,8.0072,7.9924,8.0183,8.0185,8.0091,8.0672,8.0888,8.0826,8.0228,8.0037,7.9806,7.8336,7.7708,7.7652,7.845,7.7659,7.687,7.8092,7.7757,7.714,7.7226,7.7908,7.8336,7.7688,7.7114,7.6764,7.6817,7.6785,7.6773,7.6855,7.6862,7.6897,7.6897,7.6936,7.6917,7.6894,7.6972,7.6993,7.6981,7.699,7.6999,7.6999,7.7017,7.6989,7.6989,7.7007,7.7017,7.7017,7.6988,7.6992,7.6992,7.7001,7.6997,7.7017,7.6988,7.6992,7.6992,7.7001,7.7012,6.3616,6.5791,6.8074,7.0447,7.2692,7.4686,7.6294,7.8033,7.9512,8.0097,8.1004,8.168,8.1618,8.21,8.2421,8.2047,8.1746,8.1746,8.233,8.247,8.2592,8.2884,8.267,8.2452,8.2367,8.1913,8.1595,8.1571,8.0775,8.0317,8.0317,7.9548,7.895,7.8599,7.7811,7.7047,7.6338,7.6893,7.7119,7.7054,7.7054,7.7014,7.6945,7.6367,7.6209,7.6438,7.6707,7.8188,8.0365,7.9814,7.9963,8.0473,7.9913,7.9552,7.9384,7.9388,7.9263,7.9138,7.972,7.9936,7.9836,7.9299,7.9337,7.9368,7.7821,7.7421,7.7705,7.8794,7.7902,7.6977,7.8508,7.8263,7.7611,7.7644,7.8322,7.887,7.853,7.7835,7.7237,7.729,7.7023,7.6817,7.6894,7.689,7.6919,7.6929,7.691,7.6923,7.6923,7.6984,7.6999,7.6999,7.6999,7.6999,7.6999,7.6989,7.7004,7.7004,7.6992,7.7006,7.7006,7.7012,7.7016,7.7016,7.7022,7.7026,7.7026,7.7018,7.7016,7.7016,7.7022,7.7073,0.0,0.0,0.0,7.0516,7.119,7.1855,7.6299,7.7422,7.8013,7.9675,8.0874,8.1597,8.1579,8.1663,8.1912,8.2585,8.2068,8.2148,8.3769,8.2627,8.1907,8.2697,8.2123,8.1608,8.1471,8.1565,8.1577,8.1465,8.0707,8.0239,8.0239,7.947,7.8561,7.7582,7.6793,7.6338,7.6198,7.6263,7.6263,7.6185,7.6185,7.6152,7.609,7.609,7.6517,7.733,7.8099,7.8446,7.8492,7.8573,7.9603,8.0952,7.9373,7.9287,7.9849,7.8271,7.8238,7.895,7.8989,7.8992,7.8961,7.9083,7.858,7.8052,7.8822,7.793,7.7,7.8618,7.7927,7.6929,7.77,7.8595,7.9325,7.9402,8.0061,8.0439,7.9625,7.8773,7.8162,7.8162,7.7458,7.6899,7.6975,7.6946,7.6959,7.7032,7.7038,7.6999,7.6999,7.6999,7.6999,7.6999,7.6999,7.6999,7.6999,7.6989,7.7007,7.7007,7.7034,7.7047,7.7047,7.7104,7.7153,7.7153,7.7092,7.7101,7.7101,7.7084,7.7114,7.7114,7.7094,7.7101,6.1035,0.0,0.0,0.0,0.0,0.0,7.244,7.4191,7.6096,7.798,7.8593,7.9176,8.0433,8.0191,7.9891,8.0019,8.0398,8.0837,8.1348,8.0517,7.9886,8.014,8.049,8.0711,8.0581,8.1178,8.1323,8.068,7.9846,7.9122,7.8535,7.7649,7.7028,7.6722,7.646,7.6288,7.6198,7.6165,7.6118,7.608,7.608,7.6065,7.6051,7.6051,7.6152,7.6361,7.6592,7.7083,7.7788,7.905,7.9471,7.9412,7.9641,7.9526,7.9243,7.9404,7.8894,7.8138,7.8796,7.8576,7.8168,7.8826,7.8867,7.8635,7.8208,7.8248,7.839,7.8279,7.7894,7.7637,7.7943,7.7762,7.7771,7.9085,7.9575,7.9862,8.032,8.0221,7.9877,7.9254,7.8925,7.8766,7.877,7.8309,7.7922,7.7932,7.7389,7.6999,7.6999,7.6999,7.6999,7.6999,7.6999,7.7008,7.6991,7.7019,7.7001,7.7055,7.7676,7.8005,7.8005,7.8048,7.8049,7.8049,7.7418,7.7107,7.7117,7.7103,7.7094,7.7094,7.7098,7.7101,6.0281,6.2033,6.4037,6.5335,0.0,0.0,7.1014,7.2566,7.4234,7.614,7.7153,7.7903,7.8574,7.8939,7.8966,7.8613,7.8962,7.9432,7.9792,7.9448,7.9137,7.9094,7.9581,7.9847,7.9698,8.0233,8.034,7.9784,7.8965,7.8075,7.7262,7.6692,7.638,7.6319,7.6276,7.6212,7.6104,7.6097,7.6055,7.6015,7.6015,7.6015,7.6015,7.6015,7.6037,7.6065,7.6443,7.6717,7.7018,7.8714,7.9142,7.883,7.9372,7.9327,7.9011,7.9512,7.8834,7.7829,7.868,7.8409,7.7829,7.8718,7.8742,7.8418,7.8305,7.8108,7.801,7.8286,7.8131,7.7806,7.7544,7.7325,7.7485,7.8513,7.9333,8.0065,8.0598,8.1031,8.1033,8.0227,7.975,7.951,7.9487,7.91,7.8789,7.8789,7.8087,7.7548,7.7523,7.7211,7.6983,7.6997,7.6997,7.7004,7.6983,7.7045,7.7061,7.7112,7.757,7.7857,7.7857,7.7857,7.7857,7.7857,7.7379,7.7106,7.7115,7.7112,7.7111,7.7111,7.7104,7.7104,6.0,6.1103,0.0,6.5276,6.6066,0.0,7.0669,7.1533,7.2181,7.4043,7.5696,7.6618,7.614,7.7241,7.7997,7.7273,7.7253,7.7721,7.8796,7.8959,7.8907,7.8829,7.8949,7.8993,7.8864,7.9017,7.9039,7.8903,7.8085,7.7189,7.6276,7.6237,7.6177,7.6044,7.6031,7.6048,7.5991,7.6055,7.6048,7.6015,7.6015,7.6015,7.6015,7.6022,7.6027,7.6122,7.6931,7.6857,7.6308,7.7805,7.854,7.876,7.8844,7.9005,7.9132,7.9144,7.8641,7.8061,7.8757,7.8486,7.7983,7.8757,7.8486,7.7983,7.8757,7.7906,7.6984,7.846,7.8263,7.7501,7.6907,7.7268,7.7846,7.8132,7.9294,8.0409,8.0686,8.133,8.1665,8.1036,8.0227,7.9685,7.9763,7.9646,7.9532,7.9652,7.8948,7.8414,7.8291,7.7631,7.7092,7.7004,7.7006,7.7006,7.7008,7.7063,7.7114,7.7119,7.7175,7.7224,7.7225,7.7225,7.7225,7.7225,7.7147,7.7108,7.7108,7.7118,7.7083,7.7081,7.711,7.7111,5.9345,6.0182,6.1288,6.262,6.4057,0.0,6.7164,6.8118,6.9268,7.1149,7.1287,7.1498,7.2868,7.2865,7.2598,7.2449,7.3148,7.4754,7.7721,7.7588,7.7123,7.7003,7.7671,7.8108,7.802,7.8611,7.8783,7.8159,7.7317,7.6367,7.5327,7.5282,7.5245,7.517,7.5104,7.5404,7.6076,7.6027,7.5991,7.6015,7.6015,7.6015,7.6015,7.6041,7.6048,7.6044,7.6262,7.6286,7.623,7.6485,7.7084,7.7839,7.8593,7.9282,7.9881,7.9932,7.9879,7.9647,7.9183,7.8873,7.8757,7.895,7.8873,7.8796,7.895,7.8757,7.8421,7.8125,7.7407,7.6887,7.7493,7.7243,7.7389,7.9573,7.9321,7.9173,8.1271,8.133,8.1123,8.1661,8.1108,8.0776,8.1481,8.0428,7.9772,8.0502,7.9859,7.9043,7.8394,7.8148,7.7794,7.7082,7.7006,7.7012,7.7067,7.7071,7.7087,7.7114,7.7752,7.8151,7.8156,7.8156,7.8156,7.8156,7.7492,7.718,7.718,7.713,7.7117,7.7106,7.7115,7.7081,5.8624,5.9591,6.0828,6.1371,6.2571,0.0,0.0,6.5898,6.7003,6.8558,6.9184,6.9509,6.9727,7.0484,7.0785,6.9966,7.1042,7.2562,7.4293,7.502,7.5317,7.521,7.6006,7.6543,7.6444,7.7251,7.7423,7.656,7.5714,7.5006,7.442,7.4377,7.4327,7.4262,7.4189,7.4533,7.5379,7.5382,7.5553,7.6015,7.6015,7.6015,7.6015,7.602,7.6034,7.6041,7.6076,7.6131,7.6192,7.6159,7.6455,7.6984,7.7911,7.8522,7.894,7.9441,7.9608,7.9531,7.9144,7.8989,7.8995,7.8986,7.871,7.8344,7.8441,7.8131,7.7688,7.7252,7.6837,7.6615,7.7106,7.7273,7.7753,7.9518,7.9658,7.9867,8.1637,8.1656,8.1484,8.1927,8.1338,8.0932,8.1364,8.0737,8.0165,8.0235,7.9486,7.8756,7.8417,7.7985,7.7519,7.7112,7.7036,7.7078,7.7087,7.7087,7.7095,7.7111,7.751,7.7752,7.7761,7.7761,7.7764,7.7767,7.7378,7.7183,7.7142,7.7139,7.7134,7.7169,7.713,7.7133,5.8325,5.929,6.0546,6.0798,6.1434,6.231,0.0,0.0,0.0,6.5935,6.7197,6.7769,6.6583,6.8046,6.9002,6.774,6.8892,6.9936,6.9936,7.154,7.2888,7.3314,7.4303,7.4879,7.4624,7.5327,7.5531,7.4928,7.4127,7.3634,7.3552,7.3491,7.3421,7.3341,7.3273,7.3623,7.4469,7.4623,7.5053,7.5745,7.5938,7.6015,7.6015,7.5991,7.6027,7.6076,7.6283,7.6279,7.6172,7.6351,7.6359,7.6359,7.7067,7.7619,7.8022,7.8757,7.9183,7.9453,7.9105,7.9105,7.9189,7.8855,7.8385,7.7947,7.7882,7.7345,7.6776,7.6776,7.6776,7.6825,7.7028,7.7661,7.8474,7.9333,8.0029,8.0711,8.1797,8.1859,8.1806,8.1969,8.1487,8.1043,8.1049,8.0782,8.0446,8.0165,7.9352,7.8745,7.8673,7.805,7.7471,7.7139,7.7101,7.7101,7.7101,7.7104,7.7107,7.711,7.7112,7.712,7.7131,7.7132,7.7135,7.7102,7.7184,7.7184,7.7102,7.7184,7.7185,7.7183,7.7141,7.7142,5.9046,5.9328,5.9795,6.0464,6.0873,6.1362,6.212,0.0,6.2857,6.2989,0.0,6.3467,6.3408,0.0,0.0,6.3737,6.4641,6.5338,6.535,6.6916,6.8932,7.123,7.3065,7.38,7.2971,7.3015,7.3369,7.3999,7.3281,7.2778,7.2564,7.2546,7.2482,7.2342,7.2367,7.2745,7.3623,7.4353,7.4738,7.4861,7.563,7.6015,7.6015,7.6048,7.6048,7.6068,7.6902,7.6822,7.6181,7.6881,7.6784,7.6212,7.6392,7.7426,7.8873,7.895,7.9956,8.0994,7.9531,7.9453,7.984,7.8344,7.834,7.8806,7.8049,7.7777,7.7731,7.7731,7.7731,7.793,7.8628,7.8981,7.9372,8.0265,7.999,8.0011,8.1641,8.1373,8.1076,8.1845,8.1934,8.187,8.1945,8.0725,8.0243,8.1677,8.1173,8.0369,7.9631,7.9465,7.8799,7.7256,7.7101,7.7101,7.7101,7.7114,7.7086,7.7095,7.7179,7.7184,7.7187,7.7187,7.7187,7.7187,7.7187,7.7187,7.7187,7.7187,7.7186,7.71,7.7143,7.7184,5.8549,5.8906,5.9467,5.9862,6.0066,6.0089,6.0002,6.0471,6.0803,6.0423,0.0,0.0,0.0,0.0,0.0,0.0,6.16,6.2427,6.3008,6.4176,6.5967,6.8612,7.0517,7.1667,7.1788,7.1391,7.1253,7.1601,7.0893,7.0584,7.0934,7.0931,7.1101,7.1505,7.1464,7.2129,7.3507,7.3815,7.4469,7.5476,7.5866,7.6048,7.6048,7.6083,7.6097,7.6143,7.6433,7.6395,7.6129,7.6436,7.6409,7.6198,7.6231,7.6746,7.7432,7.7469,7.8564,7.9879,7.868,7.8796,7.9221,7.7486,7.7279,7.7655,7.7783,7.7854,7.8023,7.8519,7.8641,7.8728,7.9107,7.9653,8.0193,8.0581,8.045,8.0422,8.1162,8.1006,8.0857,8.1218,8.1692,8.2056,8.2089,8.1115,8.0386,8.0663,8.0395,8.0023,7.9751,7.9242,7.8655,7.7921,7.7414,7.7101,7.7101,7.7115,7.7085,7.709,7.7141,7.7185,7.7186,7.7187,7.7187,7.7187,7.7187,7.7187,7.7187,7.7187,7.7187,7.7148,7.7187,7.7187,5.84,5.8784,5.9383,5.9429,5.9323,5.9122,5.8815,5.8912,5.9013,5.8819,5.9025,0.0,0.0,0.0,5.9364,5.8779,0.0,5.9964,6.0431,6.1492,6.3184,6.589,6.7533,6.8725,6.9368,6.8922,6.8707,6.8889,6.8397,6.8491,6.9473,6.9755,7.0124,7.0658,7.0837,7.1534,7.2776,7.3297,7.4144,7.5322,7.5863,7.6097,7.6097,7.6097,7.6131,7.6224,7.6332,7.6286,7.6156,7.6332,7.6335,7.6198,7.6218,7.6257,7.6384,7.6915,7.7906,7.895,7.8525,7.8486,7.8486,7.7448,7.7014,7.709,7.7899,7.8175,7.8393,7.9015,7.9229,7.9248,7.9285,7.9986,8.0711,8.0711,8.0925,8.1088,8.0854,8.0815,8.0815,8.0815,8.1331,8.1855,8.207,8.1399,8.0703,8.0361,7.9903,7.9647,7.9675,7.8936,7.8313,7.8079,7.7492,7.7103,7.7107,7.7082,7.709,7.7134,7.7417,7.7459,7.7225,7.7187,7.7187,7.7187,7.7187,7.7187,7.7187,7.7187,7.7187,7.7184,7.7187,7.7187,5.912,5.9328,5.9447,5.9355,5.8881,5.8643,5.9389,5.8333,5.7486,5.8497,0.0,0.0,5.7522,0.0,0.0,0.0,5.7836,0.0,0.0,5.8253,6.0418,6.3115,6.4265,6.492,6.4994,6.5037,6.5385,6.619,6.619,6.6924,6.8559,6.9386,6.981,6.9843,7.0574,7.1004,7.0975,7.2705,7.3584,7.3584,7.5285,7.6097,7.6097,7.6097,7.6131,7.623,7.7036,7.6896,7.6269,7.7111,7.6963,7.6198,7.6269,7.6301,7.6506,7.8269,7.895,7.9105,7.9879,7.9067,7.7867,7.8641,7.8379,7.7927,7.8734,7.9049,7.9175,7.9175,7.9253,7.929,7.9294,7.9986,8.0711,8.0711,8.1396,8.1831,8.0971,8.0815,8.0815,8.0815,8.0881,8.1179,8.1959,8.1431,8.1182,8.1986,8.0758,7.9715,7.9717,7.8936,7.8079,7.7218,7.7101,7.7107,7.7082,7.7093,7.7142,7.7187,7.8008,7.8086,7.7226,7.7187,7.7187,7.7187,7.7187,7.7187,7.7187,7.7187,7.7187,7.7184,7.7184,7.7182,5.9177,5.9281,5.9374,5.9299,5.8735,5.8141,5.7887,5.699,5.6183,5.5956,0.0,0.0,0.0,0.0,0.0,0.0,0.0,0.0,0.0,5.6038,5.7394,5.8812,6.0798,6.2095,6.2132,6.2761,6.3219,6.3511,6.4574,6.5732,6.6867,6.8229,6.9188,6.9765,7.0535,7.1195,7.1752,7.292,7.3805,7.4315,7.5516,7.6118,7.6159,7.6159,7.6225,7.6326,7.652,7.6469,7.6302,7.652,7.6495,7.6269,7.6295,7.6332,7.6451,7.7049,7.8022,7.9105,7.9918,7.9492,7.8525,7.8216,7.7576,7.7069,7.7999,7.8284,7.8486,7.9092,7.928,7.945,8.0028,8.0388,8.0788,8.14,8.141,8.1179,8.0848,8.0347,7.9958,7.9958,8.0455,8.0989,8.1241,8.1577,8.1865,8.2146,8.1725,8.1382,8.1394,8.0654,7.9992,7.9717,7.914,7.8835,7.8801,7.8308,7.8005,7.8047,7.7812,7.75,7.7226,7.7187,7.7186,7.7186,7.7145,7.7144,7.7144,7.7144,7.7141,7.7133,7.7133,7.7134,5.9749,5.9731,5.9703,5.9365,5.868,5.7976,5.7495,5.6507,5.5601,5.5103,0.0,0.0,0.0,0.0,0.0,0.0,0.0,0.0,0.0,5.3942,5.4432,5.5211,5.744,5.904,5.9373,5.9969,6.0591,6.117,6.2585,6.4062,6.5527,6.6844,6.8129,6.9303,7.0112,7.0887,7.1745,7.2619,7.3497,7.4276,7.5236,7.585,7.6198,7.6218,7.6295,7.6397,7.6282,7.6276,7.6338,7.6288,7.6301,7.6338,7.6338,7.6362,7.6442,7.6751,7.7945,7.9492,8.0027,7.9685,7.8912,7.8332,7.737,7.6653,7.7916,7.8114,7.8072,7.901,7.9047,7.8906,7.9191,7.9489,7.9955,8.087,8.0709,8.0348,8.0341,7.9919,7.9493,7.9547,8.0277,8.1007,8.1304,8.1834,8.2236,8.2236,8.1964,8.1776,8.1831,8.1092,8.0548,8.0553,8.0053,7.9707,7.971,7.9487,7.9101,7.8515,7.8242,7.7812,7.7226,7.7184,7.7143,7.7143,7.71,7.7098,7.7098,7.7098,7.7093,7.7083,7.7083,7.7085]}]]